<?xml version="1.0" encoding="UTF-8"?>
<gpx xmlns="http://www.topografix.com/GPX/1/1" xmlns:gpsies="https://www.gpsies.com/GPX/1/0" creator="GPSies https://www.gpsies.com - Adulam forest ST" version="1.1" xmlns:xsi="http://www.w3.org/2001/XMLSchema-instance" xsi:schemaLocation="http://www.topografix.com/GPX/1/1 http://www.topografix.com/GPX/1/1/gpx.xsd https://www.gpsies.com/GPX/1/0 https://www.gpsies.com/gpsies.xsd">
  <metadata>
    <name>Adulam forest ST</name>
    <author>
      <name>Sergeit</name>
      <link href="https://www.gpsies.com/mapUser.do?username=Sergeit">
        <text>Sergeit on GPSies.com</text>
        <type>GPSiesUserOnWeb</type>
      </link>
    </author>
    <link href="https://www.gpsies.com/map.do?fileId=kpisbhxcvilgnsml">
      <text>Adulam forest ST on GPSies.com</text>
      <type>trackOnWeb</type>
    </link>
    <time>2018-07-19T20:23:20Z</time>
    <extensions>
      <gpsies:property>round trip</gpsies:property>
      <gpsies:trackLengthMeter>31579.037935843848</gpsies:trackLengthMeter>
      <gpsies:totalAscentMeter>578.0</gpsies:totalAscentMeter>
      <gpsies:totalDescentMeter>578.0</gpsies:totalDescentMeter>
      <gpsies:minHeightMeter>273.0</gpsies:minHeightMeter>
      <gpsies:maxHeightMeter>426.0</gpsies:maxHeightMeter>
    </extensions>
  </metadata>
  <trk>
    <name>Adulam forest ST on GPSies.com</name>
    <link href="https://www.gpsies.com/map.do?fileId=kpisbhxcvilgnsml">
      <type>trackOnWeb</type>
    </link>
    <link href="https://www.gpsies.com/charts/kp/map/kpisbhxcvilgnsml_map.png">
      <type>elevationChartUrlMap</type>
    </link>
    <link href="https://www.gpsies.com/charts/kp/mapThumb/kpisbhxcvilgnsml_mapThumb.png">
      <type>elevationChartUrlMapThumb</type>
    </link>
    <link href="https://www.gpsies.com/charts/kp/tab/kpisbhxcvilgnsml_tab.png">
      <type>elevationChartUrlTab</type>
    </link>
    <trkseg>
      <trkpt lat="31.67747230" lon="34.92999860">
        <ele>320.00000</ele>
        <time>2010-01-01T00:00:00Z</time>
      </trkpt>
      <trkpt lat="31.67752850" lon="34.93000000">
        <ele>321.00000</ele>
        <time>2010-01-01T00:00:02Z</time>
      </trkpt>
      <trkpt lat="31.67758870" lon="34.92992100">
        <ele>322.00000</ele>
        <time>2010-01-01T00:00:05Z</time>
      </trkpt>
      <trkpt lat="31.67759070" lon="34.92978890">
        <ele>324.00000</ele>
        <time>2010-01-01T00:00:10Z</time>
      </trkpt>
      <trkpt lat="31.67759910" lon="34.92965630">
        <ele>325.00000</ele>
        <time>2010-01-01T00:00:14Z</time>
      </trkpt>
      <trkpt lat="31.67761200" lon="34.92953930">
        <ele>327.00000</ele>
        <time>2010-01-01T00:00:18Z</time>
      </trkpt>
      <trkpt lat="31.67763160" lon="34.92943310">
        <ele>328.00000</ele>
        <time>2010-01-01T00:00:22Z</time>
      </trkpt>
      <trkpt lat="31.67763760" lon="34.92931640">
        <ele>329.00000</ele>
        <time>2010-01-01T00:00:26Z</time>
      </trkpt>
      <trkpt lat="31.67765340" lon="34.92919750">
        <ele>331.00000</ele>
        <time>2010-01-01T00:00:30Z</time>
      </trkpt>
      <trkpt lat="31.67766020" lon="34.92907990">
        <ele>332.00000</ele>
        <time>2010-01-01T00:00:34Z</time>
      </trkpt>
      <trkpt lat="31.67764440" lon="34.92897190">
        <ele>332.00000</ele>
        <time>2010-01-01T00:00:38Z</time>
      </trkpt>
      <trkpt lat="31.67763320" lon="34.92886220">
        <ele>333.00000</ele>
        <time>2010-01-01T00:00:42Z</time>
      </trkpt>
      <trkpt lat="31.67762000" lon="34.92874470">
        <ele>333.00000</ele>
        <time>2010-01-01T00:00:46Z</time>
      </trkpt>
      <trkpt lat="31.67761450" lon="34.92862580">
        <ele>333.00000</ele>
        <time>2010-01-01T00:00:50Z</time>
      </trkpt>
      <trkpt lat="31.67761200" lon="34.92851360">
        <ele>334.00000</ele>
        <time>2010-01-01T00:00:54Z</time>
      </trkpt>
      <trkpt lat="31.67761380" lon="34.92838790">
        <ele>334.00000</ele>
        <time>2010-01-01T00:00:58Z</time>
      </trkpt>
      <trkpt lat="31.67760980" lon="34.92828140">
        <ele>335.00000</ele>
        <time>2010-01-01T00:01:02Z</time>
      </trkpt>
      <trkpt lat="31.67760320" lon="34.92817050">
        <ele>335.00000</ele>
        <time>2010-01-01T00:01:05Z</time>
      </trkpt>
      <trkpt lat="31.67759620" lon="34.92805420">
        <ele>335.00000</ele>
        <time>2010-01-01T00:01:09Z</time>
      </trkpt>
      <trkpt lat="31.67760810" lon="34.92793420">
        <ele>335.00000</ele>
        <time>2010-01-01T00:01:13Z</time>
      </trkpt>
      <trkpt lat="31.67763480" lon="34.92779730">
        <ele>335.00000</ele>
        <time>2010-01-01T00:01:18Z</time>
      </trkpt>
      <trkpt lat="31.67765580" lon="34.92765950">
        <ele>334.00000</ele>
        <time>2010-01-01T00:01:23Z</time>
      </trkpt>
      <trkpt lat="31.67766980" lon="34.92753090">
        <ele>333.00000</ele>
        <time>2010-01-01T00:01:27Z</time>
      </trkpt>
      <trkpt lat="31.67765610" lon="34.92741850">
        <ele>331.00000</ele>
        <time>2010-01-01T00:01:31Z</time>
      </trkpt>
      <trkpt lat="31.67756940" lon="34.92735520">
        <ele>330.00000</ele>
        <time>2010-01-01T00:01:35Z</time>
      </trkpt>
      <trkpt lat="31.67744730" lon="34.92735900">
        <ele>329.00000</ele>
        <time>2010-01-01T00:01:40Z</time>
      </trkpt>
      <trkpt lat="31.67734690" lon="34.92738640">
        <ele>330.00000</ele>
        <time>2010-01-01T00:01:44Z</time>
      </trkpt>
      <trkpt lat="31.67725370" lon="34.92738530">
        <ele>329.00000</ele>
        <time>2010-01-01T00:01:48Z</time>
      </trkpt>
      <trkpt lat="31.67715710" lon="34.92735220">
        <ele>329.00000</ele>
        <time>2010-01-01T00:01:52Z</time>
      </trkpt>
      <trkpt lat="31.67706190" lon="34.92731650">
        <ele>329.00000</ele>
        <time>2010-01-01T00:01:56Z</time>
      </trkpt>
      <trkpt lat="31.67697420" lon="34.92728330">
        <ele>329.00000</ele>
        <time>2010-01-01T00:02:00Z</time>
      </trkpt>
      <trkpt lat="31.67688190" lon="34.92724370">
        <ele>329.00000</ele>
        <time>2010-01-01T00:02:04Z</time>
      </trkpt>
      <trkpt lat="31.67677800" lon="34.92720410">
        <ele>329.00000</ele>
        <time>2010-01-01T00:02:08Z</time>
      </trkpt>
      <trkpt lat="31.67667920" lon="34.92716940">
        <ele>330.00000</ele>
        <time>2010-01-01T00:02:12Z</time>
      </trkpt>
      <trkpt lat="31.67658670" lon="34.92713490">
        <ele>331.00000</ele>
        <time>2010-01-01T00:02:16Z</time>
      </trkpt>
      <trkpt lat="31.67649210" lon="34.92710820">
        <ele>333.00000</ele>
        <time>2010-01-01T00:02:20Z</time>
      </trkpt>
      <trkpt lat="31.67639380" lon="34.92708510">
        <ele>334.00000</ele>
        <time>2010-01-01T00:02:24Z</time>
      </trkpt>
      <trkpt lat="31.67629870" lon="34.92705390">
        <ele>336.00000</ele>
        <time>2010-01-01T00:02:28Z</time>
      </trkpt>
      <trkpt lat="31.67622080" lon="34.92711560">
        <ele>338.00000</ele>
        <time>2010-01-01T00:02:32Z</time>
      </trkpt>
      <trkpt lat="31.67621070" lon="34.92723480">
        <ele>340.00000</ele>
        <time>2010-01-01T00:02:36Z</time>
      </trkpt>
      <trkpt lat="31.67621510" lon="34.92734400">
        <ele>341.00000</ele>
        <time>2010-01-01T00:02:40Z</time>
      </trkpt>
      <trkpt lat="31.67621530" lon="34.92746840">
        <ele>343.00000</ele>
        <time>2010-01-01T00:02:44Z</time>
      </trkpt>
      <trkpt lat="31.67619260" lon="34.92758770">
        <ele>344.00000</ele>
        <time>2010-01-01T00:02:48Z</time>
      </trkpt>
      <trkpt lat="31.67616060" lon="34.92770810">
        <ele>345.00000</ele>
        <time>2010-01-01T00:02:52Z</time>
      </trkpt>
      <trkpt lat="31.67606090" lon="34.92774850">
        <ele>346.00000</ele>
        <time>2010-01-01T00:02:56Z</time>
      </trkpt>
      <trkpt lat="31.67595430" lon="34.92776830">
        <ele>346.00000</ele>
        <time>2010-01-01T00:03:01Z</time>
      </trkpt>
      <trkpt lat="31.67586100" lon="34.92779880">
        <ele>346.00000</ele>
        <time>2010-01-01T00:03:05Z</time>
      </trkpt>
      <trkpt lat="31.67575390" lon="34.92783300">
        <ele>346.00000</ele>
        <time>2010-01-01T00:03:09Z</time>
      </trkpt>
      <trkpt lat="31.67565390" lon="34.92788270">
        <ele>346.00000</ele>
        <time>2010-01-01T00:03:13Z</time>
      </trkpt>
      <trkpt lat="31.67554300" lon="34.92791790">
        <ele>345.00000</ele>
        <time>2010-01-01T00:03:18Z</time>
      </trkpt>
      <trkpt lat="31.67542540" lon="34.92794910">
        <ele>345.00000</ele>
        <time>2010-01-01T00:03:23Z</time>
      </trkpt>
      <trkpt lat="31.67532850" lon="34.92797750">
        <ele>344.00000</ele>
        <time>2010-01-01T00:03:27Z</time>
      </trkpt>
      <trkpt lat="31.67523620" lon="34.92800070">
        <ele>343.00000</ele>
        <time>2010-01-01T00:03:31Z</time>
      </trkpt>
      <trkpt lat="31.67513150" lon="34.92803910">
        <ele>343.00000</ele>
        <time>2010-01-01T00:03:35Z</time>
      </trkpt>
      <trkpt lat="31.67502240" lon="34.92804530">
        <ele>344.00000</ele>
        <time>2010-01-01T00:03:39Z</time>
      </trkpt>
      <trkpt lat="31.67493830" lon="34.92800820">
        <ele>345.00000</ele>
        <time>2010-01-01T00:03:43Z</time>
      </trkpt>
      <trkpt lat="31.67485820" lon="34.92801190">
        <ele>347.00000</ele>
        <time>2010-01-01T00:03:46Z</time>
      </trkpt>
      <trkpt lat="31.67477400" lon="34.92802450">
        <ele>348.00000</ele>
        <time>2010-01-01T00:03:50Z</time>
      </trkpt>
      <trkpt lat="31.67468200" lon="34.92805980">
        <ele>349.00000</ele>
        <time>2010-01-01T00:03:53Z</time>
      </trkpt>
      <trkpt lat="31.67458770" lon="34.92808100">
        <ele>350.00000</ele>
        <time>2010-01-01T00:03:57Z</time>
      </trkpt>
      <trkpt lat="31.67449870" lon="34.92810480">
        <ele>351.00000</ele>
        <time>2010-01-01T00:04:01Z</time>
      </trkpt>
      <trkpt lat="31.67441500" lon="34.92815630">
        <ele>352.00000</ele>
        <time>2010-01-01T00:04:05Z</time>
      </trkpt>
      <trkpt lat="31.67431550" lon="34.92818550">
        <ele>353.00000</ele>
        <time>2010-01-01T00:04:09Z</time>
      </trkpt>
      <trkpt lat="31.67421970" lon="34.92821380">
        <ele>354.00000</ele>
        <time>2010-01-01T00:04:13Z</time>
      </trkpt>
      <trkpt lat="31.67412400" lon="34.92816730">
        <ele>355.00000</ele>
        <time>2010-01-01T00:04:17Z</time>
      </trkpt>
      <trkpt lat="31.67407390" lon="34.92807480">
        <ele>356.00000</ele>
        <time>2010-01-01T00:04:21Z</time>
      </trkpt>
      <trkpt lat="31.67403550" lon="34.92797610">
        <ele>357.00000</ele>
        <time>2010-01-01T00:04:24Z</time>
      </trkpt>
      <trkpt lat="31.67397650" lon="34.92788990">
        <ele>359.00000</ele>
        <time>2010-01-01T00:04:28Z</time>
      </trkpt>
      <trkpt lat="31.67392270" lon="34.92780360">
        <ele>360.00000</ele>
        <time>2010-01-01T00:04:32Z</time>
      </trkpt>
      <trkpt lat="31.67389310" lon="34.92768840">
        <ele>360.00000</ele>
        <time>2010-01-01T00:04:36Z</time>
      </trkpt>
      <trkpt lat="31.67390690" lon="34.92758430">
        <ele>360.00000</ele>
        <time>2010-01-01T00:04:40Z</time>
      </trkpt>
      <trkpt lat="31.67389320" lon="34.92746560">
        <ele>360.00000</ele>
        <time>2010-01-01T00:04:44Z</time>
      </trkpt>
      <trkpt lat="31.67385620" lon="34.92734490">
        <ele>361.00000</ele>
        <time>2010-01-01T00:04:48Z</time>
      </trkpt>
      <trkpt lat="31.67379350" lon="34.92724770">
        <ele>362.00000</ele>
        <time>2010-01-01T00:04:52Z</time>
      </trkpt>
      <trkpt lat="31.67372100" lon="34.92717730">
        <ele>363.00000</ele>
        <time>2010-01-01T00:04:56Z</time>
      </trkpt>
      <trkpt lat="31.67364870" lon="34.92710230">
        <ele>364.00000</ele>
        <time>2010-01-01T00:05:00Z</time>
      </trkpt>
      <trkpt lat="31.67356680" lon="34.92702440">
        <ele>365.00000</ele>
        <time>2010-01-01T00:05:04Z</time>
      </trkpt>
      <trkpt lat="31.67348950" lon="34.92694410">
        <ele>366.00000</ele>
        <time>2010-01-01T00:05:08Z</time>
      </trkpt>
      <trkpt lat="31.67342230" lon="34.92687350">
        <ele>366.00000</ele>
        <time>2010-01-01T00:05:12Z</time>
      </trkpt>
      <trkpt lat="31.67334510" lon="34.92679930">
        <ele>367.00000</ele>
        <time>2010-01-01T00:05:16Z</time>
      </trkpt>
      <trkpt lat="31.67327390" lon="34.92671670">
        <ele>366.00000</ele>
        <time>2010-01-01T00:05:20Z</time>
      </trkpt>
      <trkpt lat="31.67319920" lon="34.92664050">
        <ele>366.00000</ele>
        <time>2010-01-01T00:05:24Z</time>
      </trkpt>
      <trkpt lat="31.67312710" lon="34.92654750">
        <ele>365.00000</ele>
        <time>2010-01-01T00:05:28Z</time>
      </trkpt>
      <trkpt lat="31.67303760" lon="34.92644850">
        <ele>364.00000</ele>
        <time>2010-01-01T00:05:33Z</time>
      </trkpt>
      <trkpt lat="31.67293580" lon="34.92634620">
        <ele>363.00000</ele>
        <time>2010-01-01T00:05:38Z</time>
      </trkpt>
      <trkpt lat="31.67287510" lon="34.92625710">
        <ele>362.00000</ele>
        <time>2010-01-01T00:05:42Z</time>
      </trkpt>
      <trkpt lat="31.67283500" lon="34.92614670">
        <ele>362.00000</ele>
        <time>2010-01-01T00:05:46Z</time>
      </trkpt>
      <trkpt lat="31.67280190" lon="34.92603140">
        <ele>360.00000</ele>
        <time>2010-01-01T00:05:50Z</time>
      </trkpt>
      <trkpt lat="31.67273800" lon="34.92590930">
        <ele>359.00000</ele>
        <time>2010-01-01T00:05:55Z</time>
      </trkpt>
      <trkpt lat="31.67264810" lon="34.92584430">
        <ele>358.00000</ele>
        <time>2010-01-01T00:05:59Z</time>
      </trkpt>
      <trkpt lat="31.67257270" lon="34.92586800">
        <ele>358.00000</ele>
        <time>2010-01-01T00:06:03Z</time>
      </trkpt>
      <trkpt lat="31.67251300" lon="34.92598640">
        <ele>359.00000</ele>
        <time>2010-01-01T00:06:07Z</time>
      </trkpt>
      <trkpt lat="31.67246000" lon="34.92609910">
        <ele>359.00000</ele>
        <time>2010-01-01T00:06:12Z</time>
      </trkpt>
      <trkpt lat="31.67239400" lon="34.92622190">
        <ele>358.00000</ele>
        <time>2010-01-01T00:06:17Z</time>
      </trkpt>
      <trkpt lat="31.67230120" lon="34.92638390">
        <ele>355.00000</ele>
        <time>2010-01-01T00:06:23Z</time>
      </trkpt>
      <trkpt lat="31.67219770" lon="34.92653950">
        <ele>353.00000</ele>
        <time>2010-01-01T00:06:30Z</time>
      </trkpt>
      <trkpt lat="31.67207480" lon="34.92666330">
        <ele>351.00000</ele>
        <time>2010-01-01T00:06:36Z</time>
      </trkpt>
      <trkpt lat="31.67199710" lon="34.92672130">
        <ele>350.00000</ele>
        <time>2010-01-01T00:06:40Z</time>
      </trkpt>
      <trkpt lat="31.67190680" lon="34.92677290">
        <ele>348.00000</ele>
        <time>2010-01-01T00:06:44Z</time>
      </trkpt>
      <trkpt lat="31.67180610" lon="34.92681970">
        <ele>347.00000</ele>
        <time>2010-01-01T00:06:49Z</time>
      </trkpt>
      <trkpt lat="31.67170350" lon="34.92686540">
        <ele>347.00000</ele>
        <time>2010-01-01T00:06:53Z</time>
      </trkpt>
      <trkpt lat="31.67161440" lon="34.92690990">
        <ele>346.00000</ele>
        <time>2010-01-01T00:06:57Z</time>
      </trkpt>
      <trkpt lat="31.67148760" lon="34.92699480">
        <ele>345.00000</ele>
        <time>2010-01-01T00:07:03Z</time>
      </trkpt>
      <trkpt lat="31.67139810" lon="34.92708110">
        <ele>345.00000</ele>
        <time>2010-01-01T00:07:07Z</time>
      </trkpt>
      <trkpt lat="31.67134240" lon="34.92717590">
        <ele>345.00000</ele>
        <time>2010-01-01T00:07:11Z</time>
      </trkpt>
      <trkpt lat="31.67129590" lon="34.92729730">
        <ele>346.00000</ele>
        <time>2010-01-01T00:07:16Z</time>
      </trkpt>
      <trkpt lat="31.67121550" lon="34.92735560">
        <ele>346.00000</ele>
        <time>2010-01-01T00:07:19Z</time>
      </trkpt>
      <trkpt lat="31.67110140" lon="34.92733310">
        <ele>344.00000</ele>
        <time>2010-01-01T00:07:24Z</time>
      </trkpt>
      <trkpt lat="31.67097720" lon="34.92727990">
        <ele>343.00000</ele>
        <time>2010-01-01T00:07:29Z</time>
      </trkpt>
      <trkpt lat="31.67087240" lon="34.92724010">
        <ele>343.00000</ele>
        <time>2010-01-01T00:07:34Z</time>
      </trkpt>
      <trkpt lat="31.67074820" lon="34.92719270">
        <ele>342.00000</ele>
        <time>2010-01-01T00:07:39Z</time>
      </trkpt>
      <trkpt lat="31.67059800" lon="34.92713820">
        <ele>342.00000</ele>
        <time>2010-01-01T00:07:45Z</time>
      </trkpt>
      <trkpt lat="31.67042140" lon="34.92708160">
        <ele>342.00000</ele>
        <time>2010-01-01T00:07:53Z</time>
      </trkpt>
      <trkpt lat="31.67032760" lon="34.92705230">
        <ele>342.00000</ele>
        <time>2010-01-01T00:07:57Z</time>
      </trkpt>
      <trkpt lat="31.67023120" lon="34.92701530">
        <ele>342.00000</ele>
        <time>2010-01-01T00:08:01Z</time>
      </trkpt>
      <trkpt lat="31.67013640" lon="34.92697280">
        <ele>341.00000</ele>
        <time>2010-01-01T00:08:05Z</time>
      </trkpt>
      <trkpt lat="31.67004290" lon="34.92692890">
        <ele>341.00000</ele>
        <time>2010-01-01T00:08:09Z</time>
      </trkpt>
      <trkpt lat="31.66994890" lon="34.92688770">
        <ele>339.00000</ele>
        <time>2010-01-01T00:08:13Z</time>
      </trkpt>
      <trkpt lat="31.66985680" lon="34.92684740">
        <ele>338.00000</ele>
        <time>2010-01-01T00:08:17Z</time>
      </trkpt>
      <trkpt lat="31.66976730" lon="34.92680630">
        <ele>337.00000</ele>
        <time>2010-01-01T00:08:21Z</time>
      </trkpt>
      <trkpt lat="31.66968000" lon="34.92676190">
        <ele>335.00000</ele>
        <time>2010-01-01T00:08:24Z</time>
      </trkpt>
      <trkpt lat="31.66959500" lon="34.92672000">
        <ele>333.00000</ele>
        <time>2010-01-01T00:08:28Z</time>
      </trkpt>
      <trkpt lat="31.66942950" lon="34.92664050">
        <ele>329.00000</ele>
        <time>2010-01-01T00:08:35Z</time>
      </trkpt>
      <trkpt lat="31.66934590" lon="34.92659850">
        <ele>327.00000</ele>
        <time>2010-01-01T00:08:39Z</time>
      </trkpt>
      <trkpt lat="31.66917490" lon="34.92651180">
        <ele>324.00000</ele>
        <time>2010-01-01T00:08:46Z</time>
      </trkpt>
      <trkpt lat="31.66905050" lon="34.92642280">
        <ele>323.00000</ele>
        <time>2010-01-01T00:08:52Z</time>
      </trkpt>
      <trkpt lat="31.66899090" lon="34.92632720">
        <ele>323.00000</ele>
        <time>2010-01-01T00:08:56Z</time>
      </trkpt>
      <trkpt lat="31.66899580" lon="34.92618590">
        <ele>325.00000</ele>
        <time>2010-01-01T00:09:01Z</time>
      </trkpt>
      <trkpt lat="31.66900670" lon="34.92604660">
        <ele>326.00000</ele>
        <time>2010-01-01T00:09:06Z</time>
      </trkpt>
      <trkpt lat="31.66900330" lon="34.92590570">
        <ele>326.00000</ele>
        <time>2010-01-01T00:09:11Z</time>
      </trkpt>
      <trkpt lat="31.66898760" lon="34.92577320">
        <ele>327.00000</ele>
        <time>2010-01-01T00:09:15Z</time>
      </trkpt>
      <trkpt lat="31.66897460" lon="34.92564780">
        <ele>327.00000</ele>
        <time>2010-01-01T00:09:19Z</time>
      </trkpt>
      <trkpt lat="31.66895860" lon="34.92553240">
        <ele>327.00000</ele>
        <time>2010-01-01T00:09:23Z</time>
      </trkpt>
      <trkpt lat="31.66894300" lon="34.92541820">
        <ele>328.00000</ele>
        <time>2010-01-01T00:09:27Z</time>
      </trkpt>
      <trkpt lat="31.66893100" lon="34.92530890">
        <ele>329.00000</ele>
        <time>2010-01-01T00:09:31Z</time>
      </trkpt>
      <trkpt lat="31.66891900" lon="34.92519680">
        <ele>329.00000</ele>
        <time>2010-01-01T00:09:35Z</time>
      </trkpt>
      <trkpt lat="31.66890320" lon="34.92508510">
        <ele>329.00000</ele>
        <time>2010-01-01T00:09:39Z</time>
      </trkpt>
      <trkpt lat="31.66888840" lon="34.92497340">
        <ele>328.00000</ele>
        <time>2010-01-01T00:09:43Z</time>
      </trkpt>
      <trkpt lat="31.66887510" lon="34.92486800">
        <ele>328.00000</ele>
        <time>2010-01-01T00:09:46Z</time>
      </trkpt>
      <trkpt lat="31.66885790" lon="34.92472360">
        <ele>327.00000</ele>
        <time>2010-01-01T00:09:51Z</time>
      </trkpt>
      <trkpt lat="31.66883470" lon="34.92458350">
        <ele>329.00000</ele>
        <time>2010-01-01T00:09:56Z</time>
      </trkpt>
      <trkpt lat="31.66882030" lon="34.92443960">
        <ele>330.00000</ele>
        <time>2010-01-01T00:10:01Z</time>
      </trkpt>
      <trkpt lat="31.66880450" lon="34.92429960">
        <ele>331.00000</ele>
        <time>2010-01-01T00:10:06Z</time>
      </trkpt>
      <trkpt lat="31.66878530" lon="34.92416690">
        <ele>332.00000</ele>
        <time>2010-01-01T00:10:10Z</time>
      </trkpt>
      <trkpt lat="31.66877170" lon="34.92403310">
        <ele>333.00000</ele>
        <time>2010-01-01T00:10:15Z</time>
      </trkpt>
      <trkpt lat="31.66875130" lon="34.92391680">
        <ele>334.00000</ele>
        <time>2010-01-01T00:10:19Z</time>
      </trkpt>
      <trkpt lat="31.66873400" lon="34.92381030">
        <ele>334.00000</ele>
        <time>2010-01-01T00:10:23Z</time>
      </trkpt>
      <trkpt lat="31.66871520" lon="34.92368080">
        <ele>334.00000</ele>
        <time>2010-01-01T00:10:27Z</time>
      </trkpt>
      <trkpt lat="31.66869580" lon="34.92355210">
        <ele>335.00000</ele>
        <time>2010-01-01T00:10:32Z</time>
      </trkpt>
      <trkpt lat="31.66868400" lon="34.92342190">
        <ele>335.00000</ele>
        <time>2010-01-01T00:10:36Z</time>
      </trkpt>
      <trkpt lat="31.66867040" lon="34.92330940">
        <ele>335.00000</ele>
        <time>2010-01-01T00:10:40Z</time>
      </trkpt>
      <trkpt lat="31.66866250" lon="34.92319840">
        <ele>336.00000</ele>
        <time>2010-01-01T00:10:44Z</time>
      </trkpt>
      <trkpt lat="31.66865750" lon="34.92306870">
        <ele>336.00000</ele>
        <time>2010-01-01T00:10:48Z</time>
      </trkpt>
      <trkpt lat="31.66865270" lon="34.92294210">
        <ele>338.00000</ele>
        <time>2010-01-01T00:10:53Z</time>
      </trkpt>
      <trkpt lat="31.66865310" lon="34.92283560">
        <ele>339.00000</ele>
        <time>2010-01-01T00:10:56Z</time>
      </trkpt>
      <trkpt lat="31.66865440" lon="34.92271860">
        <ele>340.00000</ele>
        <time>2010-01-01T00:11:00Z</time>
      </trkpt>
      <trkpt lat="31.66865240" lon="34.92260260">
        <ele>341.00000</ele>
        <time>2010-01-01T00:11:04Z</time>
      </trkpt>
      <trkpt lat="31.66865000" lon="34.92248290">
        <ele>342.00000</ele>
        <time>2010-01-01T00:11:08Z</time>
      </trkpt>
      <trkpt lat="31.66865310" lon="34.92236480">
        <ele>342.00000</ele>
        <time>2010-01-01T00:11:12Z</time>
      </trkpt>
      <trkpt lat="31.66864840" lon="34.92224590">
        <ele>343.00000</ele>
        <time>2010-01-01T00:11:16Z</time>
      </trkpt>
      <trkpt lat="31.66864710" lon="34.92211370">
        <ele>343.00000</ele>
        <time>2010-01-01T00:11:21Z</time>
      </trkpt>
      <trkpt lat="31.66864210" lon="34.92198910">
        <ele>343.00000</ele>
        <time>2010-01-01T00:11:25Z</time>
      </trkpt>
      <trkpt lat="31.66863120" lon="34.92186440">
        <ele>343.00000</ele>
        <time>2010-01-01T00:11:29Z</time>
      </trkpt>
      <trkpt lat="31.66860470" lon="34.92173720">
        <ele>343.00000</ele>
        <time>2010-01-01T00:11:34Z</time>
      </trkpt>
      <trkpt lat="31.66857020" lon="34.92161110">
        <ele>342.00000</ele>
        <time>2010-01-01T00:11:38Z</time>
      </trkpt>
      <trkpt lat="31.66853020" lon="34.92151960">
        <ele>342.00000</ele>
        <time>2010-01-01T00:11:42Z</time>
      </trkpt>
      <trkpt lat="31.66846440" lon="34.92140170">
        <ele>343.00000</ele>
        <time>2010-01-01T00:11:47Z</time>
      </trkpt>
      <trkpt lat="31.66839150" lon="34.92129330">
        <ele>344.00000</ele>
        <time>2010-01-01T00:11:51Z</time>
      </trkpt>
      <trkpt lat="31.66832100" lon="34.92119720">
        <ele>345.00000</ele>
        <time>2010-01-01T00:11:56Z</time>
      </trkpt>
      <trkpt lat="31.66825230" lon="34.92111540">
        <ele>344.00000</ele>
        <time>2010-01-01T00:12:00Z</time>
      </trkpt>
      <trkpt lat="31.66817480" lon="34.92104270">
        <ele>344.00000</ele>
        <time>2010-01-01T00:12:03Z</time>
      </trkpt>
      <trkpt lat="31.66809410" lon="34.92097740">
        <ele>344.00000</ele>
        <time>2010-01-01T00:12:07Z</time>
      </trkpt>
      <trkpt lat="31.66799010" lon="34.92099580">
        <ele>345.00000</ele>
        <time>2010-01-01T00:12:12Z</time>
      </trkpt>
      <trkpt lat="31.66791290" lon="34.92105330">
        <ele>345.00000</ele>
        <time>2010-01-01T00:12:15Z</time>
      </trkpt>
      <trkpt lat="31.66785410" lon="34.92116030">
        <ele>347.00000</ele>
        <time>2010-01-01T00:12:20Z</time>
      </trkpt>
      <trkpt lat="31.66780390" lon="34.92125330">
        <ele>348.00000</ele>
        <time>2010-01-01T00:12:23Z</time>
      </trkpt>
      <trkpt lat="31.66775390" lon="34.92135390">
        <ele>349.00000</ele>
        <time>2010-01-01T00:12:27Z</time>
      </trkpt>
      <trkpt lat="31.66770580" lon="34.92145050">
        <ele>350.00000</ele>
        <time>2010-01-01T00:12:31Z</time>
      </trkpt>
      <trkpt lat="31.66765890" lon="34.92154740">
        <ele>351.00000</ele>
        <time>2010-01-01T00:12:35Z</time>
      </trkpt>
      <trkpt lat="31.66760630" lon="34.92163930">
        <ele>353.00000</ele>
        <time>2010-01-01T00:12:39Z</time>
      </trkpt>
      <trkpt lat="31.66755420" lon="34.92172350">
        <ele>354.00000</ele>
        <time>2010-01-01T00:12:42Z</time>
      </trkpt>
      <trkpt lat="31.66748950" lon="34.92180090">
        <ele>355.00000</ele>
        <time>2010-01-01T00:12:46Z</time>
      </trkpt>
      <trkpt lat="31.66741990" lon="34.92187850">
        <ele>356.00000</ele>
        <time>2010-01-01T00:12:50Z</time>
      </trkpt>
      <trkpt lat="31.66733740" lon="34.92194990">
        <ele>358.00000</ele>
        <time>2010-01-01T00:12:54Z</time>
      </trkpt>
      <trkpt lat="31.66724240" lon="34.92199520">
        <ele>359.00000</ele>
        <time>2010-01-01T00:12:58Z</time>
      </trkpt>
      <trkpt lat="31.66714780" lon="34.92201720">
        <ele>359.00000</ele>
        <time>2010-01-01T00:13:02Z</time>
      </trkpt>
      <trkpt lat="31.66704590" lon="34.92202570">
        <ele>360.00000</ele>
        <time>2010-01-01T00:13:06Z</time>
      </trkpt>
      <trkpt lat="31.66694790" lon="34.92202030">
        <ele>361.00000</ele>
        <time>2010-01-01T00:13:10Z</time>
      </trkpt>
      <trkpt lat="31.66685410" lon="34.92198710">
        <ele>361.00000</ele>
        <time>2010-01-01T00:13:14Z</time>
      </trkpt>
      <trkpt lat="31.66676640" lon="34.92195170">
        <ele>361.00000</ele>
        <time>2010-01-01T00:13:18Z</time>
      </trkpt>
      <trkpt lat="31.66667830" lon="34.92197750">
        <ele>362.00000</ele>
        <time>2010-01-01T00:13:21Z</time>
      </trkpt>
      <trkpt lat="31.66668490" lon="34.92209800">
        <ele>364.00000</ele>
        <time>2010-01-01T00:13:25Z</time>
      </trkpt>
      <trkpt lat="31.66674490" lon="34.92220580">
        <ele>365.00000</ele>
        <time>2010-01-01T00:13:30Z</time>
      </trkpt>
      <trkpt lat="31.66683690" lon="34.92227660">
        <ele>365.00000</ele>
        <time>2010-01-01T00:13:34Z</time>
      </trkpt>
      <trkpt lat="31.66692480" lon="34.92232120">
        <ele>365.00000</ele>
        <time>2010-01-01T00:13:38Z</time>
      </trkpt>
      <trkpt lat="31.66702630" lon="34.92236840">
        <ele>365.00000</ele>
        <time>2010-01-01T00:13:42Z</time>
      </trkpt>
      <trkpt lat="31.66711500" lon="34.92240340">
        <ele>366.00000</ele>
        <time>2010-01-01T00:13:46Z</time>
      </trkpt>
      <trkpt lat="31.66720670" lon="34.92242510">
        <ele>366.00000</ele>
        <time>2010-01-01T00:13:50Z</time>
      </trkpt>
      <trkpt lat="31.66731390" lon="34.92245330">
        <ele>367.00000</ele>
        <time>2010-01-01T00:13:54Z</time>
      </trkpt>
      <trkpt lat="31.66741210" lon="34.92247330">
        <ele>368.00000</ele>
        <time>2010-01-01T00:13:58Z</time>
      </trkpt>
      <trkpt lat="31.66749260" lon="34.92242190">
        <ele>367.00000</ele>
        <time>2010-01-01T00:14:02Z</time>
      </trkpt>
      <trkpt lat="31.66759140" lon="34.92237410">
        <ele>366.00000</ele>
        <time>2010-01-01T00:14:06Z</time>
      </trkpt>
      <trkpt lat="31.66768690" lon="34.92238810">
        <ele>366.00000</ele>
        <time>2010-01-01T00:14:10Z</time>
      </trkpt>
      <trkpt lat="31.66773780" lon="34.92246970">
        <ele>366.00000</ele>
        <time>2010-01-01T00:14:13Z</time>
      </trkpt>
      <trkpt lat="31.66773240" lon="34.92257540">
        <ele>367.00000</ele>
        <time>2010-01-01T00:14:17Z</time>
      </trkpt>
      <trkpt lat="31.66768600" lon="34.92268310">
        <ele>367.00000</ele>
        <time>2010-01-01T00:14:21Z</time>
      </trkpt>
      <trkpt lat="31.66759820" lon="34.92275540">
        <ele>368.00000</ele>
        <time>2010-01-01T00:14:25Z</time>
      </trkpt>
      <trkpt lat="31.66750800" lon="34.92281410">
        <ele>368.00000</ele>
        <time>2010-01-01T00:14:30Z</time>
      </trkpt>
      <trkpt lat="31.66740420" lon="34.92285980">
        <ele>369.00000</ele>
        <time>2010-01-01T00:14:34Z</time>
      </trkpt>
      <trkpt lat="31.66729610" lon="34.92288350">
        <ele>369.00000</ele>
        <time>2010-01-01T00:14:38Z</time>
      </trkpt>
      <trkpt lat="31.66718250" lon="34.92289520">
        <ele>369.00000</ele>
        <time>2010-01-01T00:14:43Z</time>
      </trkpt>
      <trkpt lat="31.66707600" lon="34.92286380">
        <ele>369.00000</ele>
        <time>2010-01-01T00:14:47Z</time>
      </trkpt>
      <trkpt lat="31.66700910" lon="34.92278540">
        <ele>369.00000</ele>
        <time>2010-01-01T00:14:51Z</time>
      </trkpt>
      <trkpt lat="31.66701170" lon="34.92267630">
        <ele>368.00000</ele>
        <time>2010-01-01T00:14:55Z</time>
      </trkpt>
      <trkpt lat="31.66709580" lon="34.92262900">
        <ele>368.00000</ele>
        <time>2010-01-01T00:14:59Z</time>
      </trkpt>
      <trkpt lat="31.66721230" lon="34.92261450">
        <ele>368.00000</ele>
        <time>2010-01-01T00:15:03Z</time>
      </trkpt>
      <trkpt lat="31.66731290" lon="34.92260780">
        <ele>368.00000</ele>
        <time>2010-01-01T00:15:07Z</time>
      </trkpt>
      <trkpt lat="31.66740460" lon="34.92257830">
        <ele>368.00000</ele>
        <time>2010-01-01T00:15:11Z</time>
      </trkpt>
      <trkpt lat="31.66749830" lon="34.92256170">
        <ele>368.00000</ele>
        <time>2010-01-01T00:15:15Z</time>
      </trkpt>
      <trkpt lat="31.66754210" lon="34.92248590">
        <ele>368.00000</ele>
        <time>2010-01-01T00:15:18Z</time>
      </trkpt>
      <trkpt lat="31.66747270" lon="34.92240610">
        <ele>367.00000</ele>
        <time>2010-01-01T00:15:22Z</time>
      </trkpt>
      <trkpt lat="31.66738590" lon="34.92240180">
        <ele>366.00000</ele>
        <time>2010-01-01T00:15:25Z</time>
      </trkpt>
      <trkpt lat="31.66727380" lon="34.92241240">
        <ele>366.00000</ele>
        <time>2010-01-01T00:15:30Z</time>
      </trkpt>
      <trkpt lat="31.66715430" lon="34.92238200">
        <ele>366.00000</ele>
        <time>2010-01-01T00:15:35Z</time>
      </trkpt>
      <trkpt lat="31.66702930" lon="34.92233630">
        <ele>365.00000</ele>
        <time>2010-01-01T00:15:40Z</time>
      </trkpt>
      <trkpt lat="31.66693100" lon="34.92229180">
        <ele>364.00000</ele>
        <time>2010-01-01T00:15:44Z</time>
      </trkpt>
      <trkpt lat="31.66682230" lon="34.92223840">
        <ele>365.00000</ele>
        <time>2010-01-01T00:15:49Z</time>
      </trkpt>
      <trkpt lat="31.66672540" lon="34.92215970">
        <ele>364.00000</ele>
        <time>2010-01-01T00:15:54Z</time>
      </trkpt>
      <trkpt lat="31.66667570" lon="34.92205610">
        <ele>363.00000</ele>
        <time>2010-01-01T00:15:58Z</time>
      </trkpt>
      <trkpt lat="31.66670640" lon="34.92194680">
        <ele>361.00000</ele>
        <time>2010-01-01T00:16:02Z</time>
      </trkpt>
      <trkpt lat="31.66683380" lon="34.92197420">
        <ele>361.00000</ele>
        <time>2010-01-01T00:16:07Z</time>
      </trkpt>
      <trkpt lat="31.66695280" lon="34.92202110">
        <ele>361.00000</ele>
        <time>2010-01-01T00:16:12Z</time>
      </trkpt>
      <trkpt lat="31.66709620" lon="34.92203360">
        <ele>360.00000</ele>
        <time>2010-01-01T00:16:18Z</time>
      </trkpt>
      <trkpt lat="31.66725110" lon="34.92200200">
        <ele>359.00000</ele>
        <time>2010-01-01T00:16:24Z</time>
      </trkpt>
      <trkpt lat="31.66737570" lon="34.92193130">
        <ele>357.00000</ele>
        <time>2010-01-01T00:16:29Z</time>
      </trkpt>
      <trkpt lat="31.66748550" lon="34.92183090">
        <ele>355.00000</ele>
        <time>2010-01-01T00:16:35Z</time>
      </trkpt>
      <trkpt lat="31.66756700" lon="34.92172450">
        <ele>354.00000</ele>
        <time>2010-01-01T00:16:40Z</time>
      </trkpt>
      <trkpt lat="31.66762260" lon="34.92163890">
        <ele>353.00000</ele>
        <time>2010-01-01T00:16:44Z</time>
      </trkpt>
      <trkpt lat="31.66768460" lon="34.92154460">
        <ele>352.00000</ele>
        <time>2010-01-01T00:16:48Z</time>
      </trkpt>
      <trkpt lat="31.66773910" lon="34.92144790">
        <ele>350.00000</ele>
        <time>2010-01-01T00:16:52Z</time>
      </trkpt>
      <trkpt lat="31.66780340" lon="34.92132630">
        <ele>349.00000</ele>
        <time>2010-01-01T00:16:56Z</time>
      </trkpt>
      <trkpt lat="31.66786270" lon="34.92119540">
        <ele>347.00000</ele>
        <time>2010-01-01T00:17:01Z</time>
      </trkpt>
      <trkpt lat="31.66787760" lon="34.92107700">
        <ele>345.00000</ele>
        <time>2010-01-01T00:17:06Z</time>
      </trkpt>
      <trkpt lat="31.66778240" lon="34.92107030">
        <ele>345.00000</ele>
        <time>2010-01-01T00:17:09Z</time>
      </trkpt>
      <trkpt lat="31.66773260" lon="34.92118630">
        <ele>346.00000</ele>
        <time>2010-01-01T00:17:14Z</time>
      </trkpt>
      <trkpt lat="31.66767900" lon="34.92130250">
        <ele>347.00000</ele>
        <time>2010-01-01T00:17:18Z</time>
      </trkpt>
      <trkpt lat="31.66762510" lon="34.92141600">
        <ele>349.00000</ele>
        <time>2010-01-01T00:17:23Z</time>
      </trkpt>
      <trkpt lat="31.66757550" lon="34.92151730">
        <ele>350.00000</ele>
        <time>2010-01-01T00:17:27Z</time>
      </trkpt>
      <trkpt lat="31.66751680" lon="34.92160210">
        <ele>351.00000</ele>
        <time>2010-01-01T00:17:30Z</time>
      </trkpt>
      <trkpt lat="31.66744700" lon="34.92167550">
        <ele>352.00000</ele>
        <time>2010-01-01T00:17:34Z</time>
      </trkpt>
      <trkpt lat="31.66735270" lon="34.92175050">
        <ele>353.00000</ele>
        <time>2010-01-01T00:17:39Z</time>
      </trkpt>
      <trkpt lat="31.66726550" lon="34.92178980">
        <ele>354.00000</ele>
        <time>2010-01-01T00:17:42Z</time>
      </trkpt>
      <trkpt lat="31.66716190" lon="34.92180860">
        <ele>354.00000</ele>
        <time>2010-01-01T00:17:47Z</time>
      </trkpt>
      <trkpt lat="31.66703790" lon="34.92179580">
        <ele>355.00000</ele>
        <time>2010-01-01T00:17:52Z</time>
      </trkpt>
      <trkpt lat="31.66693460" lon="34.92175480">
        <ele>354.00000</ele>
        <time>2010-01-01T00:17:56Z</time>
      </trkpt>
      <trkpt lat="31.66682180" lon="34.92167810">
        <ele>354.00000</ele>
        <time>2010-01-01T00:18:01Z</time>
      </trkpt>
      <trkpt lat="31.66673980" lon="34.92160700">
        <ele>353.00000</ele>
        <time>2010-01-01T00:18:05Z</time>
      </trkpt>
      <trkpt lat="31.66665440" lon="34.92152210">
        <ele>352.00000</ele>
        <time>2010-01-01T00:18:10Z</time>
      </trkpt>
      <trkpt lat="31.66656490" lon="34.92143050">
        <ele>352.00000</ele>
        <time>2010-01-01T00:18:15Z</time>
      </trkpt>
      <trkpt lat="31.66646730" lon="34.92134180">
        <ele>352.00000</ele>
        <time>2010-01-01T00:18:19Z</time>
      </trkpt>
      <trkpt lat="31.66635760" lon="34.92126190">
        <ele>352.00000</ele>
        <time>2010-01-01T00:18:25Z</time>
      </trkpt>
      <trkpt lat="31.66623950" lon="34.92119030">
        <ele>352.00000</ele>
        <time>2010-01-01T00:18:30Z</time>
      </trkpt>
      <trkpt lat="31.66611200" lon="34.92113610">
        <ele>352.00000</ele>
        <time>2010-01-01T00:18:35Z</time>
      </trkpt>
      <trkpt lat="31.66598100" lon="34.92109950">
        <ele>351.00000</ele>
        <time>2010-01-01T00:18:41Z</time>
      </trkpt>
      <trkpt lat="31.66585170" lon="34.92107440">
        <ele>349.00000</ele>
        <time>2010-01-01T00:18:46Z</time>
      </trkpt>
      <trkpt lat="31.66571790" lon="34.92104540">
        <ele>349.00000</ele>
        <time>2010-01-01T00:18:51Z</time>
      </trkpt>
      <trkpt lat="31.66558110" lon="34.92100970">
        <ele>348.00000</ele>
        <time>2010-01-01T00:18:57Z</time>
      </trkpt>
      <trkpt lat="31.66544430" lon="34.92097310">
        <ele>348.00000</ele>
        <time>2010-01-01T00:19:03Z</time>
      </trkpt>
      <trkpt lat="31.66530470" lon="34.92093680">
        <ele>347.00000</ele>
        <time>2010-01-01T00:19:08Z</time>
      </trkpt>
      <trkpt lat="31.66516320" lon="34.92090140">
        <ele>345.00000</ele>
        <time>2010-01-01T00:19:14Z</time>
      </trkpt>
      <trkpt lat="31.66502040" lon="34.92087040">
        <ele>344.00000</ele>
        <time>2010-01-01T00:19:20Z</time>
      </trkpt>
      <trkpt lat="31.66488090" lon="34.92085610">
        <ele>343.00000</ele>
        <time>2010-01-01T00:19:26Z</time>
      </trkpt>
      <trkpt lat="31.66476290" lon="34.92086960">
        <ele>343.00000</ele>
        <time>2010-01-01T00:19:30Z</time>
      </trkpt>
      <trkpt lat="31.66466680" lon="34.92093750">
        <ele>343.00000</ele>
        <time>2010-01-01T00:19:35Z</time>
      </trkpt>
      <trkpt lat="31.66462280" lon="34.92104170">
        <ele>343.00000</ele>
        <time>2010-01-01T00:19:39Z</time>
      </trkpt>
      <trkpt lat="31.66463250" lon="34.92115060">
        <ele>344.00000</ele>
        <time>2010-01-01T00:19:43Z</time>
      </trkpt>
      <trkpt lat="31.66466280" lon="34.92126610">
        <ele>345.00000</ele>
        <time>2010-01-01T00:19:47Z</time>
      </trkpt>
      <trkpt lat="31.66470000" lon="34.92138520">
        <ele>347.00000</ele>
        <time>2010-01-01T00:19:51Z</time>
      </trkpt>
      <trkpt lat="31.66473990" lon="34.92150200">
        <ele>347.00000</ele>
        <time>2010-01-01T00:19:55Z</time>
      </trkpt>
      <trkpt lat="31.66477960" lon="34.92161450">
        <ele>348.00000</ele>
        <time>2010-01-01T00:19:59Z</time>
      </trkpt>
      <trkpt lat="31.66482330" lon="34.92172050">
        <ele>349.00000</ele>
        <time>2010-01-01T00:20:03Z</time>
      </trkpt>
      <trkpt lat="31.66486420" lon="34.92182180">
        <ele>350.00000</ele>
        <time>2010-01-01T00:20:07Z</time>
      </trkpt>
      <trkpt lat="31.66489440" lon="34.92197030">
        <ele>350.00000</ele>
        <time>2010-01-01T00:20:12Z</time>
      </trkpt>
      <trkpt lat="31.66485850" lon="34.92210270">
        <ele>351.00000</ele>
        <time>2010-01-01T00:20:17Z</time>
      </trkpt>
      <trkpt lat="31.66476680" lon="34.92217850">
        <ele>350.00000</ele>
        <time>2010-01-01T00:20:22Z</time>
      </trkpt>
      <trkpt lat="31.66464610" lon="34.92218720">
        <ele>349.00000</ele>
        <time>2010-01-01T00:20:27Z</time>
      </trkpt>
      <trkpt lat="31.66454630" lon="34.92217730">
        <ele>348.00000</ele>
        <time>2010-01-01T00:20:31Z</time>
      </trkpt>
      <trkpt lat="31.66443220" lon="34.92216560">
        <ele>346.00000</ele>
        <time>2010-01-01T00:20:35Z</time>
      </trkpt>
      <trkpt lat="31.66430620" lon="34.92215370">
        <ele>345.00000</ele>
        <time>2010-01-01T00:20:40Z</time>
      </trkpt>
      <trkpt lat="31.66416930" lon="34.92214780">
        <ele>344.00000</ele>
        <time>2010-01-01T00:20:46Z</time>
      </trkpt>
      <trkpt lat="31.66402290" lon="34.92214330">
        <ele>344.00000</ele>
        <time>2010-01-01T00:20:52Z</time>
      </trkpt>
      <trkpt lat="31.66387950" lon="34.92211150">
        <ele>342.00000</ele>
        <time>2010-01-01T00:20:57Z</time>
      </trkpt>
      <trkpt lat="31.66374370" lon="34.92203020">
        <ele>340.00000</ele>
        <time>2010-01-01T00:21:03Z</time>
      </trkpt>
      <trkpt lat="31.66361150" lon="34.92195820">
        <ele>339.00000</ele>
        <time>2010-01-01T00:21:09Z</time>
      </trkpt>
      <trkpt lat="31.66346850" lon="34.92193320">
        <ele>339.00000</ele>
        <time>2010-01-01T00:21:15Z</time>
      </trkpt>
      <trkpt lat="31.66332000" lon="34.92195920">
        <ele>341.00000</ele>
        <time>2010-01-01T00:21:21Z</time>
      </trkpt>
      <trkpt lat="31.66318530" lon="34.92200770">
        <ele>340.00000</ele>
        <time>2010-01-01T00:21:27Z</time>
      </trkpt>
      <trkpt lat="31.66305880" lon="34.92203930">
        <ele>340.00000</ele>
        <time>2010-01-01T00:21:32Z</time>
      </trkpt>
      <trkpt lat="31.66295860" lon="34.92200580">
        <ele>339.00000</ele>
        <time>2010-01-01T00:21:36Z</time>
      </trkpt>
      <trkpt lat="31.66287690" lon="34.92191010">
        <ele>338.00000</ele>
        <time>2010-01-01T00:21:41Z</time>
      </trkpt>
      <trkpt lat="31.66283080" lon="34.92177860">
        <ele>336.00000</ele>
        <time>2010-01-01T00:21:46Z</time>
      </trkpt>
      <trkpt lat="31.66279940" lon="34.92162500">
        <ele>335.00000</ele>
        <time>2010-01-01T00:21:51Z</time>
      </trkpt>
      <trkpt lat="31.66275990" lon="34.92145880">
        <ele>334.00000</ele>
        <time>2010-01-01T00:21:57Z</time>
      </trkpt>
      <trkpt lat="31.66270190" lon="34.92128580">
        <ele>334.00000</ele>
        <time>2010-01-01T00:22:03Z</time>
      </trkpt>
      <trkpt lat="31.66262740" lon="34.92112110">
        <ele>334.00000</ele>
        <time>2010-01-01T00:22:10Z</time>
      </trkpt>
      <trkpt lat="31.66256160" lon="34.92098270">
        <ele>335.00000</ele>
        <time>2010-01-01T00:22:15Z</time>
      </trkpt>
      <trkpt lat="31.66251100" lon="34.92087350">
        <ele>336.00000</ele>
        <time>2010-01-01T00:22:19Z</time>
      </trkpt>
      <trkpt lat="31.66246060" lon="34.92076250">
        <ele>337.00000</ele>
        <time>2010-01-01T00:22:23Z</time>
      </trkpt>
      <trkpt lat="31.66241880" lon="34.92064860">
        <ele>338.00000</ele>
        <time>2010-01-01T00:22:28Z</time>
      </trkpt>
      <trkpt lat="31.66237270" lon="34.92055210">
        <ele>339.00000</ele>
        <time>2010-01-01T00:22:31Z</time>
      </trkpt>
      <trkpt lat="31.66233570" lon="34.92044530">
        <ele>339.00000</ele>
        <time>2010-01-01T00:22:35Z</time>
      </trkpt>
      <trkpt lat="31.66229690" lon="34.92030850">
        <ele>339.00000</ele>
        <time>2010-01-01T00:22:40Z</time>
      </trkpt>
      <trkpt lat="31.66225510" lon="34.92019180">
        <ele>340.00000</ele>
        <time>2010-01-01T00:22:45Z</time>
      </trkpt>
      <trkpt lat="31.66221360" lon="34.92009640">
        <ele>340.00000</ele>
        <time>2010-01-01T00:22:48Z</time>
      </trkpt>
      <trkpt lat="31.66215740" lon="34.92000330">
        <ele>341.00000</ele>
        <time>2010-01-01T00:22:52Z</time>
      </trkpt>
      <trkpt lat="31.66210180" lon="34.91991670">
        <ele>341.00000</ele>
        <time>2010-01-01T00:22:56Z</time>
      </trkpt>
      <trkpt lat="31.66204780" lon="34.91982230">
        <ele>340.00000</ele>
        <time>2010-01-01T00:23:00Z</time>
      </trkpt>
      <trkpt lat="31.66198880" lon="34.91971310">
        <ele>340.00000</ele>
        <time>2010-01-01T00:23:04Z</time>
      </trkpt>
      <trkpt lat="31.66191910" lon="34.91964330">
        <ele>340.00000</ele>
        <time>2010-01-01T00:23:08Z</time>
      </trkpt>
      <trkpt lat="31.66183450" lon="34.91961570">
        <ele>341.00000</ele>
        <time>2010-01-01T00:23:11Z</time>
      </trkpt>
      <trkpt lat="31.66174250" lon="34.91957890">
        <ele>342.00000</ele>
        <time>2010-01-01T00:23:15Z</time>
      </trkpt>
      <trkpt lat="31.66165670" lon="34.91954160">
        <ele>342.00000</ele>
        <time>2010-01-01T00:23:19Z</time>
      </trkpt>
      <trkpt lat="31.66155790" lon="34.91951120">
        <ele>341.00000</ele>
        <time>2010-01-01T00:23:23Z</time>
      </trkpt>
      <trkpt lat="31.66145800" lon="34.91952460">
        <ele>341.00000</ele>
        <time>2010-01-01T00:23:27Z</time>
      </trkpt>
      <trkpt lat="31.66142520" lon="34.91961710">
        <ele>343.00000</ele>
        <time>2010-01-01T00:23:30Z</time>
      </trkpt>
      <trkpt lat="31.66146020" lon="34.91971780">
        <ele>345.00000</ele>
        <time>2010-01-01T00:23:34Z</time>
      </trkpt>
      <trkpt lat="31.66148390" lon="34.91980550">
        <ele>347.00000</ele>
        <time>2010-01-01T00:23:37Z</time>
      </trkpt>
      <trkpt lat="31.66149290" lon="34.91990940">
        <ele>349.00000</ele>
        <time>2010-01-01T00:23:41Z</time>
      </trkpt>
      <trkpt lat="31.66149920" lon="34.92002060">
        <ele>351.00000</ele>
        <time>2010-01-01T00:23:45Z</time>
      </trkpt>
      <trkpt lat="31.66151210" lon="34.92012880">
        <ele>352.00000</ele>
        <time>2010-01-01T00:23:48Z</time>
      </trkpt>
      <trkpt lat="31.66152240" lon="34.92024150">
        <ele>354.00000</ele>
        <time>2010-01-01T00:23:52Z</time>
      </trkpt>
      <trkpt lat="31.66152530" lon="34.92035200">
        <ele>355.00000</ele>
        <time>2010-01-01T00:23:56Z</time>
      </trkpt>
      <trkpt lat="31.66153180" lon="34.92047110">
        <ele>356.00000</ele>
        <time>2010-01-01T00:24:00Z</time>
      </trkpt>
      <trkpt lat="31.66153730" lon="34.92058330">
        <ele>357.00000</ele>
        <time>2010-01-01T00:24:04Z</time>
      </trkpt>
      <trkpt lat="31.66153680" lon="34.92070220">
        <ele>359.00000</ele>
        <time>2010-01-01T00:24:08Z</time>
      </trkpt>
      <trkpt lat="31.66150700" lon="34.92080030">
        <ele>360.00000</ele>
        <time>2010-01-01T00:24:11Z</time>
      </trkpt>
      <trkpt lat="31.66147650" lon="34.92090750">
        <ele>361.00000</ele>
        <time>2010-01-01T00:24:15Z</time>
      </trkpt>
      <trkpt lat="31.66141570" lon="34.92099470">
        <ele>363.00000</ele>
        <time>2010-01-01T00:24:19Z</time>
      </trkpt>
      <trkpt lat="31.66135330" lon="34.92106690">
        <ele>364.00000</ele>
        <time>2010-01-01T00:24:23Z</time>
      </trkpt>
      <trkpt lat="31.66126760" lon="34.92112060">
        <ele>366.00000</ele>
        <time>2010-01-01T00:24:27Z</time>
      </trkpt>
      <trkpt lat="31.66117870" lon="34.92116990">
        <ele>367.00000</ele>
        <time>2010-01-01T00:24:30Z</time>
      </trkpt>
      <trkpt lat="31.66108530" lon="34.92118060">
        <ele>368.00000</ele>
        <time>2010-01-01T00:24:34Z</time>
      </trkpt>
      <trkpt lat="31.66098360" lon="34.92118660">
        <ele>369.00000</ele>
        <time>2010-01-01T00:24:38Z</time>
      </trkpt>
      <trkpt lat="31.66088670" lon="34.92118670">
        <ele>370.00000</ele>
        <time>2010-01-01T00:24:42Z</time>
      </trkpt>
      <trkpt lat="31.66078660" lon="34.92118810">
        <ele>371.00000</ele>
        <time>2010-01-01T00:24:46Z</time>
      </trkpt>
      <trkpt lat="31.66069520" lon="34.92119150">
        <ele>372.00000</ele>
        <time>2010-01-01T00:24:50Z</time>
      </trkpt>
      <trkpt lat="31.66059220" lon="34.92119590">
        <ele>373.00000</ele>
        <time>2010-01-01T00:24:54Z</time>
      </trkpt>
      <trkpt lat="31.66049430" lon="34.92120160">
        <ele>374.00000</ele>
        <time>2010-01-01T00:24:58Z</time>
      </trkpt>
      <trkpt lat="31.66039790" lon="34.92121840">
        <ele>375.00000</ele>
        <time>2010-01-01T00:25:02Z</time>
      </trkpt>
      <trkpt lat="31.66030000" lon="34.92123390">
        <ele>377.00000</ele>
        <time>2010-01-01T00:25:06Z</time>
      </trkpt>
      <trkpt lat="31.66020870" lon="34.92123510">
        <ele>377.00000</ele>
        <time>2010-01-01T00:25:09Z</time>
      </trkpt>
      <trkpt lat="31.66011160" lon="34.92122000">
        <ele>377.00000</ele>
        <time>2010-01-01T00:25:13Z</time>
      </trkpt>
      <trkpt lat="31.65999650" lon="34.92117850">
        <ele>377.00000</ele>
        <time>2010-01-01T00:25:18Z</time>
      </trkpt>
      <trkpt lat="31.65989540" lon="34.92112990">
        <ele>377.00000</ele>
        <time>2010-01-01T00:25:22Z</time>
      </trkpt>
      <trkpt lat="31.65978220" lon="34.92107700">
        <ele>376.00000</ele>
        <time>2010-01-01T00:25:27Z</time>
      </trkpt>
      <trkpt lat="31.65966940" lon="34.92103740">
        <ele>376.00000</ele>
        <time>2010-01-01T00:25:32Z</time>
      </trkpt>
      <trkpt lat="31.65956680" lon="34.92101010">
        <ele>376.00000</ele>
        <time>2010-01-01T00:25:36Z</time>
      </trkpt>
      <trkpt lat="31.65947820" lon="34.92097840">
        <ele>376.00000</ele>
        <time>2010-01-01T00:25:40Z</time>
      </trkpt>
      <trkpt lat="31.65936560" lon="34.92094790">
        <ele>376.00000</ele>
        <time>2010-01-01T00:25:45Z</time>
      </trkpt>
      <trkpt lat="31.65926810" lon="34.92094490">
        <ele>377.00000</ele>
        <time>2010-01-01T00:25:49Z</time>
      </trkpt>
      <trkpt lat="31.65916350" lon="34.92096770">
        <ele>378.00000</ele>
        <time>2010-01-01T00:25:53Z</time>
      </trkpt>
      <trkpt lat="31.65908320" lon="34.92101680">
        <ele>378.00000</ele>
        <time>2010-01-01T00:25:56Z</time>
      </trkpt>
      <trkpt lat="31.65900570" lon="34.92110500">
        <ele>379.00000</ele>
        <time>2010-01-01T00:26:01Z</time>
      </trkpt>
      <trkpt lat="31.65894260" lon="34.92121400">
        <ele>380.00000</ele>
        <time>2010-01-01T00:26:05Z</time>
      </trkpt>
      <trkpt lat="31.65888280" lon="34.92132010">
        <ele>381.00000</ele>
        <time>2010-01-01T00:26:10Z</time>
      </trkpt>
      <trkpt lat="31.65883650" lon="34.92143600">
        <ele>381.00000</ele>
        <time>2010-01-01T00:26:14Z</time>
      </trkpt>
      <trkpt lat="31.65879420" lon="34.92154220">
        <ele>381.00000</ele>
        <time>2010-01-01T00:26:18Z</time>
      </trkpt>
      <trkpt lat="31.65874320" lon="34.92166580">
        <ele>381.00000</ele>
        <time>2010-01-01T00:26:23Z</time>
      </trkpt>
      <trkpt lat="31.65866750" lon="34.92179530">
        <ele>380.00000</ele>
        <time>2010-01-01T00:26:28Z</time>
      </trkpt>
      <trkpt lat="31.65858200" lon="34.92189270">
        <ele>379.00000</ele>
        <time>2010-01-01T00:26:33Z</time>
      </trkpt>
      <trkpt lat="31.65847460" lon="34.92197780">
        <ele>376.00000</ele>
        <time>2010-01-01T00:26:38Z</time>
      </trkpt>
      <trkpt lat="31.65835180" lon="34.92207590">
        <ele>373.00000</ele>
        <time>2010-01-01T00:26:44Z</time>
      </trkpt>
      <trkpt lat="31.65822490" lon="34.92219070">
        <ele>370.00000</ele>
        <time>2010-01-01T00:26:50Z</time>
      </trkpt>
      <trkpt lat="31.65811990" lon="34.92231620">
        <ele>369.00000</ele>
        <time>2010-01-01T00:26:56Z</time>
      </trkpt>
      <trkpt lat="31.65803610" lon="34.92242860">
        <ele>367.00000</ele>
        <time>2010-01-01T00:27:01Z</time>
      </trkpt>
      <trkpt lat="31.65795350" lon="34.92251760">
        <ele>366.00000</ele>
        <time>2010-01-01T00:27:06Z</time>
      </trkpt>
      <trkpt lat="31.65787370" lon="34.92260660">
        <ele>364.00000</ele>
        <time>2010-01-01T00:27:10Z</time>
      </trkpt>
      <trkpt lat="31.65777740" lon="34.92269570">
        <ele>362.00000</ele>
        <time>2010-01-01T00:27:15Z</time>
      </trkpt>
      <trkpt lat="31.65768560" lon="34.92275360">
        <ele>361.00000</ele>
        <time>2010-01-01T00:27:19Z</time>
      </trkpt>
      <trkpt lat="31.65756590" lon="34.92271540">
        <ele>359.00000</ele>
        <time>2010-01-01T00:27:24Z</time>
      </trkpt>
      <trkpt lat="31.65747870" lon="34.92267130">
        <ele>359.00000</ele>
        <time>2010-01-01T00:27:28Z</time>
      </trkpt>
      <trkpt lat="31.65737480" lon="34.92266000">
        <ele>358.00000</ele>
        <time>2010-01-01T00:27:32Z</time>
      </trkpt>
      <trkpt lat="31.65727320" lon="34.92266650">
        <ele>357.00000</ele>
        <time>2010-01-01T00:27:36Z</time>
      </trkpt>
      <trkpt lat="31.65717240" lon="34.92265800">
        <ele>357.00000</ele>
        <time>2010-01-01T00:27:40Z</time>
      </trkpt>
      <trkpt lat="31.65707220" lon="34.92263270">
        <ele>358.00000</ele>
        <time>2010-01-01T00:27:44Z</time>
      </trkpt>
      <trkpt lat="31.65698320" lon="34.92260750">
        <ele>358.00000</ele>
        <time>2010-01-01T00:27:48Z</time>
      </trkpt>
      <trkpt lat="31.65686660" lon="34.92256910">
        <ele>359.00000</ele>
        <time>2010-01-01T00:27:53Z</time>
      </trkpt>
      <trkpt lat="31.65675690" lon="34.92252430">
        <ele>361.00000</ele>
        <time>2010-01-01T00:27:58Z</time>
      </trkpt>
      <trkpt lat="31.65665640" lon="34.92246690">
        <ele>361.00000</ele>
        <time>2010-01-01T00:28:02Z</time>
      </trkpt>
      <trkpt lat="31.65656600" lon="34.92240260">
        <ele>362.00000</ele>
        <time>2010-01-01T00:28:06Z</time>
      </trkpt>
      <trkpt lat="31.65647200" lon="34.92232970">
        <ele>363.00000</ele>
        <time>2010-01-01T00:28:11Z</time>
      </trkpt>
      <trkpt lat="31.65638620" lon="34.92226710">
        <ele>364.00000</ele>
        <time>2010-01-01T00:28:15Z</time>
      </trkpt>
      <trkpt lat="31.65630630" lon="34.92220970">
        <ele>365.00000</ele>
        <time>2010-01-01T00:28:19Z</time>
      </trkpt>
      <trkpt lat="31.65621320" lon="34.92217470">
        <ele>365.00000</ele>
        <time>2010-01-01T00:28:23Z</time>
      </trkpt>
      <trkpt lat="31.65611400" lon="34.92213450">
        <ele>365.00000</ele>
        <time>2010-01-01T00:28:27Z</time>
      </trkpt>
      <trkpt lat="31.65601320" lon="34.92209920">
        <ele>366.00000</ele>
        <time>2010-01-01T00:28:31Z</time>
      </trkpt>
      <trkpt lat="31.65591180" lon="34.92207790">
        <ele>366.00000</ele>
        <time>2010-01-01T00:28:35Z</time>
      </trkpt>
      <trkpt lat="31.65581540" lon="34.92205110">
        <ele>367.00000</ele>
        <time>2010-01-01T00:28:39Z</time>
      </trkpt>
      <trkpt lat="31.65571870" lon="34.92202620">
        <ele>367.00000</ele>
        <time>2010-01-01T00:28:43Z</time>
      </trkpt>
      <trkpt lat="31.65562030" lon="34.92200320">
        <ele>368.00000</ele>
        <time>2010-01-01T00:28:47Z</time>
      </trkpt>
      <trkpt lat="31.65552720" lon="34.92197730">
        <ele>368.00000</ele>
        <time>2010-01-01T00:28:51Z</time>
      </trkpt>
      <trkpt lat="31.65541780" lon="34.92194110">
        <ele>369.00000</ele>
        <time>2010-01-01T00:28:55Z</time>
      </trkpt>
      <trkpt lat="31.65532660" lon="34.92191090">
        <ele>369.00000</ele>
        <time>2010-01-01T00:28:59Z</time>
      </trkpt>
      <trkpt lat="31.65522820" lon="34.92187790">
        <ele>370.00000</ele>
        <time>2010-01-01T00:29:03Z</time>
      </trkpt>
      <trkpt lat="31.65514050" lon="34.92184610">
        <ele>371.00000</ele>
        <time>2010-01-01T00:29:07Z</time>
      </trkpt>
      <trkpt lat="31.65504140" lon="34.92180820">
        <ele>372.00000</ele>
        <time>2010-01-01T00:29:11Z</time>
      </trkpt>
      <trkpt lat="31.65494860" lon="34.92178470">
        <ele>373.00000</ele>
        <time>2010-01-01T00:29:15Z</time>
      </trkpt>
      <trkpt lat="31.65484540" lon="34.92175650">
        <ele>374.00000</ele>
        <time>2010-01-01T00:29:19Z</time>
      </trkpt>
      <trkpt lat="31.65475830" lon="34.92171140">
        <ele>375.00000</ele>
        <time>2010-01-01T00:29:23Z</time>
      </trkpt>
      <trkpt lat="31.65467420" lon="34.92166500">
        <ele>376.00000</ele>
        <time>2010-01-01T00:29:27Z</time>
      </trkpt>
      <trkpt lat="31.65458920" lon="34.92161240">
        <ele>377.00000</ele>
        <time>2010-01-01T00:29:31Z</time>
      </trkpt>
      <trkpt lat="31.65450200" lon="34.92156470">
        <ele>378.00000</ele>
        <time>2010-01-01T00:29:34Z</time>
      </trkpt>
      <trkpt lat="31.65440690" lon="34.92151100">
        <ele>378.00000</ele>
        <time>2010-01-01T00:29:39Z</time>
      </trkpt>
      <trkpt lat="31.65431660" lon="34.92150810">
        <ele>379.00000</ele>
        <time>2010-01-01T00:29:42Z</time>
      </trkpt>
      <trkpt lat="31.65424340" lon="34.92156710">
        <ele>381.00000</ele>
        <time>2010-01-01T00:29:46Z</time>
      </trkpt>
      <trkpt lat="31.65420750" lon="34.92168780">
        <ele>382.00000</ele>
        <time>2010-01-01T00:29:50Z</time>
      </trkpt>
      <trkpt lat="31.65412620" lon="34.92176460">
        <ele>382.00000</ele>
        <time>2010-01-01T00:29:54Z</time>
      </trkpt>
      <trkpt lat="31.65406200" lon="34.92169860">
        <ele>382.00000</ele>
        <time>2010-01-01T00:29:58Z</time>
      </trkpt>
      <trkpt lat="31.65405020" lon="34.92159190">
        <ele>382.00000</ele>
        <time>2010-01-01T00:30:01Z</time>
      </trkpt>
      <trkpt lat="31.65403740" lon="34.92147250">
        <ele>382.00000</ele>
        <time>2010-01-01T00:30:06Z</time>
      </trkpt>
      <trkpt lat="31.65401720" lon="34.92134960">
        <ele>381.00000</ele>
        <time>2010-01-01T00:30:10Z</time>
      </trkpt>
      <trkpt lat="31.65399770" lon="34.92122720">
        <ele>380.00000</ele>
        <time>2010-01-01T00:30:14Z</time>
      </trkpt>
      <trkpt lat="31.65395290" lon="34.92110290">
        <ele>380.00000</ele>
        <time>2010-01-01T00:30:19Z</time>
      </trkpt>
      <trkpt lat="31.65389740" lon="34.92098640">
        <ele>380.00000</ele>
        <time>2010-01-01T00:30:23Z</time>
      </trkpt>
      <trkpt lat="31.65386780" lon="34.92088630">
        <ele>380.00000</ele>
        <time>2010-01-01T00:30:27Z</time>
      </trkpt>
      <trkpt lat="31.65386670" lon="34.92077630">
        <ele>379.00000</ele>
        <time>2010-01-01T00:30:31Z</time>
      </trkpt>
      <trkpt lat="31.65390610" lon="34.92066920">
        <ele>379.00000</ele>
        <time>2010-01-01T00:30:35Z</time>
      </trkpt>
      <trkpt lat="31.65395400" lon="34.92056170">
        <ele>378.00000</ele>
        <time>2010-01-01T00:30:39Z</time>
      </trkpt>
      <trkpt lat="31.65398260" lon="34.92044330">
        <ele>378.00000</ele>
        <time>2010-01-01T00:30:43Z</time>
      </trkpt>
      <trkpt lat="31.65398600" lon="34.92031730">
        <ele>378.00000</ele>
        <time>2010-01-01T00:30:47Z</time>
      </trkpt>
      <trkpt lat="31.65397040" lon="34.92019560">
        <ele>379.00000</ele>
        <time>2010-01-01T00:30:51Z</time>
      </trkpt>
      <trkpt lat="31.65394240" lon="34.92006490">
        <ele>379.00000</ele>
        <time>2010-01-01T00:30:56Z</time>
      </trkpt>
      <trkpt lat="31.65391370" lon="34.91992490">
        <ele>379.00000</ele>
        <time>2010-01-01T00:31:01Z</time>
      </trkpt>
      <trkpt lat="31.65389420" lon="34.91981020">
        <ele>379.00000</ele>
        <time>2010-01-01T00:31:05Z</time>
      </trkpt>
      <trkpt lat="31.65387870" lon="34.91968930">
        <ele>379.00000</ele>
        <time>2010-01-01T00:31:09Z</time>
      </trkpt>
      <trkpt lat="31.65386390" lon="34.91956970">
        <ele>379.00000</ele>
        <time>2010-01-01T00:31:13Z</time>
      </trkpt>
      <trkpt lat="31.65384600" lon="34.91945110">
        <ele>379.00000</ele>
        <time>2010-01-01T00:31:17Z</time>
      </trkpt>
      <trkpt lat="31.65382850" lon="34.91933350">
        <ele>379.00000</ele>
        <time>2010-01-01T00:31:21Z</time>
      </trkpt>
      <trkpt lat="31.65380750" lon="34.91922350">
        <ele>379.00000</ele>
        <time>2010-01-01T00:31:25Z</time>
      </trkpt>
      <trkpt lat="31.65378410" lon="34.91911530">
        <ele>379.00000</ele>
        <time>2010-01-01T00:31:29Z</time>
      </trkpt>
      <trkpt lat="31.65375380" lon="34.91900240">
        <ele>379.00000</ele>
        <time>2010-01-01T00:31:33Z</time>
      </trkpt>
      <trkpt lat="31.65371810" lon="34.91889050">
        <ele>379.00000</ele>
        <time>2010-01-01T00:31:37Z</time>
      </trkpt>
      <trkpt lat="31.65367890" lon="34.91877930">
        <ele>379.00000</ele>
        <time>2010-01-01T00:31:41Z</time>
      </trkpt>
      <trkpt lat="31.65362190" lon="34.91866750">
        <ele>379.00000</ele>
        <time>2010-01-01T00:31:46Z</time>
      </trkpt>
      <trkpt lat="31.65354440" lon="34.91855850">
        <ele>380.00000</ele>
        <time>2010-01-01T00:31:50Z</time>
      </trkpt>
      <trkpt lat="31.65346250" lon="34.91846010">
        <ele>380.00000</ele>
        <time>2010-01-01T00:31:55Z</time>
      </trkpt>
      <trkpt lat="31.65337580" lon="34.91835750">
        <ele>380.00000</ele>
        <time>2010-01-01T00:32:00Z</time>
      </trkpt>
      <trkpt lat="31.65327680" lon="34.91825340">
        <ele>379.00000</ele>
        <time>2010-01-01T00:32:05Z</time>
      </trkpt>
      <trkpt lat="31.65320020" lon="34.91819410">
        <ele>379.00000</ele>
        <time>2010-01-01T00:32:09Z</time>
      </trkpt>
      <trkpt lat="31.65307110" lon="34.91814470">
        <ele>379.00000</ele>
        <time>2010-01-01T00:32:14Z</time>
      </trkpt>
      <trkpt lat="31.65295000" lon="34.91811210">
        <ele>379.00000</ele>
        <time>2010-01-01T00:32:19Z</time>
      </trkpt>
      <trkpt lat="31.65283680" lon="34.91808450">
        <ele>379.00000</ele>
        <time>2010-01-01T00:32:24Z</time>
      </trkpt>
      <trkpt lat="31.65272630" lon="34.91805610">
        <ele>380.00000</ele>
        <time>2010-01-01T00:32:29Z</time>
      </trkpt>
      <trkpt lat="31.65261740" lon="34.91802920">
        <ele>381.00000</ele>
        <time>2010-01-01T00:32:33Z</time>
      </trkpt>
      <trkpt lat="31.65251100" lon="34.91799670">
        <ele>382.00000</ele>
        <time>2010-01-01T00:32:37Z</time>
      </trkpt>
      <trkpt lat="31.65240170" lon="34.91796160">
        <ele>383.00000</ele>
        <time>2010-01-01T00:32:42Z</time>
      </trkpt>
      <trkpt lat="31.65228980" lon="34.91792100">
        <ele>384.00000</ele>
        <time>2010-01-01T00:32:47Z</time>
      </trkpt>
      <trkpt lat="31.65217660" lon="34.91788530">
        <ele>384.00000</ele>
        <time>2010-01-01T00:32:51Z</time>
      </trkpt>
      <trkpt lat="31.65206070" lon="34.91785230">
        <ele>383.00000</ele>
        <time>2010-01-01T00:32:56Z</time>
      </trkpt>
      <trkpt lat="31.65194130" lon="34.91781880">
        <ele>383.00000</ele>
        <time>2010-01-01T00:33:01Z</time>
      </trkpt>
      <trkpt lat="31.65181560" lon="34.91778270">
        <ele>383.00000</ele>
        <time>2010-01-01T00:33:06Z</time>
      </trkpt>
      <trkpt lat="31.65168260" lon="34.91774210">
        <ele>382.00000</ele>
        <time>2010-01-01T00:33:12Z</time>
      </trkpt>
      <trkpt lat="31.65159060" lon="34.91771180">
        <ele>382.00000</ele>
        <time>2010-01-01T00:33:16Z</time>
      </trkpt>
      <trkpt lat="31.65149740" lon="34.91768310">
        <ele>382.00000</ele>
        <time>2010-01-01T00:33:19Z</time>
      </trkpt>
      <trkpt lat="31.65140470" lon="34.91765480">
        <ele>381.00000</ele>
        <time>2010-01-01T00:33:23Z</time>
      </trkpt>
      <trkpt lat="31.65131420" lon="34.91762470">
        <ele>381.00000</ele>
        <time>2010-01-01T00:33:27Z</time>
      </trkpt>
      <trkpt lat="31.65122500" lon="34.91759160">
        <ele>380.00000</ele>
        <time>2010-01-01T00:33:31Z</time>
      </trkpt>
      <trkpt lat="31.65109240" lon="34.91754720">
        <ele>380.00000</ele>
        <time>2010-01-01T00:33:36Z</time>
      </trkpt>
      <trkpt lat="31.65100450" lon="34.91751850">
        <ele>380.00000</ele>
        <time>2010-01-01T00:33:40Z</time>
      </trkpt>
      <trkpt lat="31.65091620" lon="34.91749100">
        <ele>380.00000</ele>
        <time>2010-01-01T00:33:44Z</time>
      </trkpt>
      <trkpt lat="31.65082800" lon="34.91746390">
        <ele>380.00000</ele>
        <time>2010-01-01T00:33:47Z</time>
      </trkpt>
      <trkpt lat="31.65074000" lon="34.91743700">
        <ele>380.00000</ele>
        <time>2010-01-01T00:33:51Z</time>
      </trkpt>
      <trkpt lat="31.65060830" lon="34.91739470">
        <ele>380.00000</ele>
        <time>2010-01-01T00:33:56Z</time>
      </trkpt>
      <trkpt lat="31.65047710" lon="34.91735270">
        <ele>380.00000</ele>
        <time>2010-01-01T00:34:02Z</time>
      </trkpt>
      <trkpt lat="31.65038980" lon="34.91732320">
        <ele>380.00000</ele>
        <time>2010-01-01T00:34:05Z</time>
      </trkpt>
      <trkpt lat="31.65030170" lon="34.91729430">
        <ele>380.00000</ele>
        <time>2010-01-01T00:34:09Z</time>
      </trkpt>
      <trkpt lat="31.65021470" lon="34.91726430">
        <ele>380.00000</ele>
        <time>2010-01-01T00:34:13Z</time>
      </trkpt>
      <trkpt lat="31.65008430" lon="34.91722250">
        <ele>381.00000</ele>
        <time>2010-01-01T00:34:18Z</time>
      </trkpt>
      <trkpt lat="31.64995310" lon="34.91717720">
        <ele>380.00000</ele>
        <time>2010-01-01T00:34:24Z</time>
      </trkpt>
      <trkpt lat="31.64982300" lon="34.91713450">
        <ele>380.00000</ele>
        <time>2010-01-01T00:34:29Z</time>
      </trkpt>
      <trkpt lat="31.64969630" lon="34.91708630">
        <ele>380.00000</ele>
        <time>2010-01-01T00:34:34Z</time>
      </trkpt>
      <trkpt lat="31.64956980" lon="34.91704180">
        <ele>380.00000</ele>
        <time>2010-01-01T00:34:40Z</time>
      </trkpt>
      <trkpt lat="31.64944370" lon="34.91699660">
        <ele>380.00000</ele>
        <time>2010-01-01T00:34:45Z</time>
      </trkpt>
      <trkpt lat="31.64932090" lon="34.91694720">
        <ele>381.00000</ele>
        <time>2010-01-01T00:34:50Z</time>
      </trkpt>
      <trkpt lat="31.64919770" lon="34.91689990">
        <ele>381.00000</ele>
        <time>2010-01-01T00:34:55Z</time>
      </trkpt>
      <trkpt lat="31.64907650" lon="34.91685160">
        <ele>382.00000</ele>
        <time>2010-01-01T00:35:00Z</time>
      </trkpt>
      <trkpt lat="31.64895500" lon="34.91680410">
        <ele>382.00000</ele>
        <time>2010-01-01T00:35:06Z</time>
      </trkpt>
      <trkpt lat="31.64883720" lon="34.91675640">
        <ele>382.00000</ele>
        <time>2010-01-01T00:35:11Z</time>
      </trkpt>
      <trkpt lat="31.64872270" lon="34.91670020">
        <ele>381.00000</ele>
        <time>2010-01-01T00:35:15Z</time>
      </trkpt>
      <trkpt lat="31.64860900" lon="34.91663720">
        <ele>382.00000</ele>
        <time>2010-01-01T00:35:21Z</time>
      </trkpt>
      <trkpt lat="31.64849560" lon="34.91658080">
        <ele>382.00000</ele>
        <time>2010-01-01T00:35:25Z</time>
      </trkpt>
      <trkpt lat="31.64838500" lon="34.91652670">
        <ele>383.00000</ele>
        <time>2010-01-01T00:35:30Z</time>
      </trkpt>
      <trkpt lat="31.64828070" lon="34.91647390">
        <ele>384.00000</ele>
        <time>2010-01-01T00:35:35Z</time>
      </trkpt>
      <trkpt lat="31.64817720" lon="34.91642140">
        <ele>384.00000</ele>
        <time>2010-01-01T00:35:39Z</time>
      </trkpt>
      <trkpt lat="31.64807770" lon="34.91636760">
        <ele>383.00000</ele>
        <time>2010-01-01T00:35:44Z</time>
      </trkpt>
      <trkpt lat="31.64797470" lon="34.91631700">
        <ele>383.00000</ele>
        <time>2010-01-01T00:35:48Z</time>
      </trkpt>
      <trkpt lat="31.64786710" lon="34.91626840">
        <ele>383.00000</ele>
        <time>2010-01-01T00:35:53Z</time>
      </trkpt>
      <trkpt lat="31.64776540" lon="34.91621970">
        <ele>383.00000</ele>
        <time>2010-01-01T00:35:57Z</time>
      </trkpt>
      <trkpt lat="31.64766010" lon="34.91618530">
        <ele>383.00000</ele>
        <time>2010-01-01T00:36:02Z</time>
      </trkpt>
      <trkpt lat="31.64754740" lon="34.91615270">
        <ele>383.00000</ele>
        <time>2010-01-01T00:36:06Z</time>
      </trkpt>
      <trkpt lat="31.64743020" lon="34.91612800">
        <ele>382.00000</ele>
        <time>2010-01-01T00:36:11Z</time>
      </trkpt>
      <trkpt lat="31.64732660" lon="34.91614470">
        <ele>381.00000</ele>
        <time>2010-01-01T00:36:15Z</time>
      </trkpt>
      <trkpt lat="31.64724710" lon="34.91621090">
        <ele>381.00000</ele>
        <time>2010-01-01T00:36:19Z</time>
      </trkpt>
      <trkpt lat="31.64727370" lon="34.91634700">
        <ele>382.00000</ele>
        <time>2010-01-01T00:36:24Z</time>
      </trkpt>
      <trkpt lat="31.64731760" lon="34.91646020">
        <ele>383.00000</ele>
        <time>2010-01-01T00:36:28Z</time>
      </trkpt>
      <trkpt lat="31.64736460" lon="34.91657700">
        <ele>383.00000</ele>
        <time>2010-01-01T00:36:32Z</time>
      </trkpt>
      <trkpt lat="31.64740340" lon="34.91668120">
        <ele>384.00000</ele>
        <time>2010-01-01T00:36:36Z</time>
      </trkpt>
      <trkpt lat="31.64730690" lon="34.91670340">
        <ele>383.00000</ele>
        <time>2010-01-01T00:36:40Z</time>
      </trkpt>
      <trkpt lat="31.64719950" lon="34.91670610">
        <ele>383.00000</ele>
        <time>2010-01-01T00:36:45Z</time>
      </trkpt>
      <trkpt lat="31.64710220" lon="34.91670350">
        <ele>383.00000</ele>
        <time>2010-01-01T00:36:48Z</time>
      </trkpt>
      <trkpt lat="31.64699200" lon="34.91667650">
        <ele>383.00000</ele>
        <time>2010-01-01T00:36:53Z</time>
      </trkpt>
      <trkpt lat="31.64689840" lon="34.91664680">
        <ele>383.00000</ele>
        <time>2010-01-01T00:36:57Z</time>
      </trkpt>
      <trkpt lat="31.64681890" lon="34.91661950">
        <ele>383.00000</ele>
        <time>2010-01-01T00:37:00Z</time>
      </trkpt>
      <trkpt lat="31.64685950" lon="34.91668080">
        <ele>383.00000</ele>
        <time>2010-01-01T00:37:03Z</time>
      </trkpt>
      <trkpt lat="31.64696490" lon="34.91668280">
        <ele>383.00000</ele>
        <time>2010-01-01T00:37:07Z</time>
      </trkpt>
      <trkpt lat="31.64707620" lon="34.91671220">
        <ele>383.00000</ele>
        <time>2010-01-01T00:37:12Z</time>
      </trkpt>
      <trkpt lat="31.64717260" lon="34.91671630">
        <ele>383.00000</ele>
        <time>2010-01-01T00:37:15Z</time>
      </trkpt>
      <trkpt lat="31.64729550" lon="34.91671000">
        <ele>383.00000</ele>
        <time>2010-01-01T00:37:20Z</time>
      </trkpt>
      <trkpt lat="31.64739340" lon="34.91671440">
        <ele>384.00000</ele>
        <time>2010-01-01T00:37:24Z</time>
      </trkpt>
      <trkpt lat="31.64748180" lon="34.91676670">
        <ele>384.00000</ele>
        <time>2010-01-01T00:37:28Z</time>
      </trkpt>
      <trkpt lat="31.64751980" lon="34.91689040">
        <ele>384.00000</ele>
        <time>2010-01-01T00:37:33Z</time>
      </trkpt>
      <trkpt lat="31.64754430" lon="34.91700190">
        <ele>384.00000</ele>
        <time>2010-01-01T00:37:37Z</time>
      </trkpt>
      <trkpt lat="31.64757790" lon="34.91711270">
        <ele>384.00000</ele>
        <time>2010-01-01T00:37:41Z</time>
      </trkpt>
      <trkpt lat="31.64761890" lon="34.91722900">
        <ele>384.00000</ele>
        <time>2010-01-01T00:37:45Z</time>
      </trkpt>
      <trkpt lat="31.64764020" lon="34.91732360">
        <ele>384.00000</ele>
        <time>2010-01-01T00:37:48Z</time>
      </trkpt>
      <trkpt lat="31.64766100" lon="34.91744730">
        <ele>383.00000</ele>
        <time>2010-01-01T00:37:53Z</time>
      </trkpt>
      <trkpt lat="31.64768620" lon="34.91755630">
        <ele>383.00000</ele>
        <time>2010-01-01T00:37:56Z</time>
      </trkpt>
      <trkpt lat="31.64768950" lon="34.91767950">
        <ele>382.00000</ele>
        <time>2010-01-01T00:38:01Z</time>
      </trkpt>
      <trkpt lat="31.64761180" lon="34.91778720">
        <ele>381.00000</ele>
        <time>2010-01-01T00:38:05Z</time>
      </trkpt>
      <trkpt lat="31.64749580" lon="34.91779660">
        <ele>380.00000</ele>
        <time>2010-01-01T00:38:10Z</time>
      </trkpt>
      <trkpt lat="31.64738710" lon="34.91772530">
        <ele>380.00000</ele>
        <time>2010-01-01T00:38:15Z</time>
      </trkpt>
      <trkpt lat="31.64728940" lon="34.91767640">
        <ele>380.00000</ele>
        <time>2010-01-01T00:38:19Z</time>
      </trkpt>
      <trkpt lat="31.64716660" lon="34.91761680">
        <ele>379.00000</ele>
        <time>2010-01-01T00:38:25Z</time>
      </trkpt>
      <trkpt lat="31.64703120" lon="34.91755280">
        <ele>378.00000</ele>
        <time>2010-01-01T00:38:30Z</time>
      </trkpt>
      <trkpt lat="31.64691090" lon="34.91749790">
        <ele>378.00000</ele>
        <time>2010-01-01T00:38:36Z</time>
      </trkpt>
      <trkpt lat="31.64680560" lon="34.91745010">
        <ele>378.00000</ele>
        <time>2010-01-01T00:38:40Z</time>
      </trkpt>
      <trkpt lat="31.64671160" lon="34.91742680">
        <ele>377.00000</ele>
        <time>2010-01-01T00:38:44Z</time>
      </trkpt>
      <trkpt lat="31.64662020" lon="34.91739870">
        <ele>377.00000</ele>
        <time>2010-01-01T00:38:48Z</time>
      </trkpt>
      <trkpt lat="31.64652610" lon="34.91736550">
        <ele>378.00000</ele>
        <time>2010-01-01T00:38:52Z</time>
      </trkpt>
      <trkpt lat="31.64643970" lon="34.91738460">
        <ele>378.00000</ele>
        <time>2010-01-01T00:38:55Z</time>
      </trkpt>
      <trkpt lat="31.64645730" lon="34.91749340">
        <ele>376.00000</ele>
        <time>2010-01-01T00:38:59Z</time>
      </trkpt>
      <trkpt lat="31.64656080" lon="34.91753420">
        <ele>375.00000</ele>
        <time>2010-01-01T00:39:03Z</time>
      </trkpt>
      <trkpt lat="31.64665510" lon="34.91759070">
        <ele>374.00000</ele>
        <time>2010-01-01T00:39:08Z</time>
      </trkpt>
      <trkpt lat="31.64674140" lon="34.91769510">
        <ele>373.00000</ele>
        <time>2010-01-01T00:39:13Z</time>
      </trkpt>
      <trkpt lat="31.64679690" lon="34.91785450">
        <ele>372.00000</ele>
        <time>2010-01-01T00:39:18Z</time>
      </trkpt>
      <trkpt lat="31.64680790" lon="34.91804100">
        <ele>370.00000</ele>
        <time>2010-01-01T00:39:25Z</time>
      </trkpt>
      <trkpt lat="31.64679610" lon="34.91814430">
        <ele>369.00000</ele>
        <time>2010-01-01T00:39:28Z</time>
      </trkpt>
      <trkpt lat="31.64674420" lon="34.91836060">
        <ele>367.00000</ele>
        <time>2010-01-01T00:39:36Z</time>
      </trkpt>
      <trkpt lat="31.64671570" lon="34.91847030">
        <ele>366.00000</ele>
        <time>2010-01-01T00:39:40Z</time>
      </trkpt>
      <trkpt lat="31.64668940" lon="34.91858250">
        <ele>364.00000</ele>
        <time>2010-01-01T00:39:44Z</time>
      </trkpt>
      <trkpt lat="31.64666440" lon="34.91869930">
        <ele>363.00000</ele>
        <time>2010-01-01T00:39:48Z</time>
      </trkpt>
      <trkpt lat="31.64664140" lon="34.91881900">
        <ele>363.00000</ele>
        <time>2010-01-01T00:39:52Z</time>
      </trkpt>
      <trkpt lat="31.64661900" lon="34.91893810">
        <ele>363.00000</ele>
        <time>2010-01-01T00:39:56Z</time>
      </trkpt>
      <trkpt lat="31.64659610" lon="34.91905560">
        <ele>362.00000</ele>
        <time>2010-01-01T00:40:00Z</time>
      </trkpt>
      <trkpt lat="31.64653170" lon="34.91928000">
        <ele>360.00000</ele>
        <time>2010-01-01T00:40:09Z</time>
      </trkpt>
      <trkpt lat="31.64648740" lon="34.91939020">
        <ele>359.00000</ele>
        <time>2010-01-01T00:40:13Z</time>
      </trkpt>
      <trkpt lat="31.64643790" lon="34.91950380">
        <ele>359.00000</ele>
        <time>2010-01-01T00:40:17Z</time>
      </trkpt>
      <trkpt lat="31.64638420" lon="34.91962000">
        <ele>358.00000</ele>
        <time>2010-01-01T00:40:22Z</time>
      </trkpt>
      <trkpt lat="31.64632770" lon="34.91973730">
        <ele>358.00000</ele>
        <time>2010-01-01T00:40:26Z</time>
      </trkpt>
      <trkpt lat="31.64627050" lon="34.91985560">
        <ele>358.00000</ele>
        <time>2010-01-01T00:40:31Z</time>
      </trkpt>
      <trkpt lat="31.64621380" lon="34.91997510">
        <ele>357.00000</ele>
        <time>2010-01-01T00:40:35Z</time>
      </trkpt>
      <trkpt lat="31.64616060" lon="34.92009490">
        <ele>356.00000</ele>
        <time>2010-01-01T00:40:40Z</time>
      </trkpt>
      <trkpt lat="31.64611190" lon="34.92021440">
        <ele>355.00000</ele>
        <time>2010-01-01T00:40:45Z</time>
      </trkpt>
      <trkpt lat="31.64606460" lon="34.92033130">
        <ele>354.00000</ele>
        <time>2010-01-01T00:40:49Z</time>
      </trkpt>
      <trkpt lat="31.64601560" lon="34.92044330">
        <ele>353.00000</ele>
        <time>2010-01-01T00:40:53Z</time>
      </trkpt>
      <trkpt lat="31.64596320" lon="34.92055300">
        <ele>351.00000</ele>
        <time>2010-01-01T00:40:58Z</time>
      </trkpt>
      <trkpt lat="31.64590870" lon="34.92066060">
        <ele>351.00000</ele>
        <time>2010-01-01T00:41:02Z</time>
      </trkpt>
      <trkpt lat="31.64585270" lon="34.92076780">
        <ele>349.00000</ele>
        <time>2010-01-01T00:41:06Z</time>
      </trkpt>
      <trkpt lat="31.64579560" lon="34.92087450">
        <ele>348.00000</ele>
        <time>2010-01-01T00:41:10Z</time>
      </trkpt>
      <trkpt lat="31.64573820" lon="34.92098020">
        <ele>348.00000</ele>
        <time>2010-01-01T00:41:15Z</time>
      </trkpt>
      <trkpt lat="31.64568310" lon="34.92108580">
        <ele>347.00000</ele>
        <time>2010-01-01T00:41:19Z</time>
      </trkpt>
      <trkpt lat="31.64562890" lon="34.92119060">
        <ele>346.00000</ele>
        <time>2010-01-01T00:41:23Z</time>
      </trkpt>
      <trkpt lat="31.64557400" lon="34.92129470">
        <ele>346.00000</ele>
        <time>2010-01-01T00:41:27Z</time>
      </trkpt>
      <trkpt lat="31.64552110" lon="34.92139980">
        <ele>346.00000</ele>
        <time>2010-01-01T00:41:31Z</time>
      </trkpt>
      <trkpt lat="31.64547300" lon="34.92150690">
        <ele>345.00000</ele>
        <time>2010-01-01T00:41:36Z</time>
      </trkpt>
      <trkpt lat="31.64543030" lon="34.92161340">
        <ele>345.00000</ele>
        <time>2010-01-01T00:41:40Z</time>
      </trkpt>
      <trkpt lat="31.64539180" lon="34.92171730">
        <ele>344.00000</ele>
        <time>2010-01-01T00:41:43Z</time>
      </trkpt>
      <trkpt lat="31.64532830" lon="34.92192660">
        <ele>342.00000</ele>
        <time>2010-01-01T00:41:51Z</time>
      </trkpt>
      <trkpt lat="31.64529780" lon="34.92203230">
        <ele>341.00000</ele>
        <time>2010-01-01T00:41:55Z</time>
      </trkpt>
      <trkpt lat="31.64526210" lon="34.92213760">
        <ele>341.00000</ele>
        <time>2010-01-01T00:41:59Z</time>
      </trkpt>
      <trkpt lat="31.64522020" lon="34.92224410">
        <ele>340.00000</ele>
        <time>2010-01-01T00:42:03Z</time>
      </trkpt>
      <trkpt lat="31.64517510" lon="34.92235430">
        <ele>339.00000</ele>
        <time>2010-01-01T00:42:07Z</time>
      </trkpt>
      <trkpt lat="31.64512950" lon="34.92247000">
        <ele>337.00000</ele>
        <time>2010-01-01T00:42:11Z</time>
      </trkpt>
      <trkpt lat="31.64508550" lon="34.92259130">
        <ele>336.00000</ele>
        <time>2010-01-01T00:42:16Z</time>
      </trkpt>
      <trkpt lat="31.64504760" lon="34.92271930">
        <ele>336.00000</ele>
        <time>2010-01-01T00:42:20Z</time>
      </trkpt>
      <trkpt lat="31.64501630" lon="34.92284940">
        <ele>334.00000</ele>
        <time>2010-01-01T00:42:25Z</time>
      </trkpt>
      <trkpt lat="31.64498760" lon="34.92297790">
        <ele>333.00000</ele>
        <time>2010-01-01T00:42:29Z</time>
      </trkpt>
      <trkpt lat="31.64496220" lon="34.92310300">
        <ele>332.00000</ele>
        <time>2010-01-01T00:42:34Z</time>
      </trkpt>
      <trkpt lat="31.64494570" lon="34.92322470">
        <ele>330.00000</ele>
        <time>2010-01-01T00:42:38Z</time>
      </trkpt>
      <trkpt lat="31.64493740" lon="34.92334250">
        <ele>329.00000</ele>
        <time>2010-01-01T00:42:42Z</time>
      </trkpt>
      <trkpt lat="31.64493700" lon="34.92345700">
        <ele>328.00000</ele>
        <time>2010-01-01T00:42:46Z</time>
      </trkpt>
      <trkpt lat="31.64494570" lon="34.92356830">
        <ele>327.00000</ele>
        <time>2010-01-01T00:42:50Z</time>
      </trkpt>
      <trkpt lat="31.64496430" lon="34.92367360">
        <ele>326.00000</ele>
        <time>2010-01-01T00:42:53Z</time>
      </trkpt>
      <trkpt lat="31.64498780" lon="34.92377160">
        <ele>325.00000</ele>
        <time>2010-01-01T00:42:57Z</time>
      </trkpt>
      <trkpt lat="31.64502510" lon="34.92393270">
        <ele>325.00000</ele>
        <time>2010-01-01T00:43:03Z</time>
      </trkpt>
      <trkpt lat="31.64505210" lon="34.92405560">
        <ele>324.00000</ele>
        <time>2010-01-01T00:43:07Z</time>
      </trkpt>
      <trkpt lat="31.64510650" lon="34.92417890">
        <ele>324.00000</ele>
        <time>2010-01-01T00:43:12Z</time>
      </trkpt>
      <trkpt lat="31.64520980" lon="34.92424100">
        <ele>325.00000</ele>
        <time>2010-01-01T00:43:16Z</time>
      </trkpt>
      <trkpt lat="31.64533000" lon="34.92430130">
        <ele>325.00000</ele>
        <time>2010-01-01T00:43:21Z</time>
      </trkpt>
      <trkpt lat="31.64541850" lon="34.92435190">
        <ele>325.00000</ele>
        <time>2010-01-01T00:43:25Z</time>
      </trkpt>
      <trkpt lat="31.64551310" lon="34.92442230">
        <ele>325.00000</ele>
        <time>2010-01-01T00:43:30Z</time>
      </trkpt>
      <trkpt lat="31.64560690" lon="34.92451370">
        <ele>324.00000</ele>
        <time>2010-01-01T00:43:35Z</time>
      </trkpt>
      <trkpt lat="31.64570570" lon="34.92461000">
        <ele>322.00000</ele>
        <time>2010-01-01T00:43:40Z</time>
      </trkpt>
      <trkpt lat="31.64580810" lon="34.92470260">
        <ele>320.00000</ele>
        <time>2010-01-01T00:43:45Z</time>
      </trkpt>
      <trkpt lat="31.64590470" lon="34.92479450">
        <ele>319.00000</ele>
        <time>2010-01-01T00:43:50Z</time>
      </trkpt>
      <trkpt lat="31.64598570" lon="34.92488280">
        <ele>319.00000</ele>
        <time>2010-01-01T00:43:54Z</time>
      </trkpt>
      <trkpt lat="31.64606000" lon="34.92496050">
        <ele>318.00000</ele>
        <time>2010-01-01T00:43:58Z</time>
      </trkpt>
      <trkpt lat="31.64611660" lon="34.92505650">
        <ele>318.00000</ele>
        <time>2010-01-01T00:44:02Z</time>
      </trkpt>
      <trkpt lat="31.64617740" lon="34.92516460">
        <ele>318.00000</ele>
        <time>2010-01-01T00:44:07Z</time>
      </trkpt>
      <trkpt lat="31.64626900" lon="34.92524290">
        <ele>318.00000</ele>
        <time>2010-01-01T00:44:11Z</time>
      </trkpt>
      <trkpt lat="31.64636260" lon="34.92532090">
        <ele>318.00000</ele>
        <time>2010-01-01T00:44:16Z</time>
      </trkpt>
      <trkpt lat="31.64641920" lon="34.92543190">
        <ele>318.00000</ele>
        <time>2010-01-01T00:44:20Z</time>
      </trkpt>
      <trkpt lat="31.64640270" lon="34.92555530">
        <ele>317.00000</ele>
        <time>2010-01-01T00:44:25Z</time>
      </trkpt>
      <trkpt lat="31.64636330" lon="34.92566400">
        <ele>318.00000</ele>
        <time>2010-01-01T00:44:29Z</time>
      </trkpt>
      <trkpt lat="31.64634730" lon="34.92577380">
        <ele>319.00000</ele>
        <time>2010-01-01T00:44:32Z</time>
      </trkpt>
      <trkpt lat="31.64636090" lon="34.92588070">
        <ele>319.00000</ele>
        <time>2010-01-01T00:44:36Z</time>
      </trkpt>
      <trkpt lat="31.64639700" lon="34.92598420">
        <ele>318.00000</ele>
        <time>2010-01-01T00:44:40Z</time>
      </trkpt>
      <trkpt lat="31.64645920" lon="34.92608370">
        <ele>318.00000</ele>
        <time>2010-01-01T00:44:44Z</time>
      </trkpt>
      <trkpt lat="31.64653520" lon="34.92619200">
        <ele>317.00000</ele>
        <time>2010-01-01T00:44:49Z</time>
      </trkpt>
      <trkpt lat="31.64660640" lon="34.92632670">
        <ele>316.00000</ele>
        <time>2010-01-01T00:44:54Z</time>
      </trkpt>
      <trkpt lat="31.64666030" lon="34.92649030">
        <ele>315.00000</ele>
        <time>2010-01-01T00:45:00Z</time>
      </trkpt>
      <trkpt lat="31.64668150" lon="34.92668020">
        <ele>314.00000</ele>
        <time>2010-01-01T00:45:07Z</time>
      </trkpt>
      <trkpt lat="31.64666260" lon="34.92685650">
        <ele>315.00000</ele>
        <time>2010-01-01T00:45:13Z</time>
      </trkpt>
      <trkpt lat="31.64660640" lon="34.92700650">
        <ele>315.00000</ele>
        <time>2010-01-01T00:45:19Z</time>
      </trkpt>
      <trkpt lat="31.64653840" lon="34.92714510">
        <ele>316.00000</ele>
        <time>2010-01-01T00:45:24Z</time>
      </trkpt>
      <trkpt lat="31.64647640" lon="34.92728020">
        <ele>317.00000</ele>
        <time>2010-01-01T00:45:29Z</time>
      </trkpt>
      <trkpt lat="31.64642040" lon="34.92741080">
        <ele>317.00000</ele>
        <time>2010-01-01T00:45:34Z</time>
      </trkpt>
      <trkpt lat="31.64636140" lon="34.92753400">
        <ele>317.00000</ele>
        <time>2010-01-01T00:45:39Z</time>
      </trkpt>
      <trkpt lat="31.64630180" lon="34.92765060">
        <ele>317.00000</ele>
        <time>2010-01-01T00:45:44Z</time>
      </trkpt>
      <trkpt lat="31.64624630" lon="34.92776430">
        <ele>317.00000</ele>
        <time>2010-01-01T00:45:48Z</time>
      </trkpt>
      <trkpt lat="31.64618910" lon="34.92787880">
        <ele>317.00000</ele>
        <time>2010-01-01T00:45:53Z</time>
      </trkpt>
      <trkpt lat="31.64612780" lon="34.92799080">
        <ele>317.00000</ele>
        <time>2010-01-01T00:45:57Z</time>
      </trkpt>
      <trkpt lat="31.64606540" lon="34.92810070">
        <ele>318.00000</ele>
        <time>2010-01-01T00:46:02Z</time>
      </trkpt>
      <trkpt lat="31.64600150" lon="34.92820850">
        <ele>318.00000</ele>
        <time>2010-01-01T00:46:06Z</time>
      </trkpt>
      <trkpt lat="31.64594070" lon="34.92831950">
        <ele>319.00000</ele>
        <time>2010-01-01T00:46:11Z</time>
      </trkpt>
      <trkpt lat="31.64587720" lon="34.92842680">
        <ele>318.00000</ele>
        <time>2010-01-01T00:46:15Z</time>
      </trkpt>
      <trkpt lat="31.64580850" lon="34.92852810">
        <ele>318.00000</ele>
        <time>2010-01-01T00:46:20Z</time>
      </trkpt>
      <trkpt lat="31.64573370" lon="34.92862320">
        <ele>318.00000</ele>
        <time>2010-01-01T00:46:24Z</time>
      </trkpt>
      <trkpt lat="31.64565450" lon="34.92871200">
        <ele>319.00000</ele>
        <time>2010-01-01T00:46:28Z</time>
      </trkpt>
      <trkpt lat="31.64557090" lon="34.92879440">
        <ele>319.00000</ele>
        <time>2010-01-01T00:46:33Z</time>
      </trkpt>
      <trkpt lat="31.64548790" lon="34.92887290">
        <ele>319.00000</ele>
        <time>2010-01-01T00:46:37Z</time>
      </trkpt>
      <trkpt lat="31.64540700" lon="34.92895080">
        <ele>320.00000</ele>
        <time>2010-01-01T00:46:41Z</time>
      </trkpt>
      <trkpt lat="31.64532740" lon="34.92902280">
        <ele>320.00000</ele>
        <time>2010-01-01T00:46:45Z</time>
      </trkpt>
      <trkpt lat="31.64524940" lon="34.92908960">
        <ele>321.00000</ele>
        <time>2010-01-01T00:46:49Z</time>
      </trkpt>
      <trkpt lat="31.64517570" lon="34.92915390">
        <ele>321.00000</ele>
        <time>2010-01-01T00:46:53Z</time>
      </trkpt>
      <trkpt lat="31.64506890" lon="34.92924450">
        <ele>322.00000</ele>
        <time>2010-01-01T00:46:58Z</time>
      </trkpt>
      <trkpt lat="31.64496510" lon="34.92933930">
        <ele>323.00000</ele>
        <time>2010-01-01T00:47:03Z</time>
      </trkpt>
      <trkpt lat="31.64485500" lon="34.92943070">
        <ele>323.00000</ele>
        <time>2010-01-01T00:47:09Z</time>
      </trkpt>
      <trkpt lat="31.64477890" lon="34.92949210">
        <ele>323.00000</ele>
        <time>2010-01-01T00:47:12Z</time>
      </trkpt>
      <trkpt lat="31.64470320" lon="34.92955680">
        <ele>323.00000</ele>
        <time>2010-01-01T00:47:16Z</time>
      </trkpt>
      <trkpt lat="31.64459030" lon="34.92964880">
        <ele>324.00000</ele>
        <time>2010-01-01T00:47:22Z</time>
      </trkpt>
      <trkpt lat="31.64448240" lon="34.92974010">
        <ele>325.00000</ele>
        <time>2010-01-01T00:47:27Z</time>
      </trkpt>
      <trkpt lat="31.64437330" lon="34.92982750">
        <ele>326.00000</ele>
        <time>2010-01-01T00:47:32Z</time>
      </trkpt>
      <trkpt lat="31.64425920" lon="34.92990900">
        <ele>325.00000</ele>
        <time>2010-01-01T00:47:38Z</time>
      </trkpt>
      <trkpt lat="31.64418470" lon="34.92996450">
        <ele>325.00000</ele>
        <time>2010-01-01T00:47:41Z</time>
      </trkpt>
      <trkpt lat="31.64407160" lon="34.93004170">
        <ele>325.00000</ele>
        <time>2010-01-01T00:47:46Z</time>
      </trkpt>
      <trkpt lat="31.64395980" lon="34.93012230">
        <ele>326.00000</ele>
        <time>2010-01-01T00:47:52Z</time>
      </trkpt>
      <trkpt lat="31.64384350" lon="34.93019790">
        <ele>327.00000</ele>
        <time>2010-01-01T00:47:57Z</time>
      </trkpt>
      <trkpt lat="31.64376250" lon="34.93024440">
        <ele>328.00000</ele>
        <time>2010-01-01T00:48:00Z</time>
      </trkpt>
      <trkpt lat="31.64368400" lon="34.93029420">
        <ele>328.00000</ele>
        <time>2010-01-01T00:48:04Z</time>
      </trkpt>
      <trkpt lat="31.64357220" lon="34.93037430">
        <ele>329.00000</ele>
        <time>2010-01-01T00:48:09Z</time>
      </trkpt>
      <trkpt lat="31.64346500" lon="34.93045380">
        <ele>329.00000</ele>
        <time>2010-01-01T00:48:14Z</time>
      </trkpt>
      <trkpt lat="31.64336050" lon="34.93052830">
        <ele>330.00000</ele>
        <time>2010-01-01T00:48:19Z</time>
      </trkpt>
      <trkpt lat="31.64325730" lon="34.93059650">
        <ele>330.00000</ele>
        <time>2010-01-01T00:48:24Z</time>
      </trkpt>
      <trkpt lat="31.64315440" lon="34.93066420">
        <ele>329.00000</ele>
        <time>2010-01-01T00:48:29Z</time>
      </trkpt>
      <trkpt lat="31.64305410" lon="34.93073640">
        <ele>329.00000</ele>
        <time>2010-01-01T00:48:33Z</time>
      </trkpt>
      <trkpt lat="31.64295750" lon="34.93080680">
        <ele>329.00000</ele>
        <time>2010-01-01T00:48:38Z</time>
      </trkpt>
      <trkpt lat="31.64285910" lon="34.93087270">
        <ele>330.00000</ele>
        <time>2010-01-01T00:48:42Z</time>
      </trkpt>
      <trkpt lat="31.64276390" lon="34.93093750">
        <ele>331.00000</ele>
        <time>2010-01-01T00:48:47Z</time>
      </trkpt>
      <trkpt lat="31.64267730" lon="34.93100190">
        <ele>331.00000</ele>
        <time>2010-01-01T00:48:51Z</time>
      </trkpt>
      <trkpt lat="31.64258960" lon="34.93106040">
        <ele>332.00000</ele>
        <time>2010-01-01T00:48:55Z</time>
      </trkpt>
      <trkpt lat="31.64249760" lon="34.93112430">
        <ele>333.00000</ele>
        <time>2010-01-01T00:48:59Z</time>
      </trkpt>
      <trkpt lat="31.64240260" lon="34.93118410">
        <ele>333.00000</ele>
        <time>2010-01-01T00:49:04Z</time>
      </trkpt>
      <trkpt lat="31.64230280" lon="34.93123800">
        <ele>333.00000</ele>
        <time>2010-01-01T00:49:08Z</time>
      </trkpt>
      <trkpt lat="31.64220130" lon="34.93129280">
        <ele>333.00000</ele>
        <time>2010-01-01T00:49:13Z</time>
      </trkpt>
      <trkpt lat="31.64209820" lon="34.93135020">
        <ele>333.00000</ele>
        <time>2010-01-01T00:49:17Z</time>
      </trkpt>
      <trkpt lat="31.64199410" lon="34.93140780">
        <ele>332.00000</ele>
        <time>2010-01-01T00:49:22Z</time>
      </trkpt>
      <trkpt lat="31.64189290" lon="34.93146990">
        <ele>332.00000</ele>
        <time>2010-01-01T00:49:26Z</time>
      </trkpt>
      <trkpt lat="31.64180340" lon="34.93152490">
        <ele>332.00000</ele>
        <time>2010-01-01T00:49:30Z</time>
      </trkpt>
      <trkpt lat="31.64170710" lon="34.93156470">
        <ele>332.00000</ele>
        <time>2010-01-01T00:49:34Z</time>
      </trkpt>
      <trkpt lat="31.64160710" lon="34.93160690">
        <ele>332.00000</ele>
        <time>2010-01-01T00:49:39Z</time>
      </trkpt>
      <trkpt lat="31.64150830" lon="34.93165630">
        <ele>333.00000</ele>
        <time>2010-01-01T00:49:43Z</time>
      </trkpt>
      <trkpt lat="31.64140970" lon="34.93170700">
        <ele>334.00000</ele>
        <time>2010-01-01T00:49:47Z</time>
      </trkpt>
      <trkpt lat="31.64130820" lon="34.93175670">
        <ele>334.00000</ele>
        <time>2010-01-01T00:49:52Z</time>
      </trkpt>
      <trkpt lat="31.64120190" lon="34.93180770">
        <ele>335.00000</ele>
        <time>2010-01-01T00:49:56Z</time>
      </trkpt>
      <trkpt lat="31.64109140" lon="34.93186200">
        <ele>335.00000</ele>
        <time>2010-01-01T00:50:01Z</time>
      </trkpt>
      <trkpt lat="31.64097890" lon="34.93191880">
        <ele>334.00000</ele>
        <time>2010-01-01T00:50:06Z</time>
      </trkpt>
      <trkpt lat="31.64086280" lon="34.93197370">
        <ele>334.00000</ele>
        <time>2010-01-01T00:50:11Z</time>
      </trkpt>
      <trkpt lat="31.64074480" lon="34.93202620">
        <ele>335.00000</ele>
        <time>2010-01-01T00:50:16Z</time>
      </trkpt>
      <trkpt lat="31.64062390" lon="34.93207410">
        <ele>335.00000</ele>
        <time>2010-01-01T00:50:21Z</time>
      </trkpt>
      <trkpt lat="31.64050280" lon="34.93212520">
        <ele>336.00000</ele>
        <time>2010-01-01T00:50:26Z</time>
      </trkpt>
      <trkpt lat="31.64038220" lon="34.93217350">
        <ele>336.00000</ele>
        <time>2010-01-01T00:50:31Z</time>
      </trkpt>
      <trkpt lat="31.64026170" lon="34.93222220">
        <ele>336.00000</ele>
        <time>2010-01-01T00:50:36Z</time>
      </trkpt>
      <trkpt lat="31.64014220" lon="34.93226970">
        <ele>336.00000</ele>
        <time>2010-01-01T00:50:42Z</time>
      </trkpt>
      <trkpt lat="31.64002460" lon="34.93231480">
        <ele>336.00000</ele>
        <time>2010-01-01T00:50:46Z</time>
      </trkpt>
      <trkpt lat="31.63991220" lon="34.93236150">
        <ele>336.00000</ele>
        <time>2010-01-01T00:50:51Z</time>
      </trkpt>
      <trkpt lat="31.63979990" lon="34.93240740">
        <ele>337.00000</ele>
        <time>2010-01-01T00:50:56Z</time>
      </trkpt>
      <trkpt lat="31.63968900" lon="34.93245370">
        <ele>337.00000</ele>
        <time>2010-01-01T00:51:01Z</time>
      </trkpt>
      <trkpt lat="31.63958500" lon="34.93250370">
        <ele>337.00000</ele>
        <time>2010-01-01T00:51:05Z</time>
      </trkpt>
      <trkpt lat="31.63948690" lon="34.93255420">
        <ele>338.00000</ele>
        <time>2010-01-01T00:51:09Z</time>
      </trkpt>
      <trkpt lat="31.63938950" lon="34.93260120">
        <ele>338.00000</ele>
        <time>2010-01-01T00:51:14Z</time>
      </trkpt>
      <trkpt lat="31.63929090" lon="34.93265730">
        <ele>339.00000</ele>
        <time>2010-01-01T00:51:18Z</time>
      </trkpt>
      <trkpt lat="31.63919010" lon="34.93271830">
        <ele>339.00000</ele>
        <time>2010-01-01T00:51:23Z</time>
      </trkpt>
      <trkpt lat="31.63908610" lon="34.93277660">
        <ele>339.00000</ele>
        <time>2010-01-01T00:51:27Z</time>
      </trkpt>
      <trkpt lat="31.63898690" lon="34.93284100">
        <ele>340.00000</ele>
        <time>2010-01-01T00:51:32Z</time>
      </trkpt>
      <trkpt lat="31.63888830" lon="34.93290930">
        <ele>340.00000</ele>
        <time>2010-01-01T00:51:36Z</time>
      </trkpt>
      <trkpt lat="31.63878760" lon="34.93298280">
        <ele>340.00000</ele>
        <time>2010-01-01T00:51:41Z</time>
      </trkpt>
      <trkpt lat="31.63868660" lon="34.93306170">
        <ele>341.00000</ele>
        <time>2010-01-01T00:51:46Z</time>
      </trkpt>
      <trkpt lat="31.63858490" lon="34.93314370">
        <ele>341.00000</ele>
        <time>2010-01-01T00:51:51Z</time>
      </trkpt>
      <trkpt lat="31.63848360" lon="34.93323070">
        <ele>342.00000</ele>
        <time>2010-01-01T00:51:56Z</time>
      </trkpt>
      <trkpt lat="31.63838530" lon="34.93331870">
        <ele>342.00000</ele>
        <time>2010-01-01T00:52:01Z</time>
      </trkpt>
      <trkpt lat="31.63829080" lon="34.93341260">
        <ele>343.00000</ele>
        <time>2010-01-01T00:52:06Z</time>
      </trkpt>
      <trkpt lat="31.63819340" lon="34.93350600">
        <ele>343.00000</ele>
        <time>2010-01-01T00:52:11Z</time>
      </trkpt>
      <trkpt lat="31.63809780" lon="34.93360100">
        <ele>342.00000</ele>
        <time>2010-01-01T00:52:16Z</time>
      </trkpt>
      <trkpt lat="31.63800750" lon="34.93369540">
        <ele>342.00000</ele>
        <time>2010-01-01T00:52:21Z</time>
      </trkpt>
      <trkpt lat="31.63791990" lon="34.93379390">
        <ele>343.00000</ele>
        <time>2010-01-01T00:52:26Z</time>
      </trkpt>
      <trkpt lat="31.63783270" lon="34.93389780">
        <ele>343.00000</ele>
        <time>2010-01-01T00:52:31Z</time>
      </trkpt>
      <trkpt lat="31.63775320" lon="34.93401090">
        <ele>344.00000</ele>
        <time>2010-01-01T00:52:36Z</time>
      </trkpt>
      <trkpt lat="31.63767850" lon="34.93413150">
        <ele>344.00000</ele>
        <time>2010-01-01T00:52:41Z</time>
      </trkpt>
      <trkpt lat="31.63763110" lon="34.93421900">
        <ele>345.00000</ele>
        <time>2010-01-01T00:52:44Z</time>
      </trkpt>
      <trkpt lat="31.63756180" lon="34.93435880">
        <ele>345.00000</ele>
        <time>2010-01-01T00:52:50Z</time>
      </trkpt>
      <trkpt lat="31.63751410" lon="34.93445380">
        <ele>345.00000</ele>
        <time>2010-01-01T00:52:53Z</time>
      </trkpt>
      <trkpt lat="31.63746830" lon="34.93454990">
        <ele>345.00000</ele>
        <time>2010-01-01T00:52:57Z</time>
      </trkpt>
      <trkpt lat="31.63742310" lon="34.93464500">
        <ele>346.00000</ele>
        <time>2010-01-01T00:53:01Z</time>
      </trkpt>
      <trkpt lat="31.63737670" lon="34.93474220">
        <ele>346.00000</ele>
        <time>2010-01-01T00:53:05Z</time>
      </trkpt>
      <trkpt lat="31.63733050" lon="34.93483910">
        <ele>347.00000</ele>
        <time>2010-01-01T00:53:08Z</time>
      </trkpt>
      <trkpt lat="31.63728520" lon="34.93493590">
        <ele>347.00000</ele>
        <time>2010-01-01T00:53:12Z</time>
      </trkpt>
      <trkpt lat="31.63723980" lon="34.93503050">
        <ele>347.00000</ele>
        <time>2010-01-01T00:53:16Z</time>
      </trkpt>
      <trkpt lat="31.63719400" lon="34.93512280">
        <ele>347.00000</ele>
        <time>2010-01-01T00:53:20Z</time>
      </trkpt>
      <trkpt lat="31.63714910" lon="34.93521340">
        <ele>347.00000</ele>
        <time>2010-01-01T00:53:23Z</time>
      </trkpt>
      <trkpt lat="31.63708530" lon="34.93534730">
        <ele>347.00000</ele>
        <time>2010-01-01T00:53:28Z</time>
      </trkpt>
      <trkpt lat="31.63702350" lon="34.93547620">
        <ele>346.00000</ele>
        <time>2010-01-01T00:53:33Z</time>
      </trkpt>
      <trkpt lat="31.63696230" lon="34.93560070">
        <ele>346.00000</ele>
        <time>2010-01-01T00:53:38Z</time>
      </trkpt>
      <trkpt lat="31.63689990" lon="34.93572220">
        <ele>346.00000</ele>
        <time>2010-01-01T00:53:43Z</time>
      </trkpt>
      <trkpt lat="31.63684400" lon="34.93584550">
        <ele>346.00000</ele>
        <time>2010-01-01T00:53:48Z</time>
      </trkpt>
      <trkpt lat="31.63679200" lon="34.93596150">
        <ele>346.00000</ele>
        <time>2010-01-01T00:53:52Z</time>
      </trkpt>
      <trkpt lat="31.63674570" lon="34.93606690">
        <ele>346.00000</ele>
        <time>2010-01-01T00:53:56Z</time>
      </trkpt>
      <trkpt lat="31.63675960" lon="34.93615270">
        <ele>347.00000</ele>
        <time>2010-01-01T00:53:59Z</time>
      </trkpt>
      <trkpt lat="31.63681720" lon="34.93606710">
        <ele>347.00000</ele>
        <time>2010-01-01T00:54:03Z</time>
      </trkpt>
      <trkpt lat="31.63684730" lon="34.93597680">
        <ele>347.00000</ele>
        <time>2010-01-01T00:54:06Z</time>
      </trkpt>
      <trkpt lat="31.63687510" lon="34.93585620">
        <ele>346.00000</ele>
        <time>2010-01-01T00:54:11Z</time>
      </trkpt>
      <trkpt lat="31.63691740" lon="34.93574440">
        <ele>346.00000</ele>
        <time>2010-01-01T00:54:15Z</time>
      </trkpt>
      <trkpt lat="31.63693130" lon="34.93563590">
        <ele>346.00000</ele>
        <time>2010-01-01T00:54:19Z</time>
      </trkpt>
      <trkpt lat="31.63685930" lon="34.93559060">
        <ele>346.00000</ele>
        <time>2010-01-01T00:54:22Z</time>
      </trkpt>
      <trkpt lat="31.63675630" lon="34.93565070">
        <ele>346.00000</ele>
        <time>2010-01-01T00:54:26Z</time>
      </trkpt>
      <trkpt lat="31.63666510" lon="34.93574390">
        <ele>346.00000</ele>
        <time>2010-01-01T00:54:31Z</time>
      </trkpt>
      <trkpt lat="31.63658910" lon="34.93580510">
        <ele>346.00000</ele>
        <time>2010-01-01T00:54:35Z</time>
      </trkpt>
      <trkpt lat="31.63648060" lon="34.93586260">
        <ele>346.00000</ele>
        <time>2010-01-01T00:54:40Z</time>
      </trkpt>
      <trkpt lat="31.63639000" lon="34.93589060">
        <ele>346.00000</ele>
        <time>2010-01-01T00:54:44Z</time>
      </trkpt>
      <trkpt lat="31.63629950" lon="34.93592290">
        <ele>347.00000</ele>
        <time>2010-01-01T00:54:47Z</time>
      </trkpt>
      <trkpt lat="31.63621510" lon="34.93597270">
        <ele>348.00000</ele>
        <time>2010-01-01T00:54:51Z</time>
      </trkpt>
      <trkpt lat="31.63611680" lon="34.93605300">
        <ele>348.00000</ele>
        <time>2010-01-01T00:54:56Z</time>
      </trkpt>
      <trkpt lat="31.63601160" lon="34.93611980">
        <ele>349.00000</ele>
        <time>2010-01-01T00:55:01Z</time>
      </trkpt>
      <trkpt lat="31.63592490" lon="34.93615170">
        <ele>350.00000</ele>
        <time>2010-01-01T00:55:04Z</time>
      </trkpt>
      <trkpt lat="31.63581000" lon="34.93616790">
        <ele>351.00000</ele>
        <time>2010-01-01T00:55:09Z</time>
      </trkpt>
      <trkpt lat="31.63569800" lon="34.93618430">
        <ele>352.00000</ele>
        <time>2010-01-01T00:55:13Z</time>
      </trkpt>
      <trkpt lat="31.63560950" lon="34.93616620">
        <ele>353.00000</ele>
        <time>2010-01-01T00:55:17Z</time>
      </trkpt>
      <trkpt lat="31.63551050" lon="34.93617460">
        <ele>353.00000</ele>
        <time>2010-01-01T00:55:21Z</time>
      </trkpt>
      <trkpt lat="31.63544420" lon="34.93625770">
        <ele>352.00000</ele>
        <time>2010-01-01T00:55:25Z</time>
      </trkpt>
      <trkpt lat="31.63539060" lon="34.93637670">
        <ele>352.00000</ele>
        <time>2010-01-01T00:55:29Z</time>
      </trkpt>
      <trkpt lat="31.63535220" lon="34.93647700">
        <ele>353.00000</ele>
        <time>2010-01-01T00:55:33Z</time>
      </trkpt>
      <trkpt lat="31.63531250" lon="34.93659300">
        <ele>353.00000</ele>
        <time>2010-01-01T00:55:37Z</time>
      </trkpt>
      <trkpt lat="31.63527330" lon="34.93672510">
        <ele>354.00000</ele>
        <time>2010-01-01T00:55:42Z</time>
      </trkpt>
      <trkpt lat="31.63524120" lon="34.93683030">
        <ele>355.00000</ele>
        <time>2010-01-01T00:55:46Z</time>
      </trkpt>
      <trkpt lat="31.63519500" lon="34.93692570">
        <ele>356.00000</ele>
        <time>2010-01-01T00:55:50Z</time>
      </trkpt>
      <trkpt lat="31.63513550" lon="34.93700810">
        <ele>356.00000</ele>
        <time>2010-01-01T00:55:53Z</time>
      </trkpt>
      <trkpt lat="31.63506770" lon="34.93708710">
        <ele>357.00000</ele>
        <time>2010-01-01T00:55:57Z</time>
      </trkpt>
      <trkpt lat="31.63500560" lon="34.93717260">
        <ele>357.00000</ele>
        <time>2010-01-01T00:56:01Z</time>
      </trkpt>
      <trkpt lat="31.63494390" lon="34.93726440">
        <ele>358.00000</ele>
        <time>2010-01-01T00:56:05Z</time>
      </trkpt>
      <trkpt lat="31.63488750" lon="34.93735260">
        <ele>359.00000</ele>
        <time>2010-01-01T00:56:09Z</time>
      </trkpt>
      <trkpt lat="31.63482990" lon="34.93743710">
        <ele>359.00000</ele>
        <time>2010-01-01T00:56:13Z</time>
      </trkpt>
      <trkpt lat="31.63476710" lon="34.93751770">
        <ele>359.00000</ele>
        <time>2010-01-01T00:56:16Z</time>
      </trkpt>
      <trkpt lat="31.63470420" lon="34.93761250">
        <ele>359.00000</ele>
        <time>2010-01-01T00:56:20Z</time>
      </trkpt>
      <trkpt lat="31.63464010" lon="34.93772830">
        <ele>359.00000</ele>
        <time>2010-01-01T00:56:25Z</time>
      </trkpt>
      <trkpt lat="31.63456830" lon="34.93783360">
        <ele>359.00000</ele>
        <time>2010-01-01T00:56:30Z</time>
      </trkpt>
      <trkpt lat="31.63449500" lon="34.93792340">
        <ele>360.00000</ele>
        <time>2010-01-01T00:56:34Z</time>
      </trkpt>
      <trkpt lat="31.63444760" lon="34.93801330">
        <ele>360.00000</ele>
        <time>2010-01-01T00:56:38Z</time>
      </trkpt>
      <trkpt lat="31.63440720" lon="34.93813870">
        <ele>361.00000</ele>
        <time>2010-01-01T00:56:42Z</time>
      </trkpt>
      <trkpt lat="31.63436640" lon="34.93825760">
        <ele>362.00000</ele>
        <time>2010-01-01T00:56:46Z</time>
      </trkpt>
      <trkpt lat="31.63433010" lon="34.93838230">
        <ele>362.00000</ele>
        <time>2010-01-01T00:56:51Z</time>
      </trkpt>
      <trkpt lat="31.63428990" lon="34.93847980">
        <ele>363.00000</ele>
        <time>2010-01-01T00:56:55Z</time>
      </trkpt>
      <trkpt lat="31.63424900" lon="34.93859640">
        <ele>363.00000</ele>
        <time>2010-01-01T00:56:59Z</time>
      </trkpt>
      <trkpt lat="31.63420490" lon="34.93870960">
        <ele>363.00000</ele>
        <time>2010-01-01T00:57:03Z</time>
      </trkpt>
      <trkpt lat="31.63414590" lon="34.93880370">
        <ele>364.00000</ele>
        <time>2010-01-01T00:57:07Z</time>
      </trkpt>
      <trkpt lat="31.63408040" lon="34.93889350">
        <ele>365.00000</ele>
        <time>2010-01-01T00:57:11Z</time>
      </trkpt>
      <trkpt lat="31.63402440" lon="34.93898780">
        <ele>366.00000</ele>
        <time>2010-01-01T00:57:15Z</time>
      </trkpt>
      <trkpt lat="31.63396760" lon="34.93908510">
        <ele>366.00000</ele>
        <time>2010-01-01T00:57:19Z</time>
      </trkpt>
      <trkpt lat="31.63391320" lon="34.93919600">
        <ele>367.00000</ele>
        <time>2010-01-01T00:57:24Z</time>
      </trkpt>
      <trkpt lat="31.63387240" lon="34.93930050">
        <ele>367.00000</ele>
        <time>2010-01-01T00:57:27Z</time>
      </trkpt>
      <trkpt lat="31.63382580" lon="34.93941940">
        <ele>367.00000</ele>
        <time>2010-01-01T00:57:32Z</time>
      </trkpt>
      <trkpt lat="31.63378350" lon="34.93954330">
        <ele>368.00000</ele>
        <time>2010-01-01T00:57:36Z</time>
      </trkpt>
      <trkpt lat="31.63375010" lon="34.93965300">
        <ele>368.00000</ele>
        <time>2010-01-01T00:57:40Z</time>
      </trkpt>
      <trkpt lat="31.63371170" lon="34.93977320">
        <ele>369.00000</ele>
        <time>2010-01-01T00:57:45Z</time>
      </trkpt>
      <trkpt lat="31.63367280" lon="34.93989640">
        <ele>369.00000</ele>
        <time>2010-01-01T00:57:49Z</time>
      </trkpt>
      <trkpt lat="31.63361740" lon="34.94001580">
        <ele>369.00000</ele>
        <time>2010-01-01T00:57:54Z</time>
      </trkpt>
      <trkpt lat="31.63354030" lon="34.94011370">
        <ele>370.00000</ele>
        <time>2010-01-01T00:57:58Z</time>
      </trkpt>
      <trkpt lat="31.63345880" lon="34.94019230">
        <ele>371.00000</ele>
        <time>2010-01-01T00:58:03Z</time>
      </trkpt>
      <trkpt lat="31.63337260" lon="34.94024810">
        <ele>371.00000</ele>
        <time>2010-01-01T00:58:07Z</time>
      </trkpt>
      <trkpt lat="31.63328060" lon="34.94031090">
        <ele>372.00000</ele>
        <time>2010-01-01T00:58:11Z</time>
      </trkpt>
      <trkpt lat="31.63318590" lon="34.94035760">
        <ele>373.00000</ele>
        <time>2010-01-01T00:58:15Z</time>
      </trkpt>
      <trkpt lat="31.63309120" lon="34.94041750">
        <ele>374.00000</ele>
        <time>2010-01-01T00:58:19Z</time>
      </trkpt>
      <trkpt lat="31.63300400" lon="34.94048580">
        <ele>374.00000</ele>
        <time>2010-01-01T00:58:23Z</time>
      </trkpt>
      <trkpt lat="31.63292380" lon="34.94057170">
        <ele>374.00000</ele>
        <time>2010-01-01T00:58:28Z</time>
      </trkpt>
      <trkpt lat="31.63285250" lon="34.94066460">
        <ele>375.00000</ele>
        <time>2010-01-01T00:58:32Z</time>
      </trkpt>
      <trkpt lat="31.63279280" lon="34.94075030">
        <ele>375.00000</ele>
        <time>2010-01-01T00:58:36Z</time>
      </trkpt>
      <trkpt lat="31.63273050" lon="34.94083680">
        <ele>375.00000</ele>
        <time>2010-01-01T00:58:40Z</time>
      </trkpt>
      <trkpt lat="31.63266430" lon="34.94091370">
        <ele>375.00000</ele>
        <time>2010-01-01T00:58:43Z</time>
      </trkpt>
      <trkpt lat="31.63257920" lon="34.94099610">
        <ele>375.00000</ele>
        <time>2010-01-01T00:58:48Z</time>
      </trkpt>
      <trkpt lat="31.63250310" lon="34.94105270">
        <ele>375.00000</ele>
        <time>2010-01-01T00:58:51Z</time>
      </trkpt>
      <trkpt lat="31.63240720" lon="34.94110990">
        <ele>375.00000</ele>
        <time>2010-01-01T00:58:56Z</time>
      </trkpt>
      <trkpt lat="31.63231740" lon="34.94118430">
        <ele>375.00000</ele>
        <time>2010-01-01T00:59:00Z</time>
      </trkpt>
      <trkpt lat="31.63223490" lon="34.94126620">
        <ele>376.00000</ele>
        <time>2010-01-01T00:59:05Z</time>
      </trkpt>
      <trkpt lat="31.63216380" lon="34.94135870">
        <ele>377.00000</ele>
        <time>2010-01-01T00:59:09Z</time>
      </trkpt>
      <trkpt lat="31.63209620" lon="34.94145510">
        <ele>377.00000</ele>
        <time>2010-01-01T00:59:13Z</time>
      </trkpt>
      <trkpt lat="31.63203770" lon="34.94157020">
        <ele>378.00000</ele>
        <time>2010-01-01T00:59:18Z</time>
      </trkpt>
      <trkpt lat="31.63199630" lon="34.94166610">
        <ele>378.00000</ele>
        <time>2010-01-01T00:59:21Z</time>
      </trkpt>
      <trkpt lat="31.63195710" lon="34.94175910">
        <ele>379.00000</ele>
        <time>2010-01-01T00:59:25Z</time>
      </trkpt>
      <trkpt lat="31.63189620" lon="34.94186460">
        <ele>380.00000</ele>
        <time>2010-01-01T00:59:29Z</time>
      </trkpt>
      <trkpt lat="31.63183050" lon="34.94197190">
        <ele>381.00000</ele>
        <time>2010-01-01T00:59:34Z</time>
      </trkpt>
      <trkpt lat="31.63175440" lon="34.94205680">
        <ele>381.00000</ele>
        <time>2010-01-01T00:59:38Z</time>
      </trkpt>
      <trkpt lat="31.63168100" lon="34.94213690">
        <ele>382.00000</ele>
        <time>2010-01-01T00:59:42Z</time>
      </trkpt>
      <trkpt lat="31.63160460" lon="34.94221880">
        <ele>382.00000</ele>
        <time>2010-01-01T00:59:46Z</time>
      </trkpt>
      <trkpt lat="31.63154440" lon="34.94230740">
        <ele>383.00000</ele>
        <time>2010-01-01T00:59:50Z</time>
      </trkpt>
      <trkpt lat="31.63150030" lon="34.94241820">
        <ele>384.00000</ele>
        <time>2010-01-01T00:59:54Z</time>
      </trkpt>
      <trkpt lat="31.63146410" lon="34.94253150">
        <ele>384.00000</ele>
        <time>2010-01-01T00:59:58Z</time>
      </trkpt>
      <trkpt lat="31.63142740" lon="34.94264760">
        <ele>384.00000</ele>
        <time>2010-01-01T01:00:02Z</time>
      </trkpt>
      <trkpt lat="31.63137960" lon="34.94275390">
        <ele>385.00000</ele>
        <time>2010-01-01T01:00:06Z</time>
      </trkpt>
      <trkpt lat="31.63132240" lon="34.94284390">
        <ele>385.00000</ele>
        <time>2010-01-01T01:00:10Z</time>
      </trkpt>
      <trkpt lat="31.63125730" lon="34.94292760">
        <ele>386.00000</ele>
        <time>2010-01-01T01:00:14Z</time>
      </trkpt>
      <trkpt lat="31.63118540" lon="34.94302380">
        <ele>387.00000</ele>
        <time>2010-01-01T01:00:19Z</time>
      </trkpt>
      <trkpt lat="31.63111220" lon="34.94311590">
        <ele>387.00000</ele>
        <time>2010-01-01T01:00:23Z</time>
      </trkpt>
      <trkpt lat="31.63104060" lon="34.94320850">
        <ele>388.00000</ele>
        <time>2010-01-01T01:00:27Z</time>
      </trkpt>
      <trkpt lat="31.63096870" lon="34.94330100">
        <ele>388.00000</ele>
        <time>2010-01-01T01:00:31Z</time>
      </trkpt>
      <trkpt lat="31.63090290" lon="34.94337420">
        <ele>388.00000</ele>
        <time>2010-01-01T01:00:35Z</time>
      </trkpt>
      <trkpt lat="31.63084230" lon="34.94345820">
        <ele>389.00000</ele>
        <time>2010-01-01T01:00:39Z</time>
      </trkpt>
      <trkpt lat="31.63079270" lon="34.94355110">
        <ele>390.00000</ele>
        <time>2010-01-01T01:00:42Z</time>
      </trkpt>
      <trkpt lat="31.63075280" lon="34.94365410">
        <ele>390.00000</ele>
        <time>2010-01-01T01:00:46Z</time>
      </trkpt>
      <trkpt lat="31.63071100" lon="34.94375310">
        <ele>391.00000</ele>
        <time>2010-01-01T01:00:50Z</time>
      </trkpt>
      <trkpt lat="31.63066400" lon="34.94385500">
        <ele>391.00000</ele>
        <time>2010-01-01T01:00:54Z</time>
      </trkpt>
      <trkpt lat="31.63061820" lon="34.94395220">
        <ele>391.00000</ele>
        <time>2010-01-01T01:00:58Z</time>
      </trkpt>
      <trkpt lat="31.63054550" lon="34.94404350">
        <ele>390.00000</ele>
        <time>2010-01-01T01:01:02Z</time>
      </trkpt>
      <trkpt lat="31.63051120" lon="34.94414870">
        <ele>390.00000</ele>
        <time>2010-01-01T01:01:06Z</time>
      </trkpt>
      <trkpt lat="31.63045840" lon="34.94423640">
        <ele>390.00000</ele>
        <time>2010-01-01T01:01:10Z</time>
      </trkpt>
      <trkpt lat="31.63038960" lon="34.94431480">
        <ele>389.00000</ele>
        <time>2010-01-01T01:01:13Z</time>
      </trkpt>
      <trkpt lat="31.63031430" lon="34.94437160">
        <ele>388.00000</ele>
        <time>2010-01-01T01:01:17Z</time>
      </trkpt>
      <trkpt lat="31.63024770" lon="34.94437010">
        <ele>387.00000</ele>
        <time>2010-01-01T01:01:20Z</time>
      </trkpt>
      <trkpt lat="31.63013320" lon="34.94436970">
        <ele>386.00000</ele>
        <time>2010-01-01T01:01:24Z</time>
      </trkpt>
      <trkpt lat="31.63003060" lon="34.94436010">
        <ele>384.00000</ele>
        <time>2010-01-01T01:01:28Z</time>
      </trkpt>
      <trkpt lat="31.62992090" lon="34.94435270">
        <ele>382.00000</ele>
        <time>2010-01-01T01:01:33Z</time>
      </trkpt>
      <trkpt lat="31.62982760" lon="34.94434120">
        <ele>381.00000</ele>
        <time>2010-01-01T01:01:37Z</time>
      </trkpt>
      <trkpt lat="31.62973040" lon="34.94433200">
        <ele>379.00000</ele>
        <time>2010-01-01T01:01:40Z</time>
      </trkpt>
      <trkpt lat="31.62961170" lon="34.94433510">
        <ele>378.00000</ele>
        <time>2010-01-01T01:01:45Z</time>
      </trkpt>
      <trkpt lat="31.62952070" lon="34.94438260">
        <ele>376.00000</ele>
        <time>2010-01-01T01:01:49Z</time>
      </trkpt>
      <trkpt lat="31.62940490" lon="34.94443860">
        <ele>374.00000</ele>
        <time>2010-01-01T01:01:54Z</time>
      </trkpt>
      <trkpt lat="31.62931000" lon="34.94445220">
        <ele>373.00000</ele>
        <time>2010-01-01T01:01:58Z</time>
      </trkpt>
      <trkpt lat="31.62917760" lon="34.94442040">
        <ele>372.00000</ele>
        <time>2010-01-01T01:02:03Z</time>
      </trkpt>
      <trkpt lat="31.62908420" lon="34.94433720">
        <ele>372.00000</ele>
        <time>2010-01-01T01:02:08Z</time>
      </trkpt>
      <trkpt lat="31.62900180" lon="34.94425710">
        <ele>372.00000</ele>
        <time>2010-01-01T01:02:12Z</time>
      </trkpt>
      <trkpt lat="31.62891880" lon="34.94417200">
        <ele>371.00000</ele>
        <time>2010-01-01T01:02:17Z</time>
      </trkpt>
      <trkpt lat="31.62882920" lon="34.94408310">
        <ele>371.00000</ele>
        <time>2010-01-01T01:02:22Z</time>
      </trkpt>
      <trkpt lat="31.62872890" lon="34.94398640">
        <ele>370.00000</ele>
        <time>2010-01-01T01:02:27Z</time>
      </trkpt>
      <trkpt lat="31.62865080" lon="34.94390030">
        <ele>369.00000</ele>
        <time>2010-01-01T01:02:31Z</time>
      </trkpt>
      <trkpt lat="31.62857510" lon="34.94380450">
        <ele>369.00000</ele>
        <time>2010-01-01T01:02:35Z</time>
      </trkpt>
      <trkpt lat="31.62850230" lon="34.94371100">
        <ele>370.00000</ele>
        <time>2010-01-01T01:02:40Z</time>
      </trkpt>
      <trkpt lat="31.62843050" lon="34.94362110">
        <ele>369.00000</ele>
        <time>2010-01-01T01:02:44Z</time>
      </trkpt>
      <trkpt lat="31.62835660" lon="34.94353740">
        <ele>368.00000</ele>
        <time>2010-01-01T01:02:48Z</time>
      </trkpt>
      <trkpt lat="31.62828060" lon="34.94345390">
        <ele>368.00000</ele>
        <time>2010-01-01T01:02:52Z</time>
      </trkpt>
      <trkpt lat="31.62819970" lon="34.94337060">
        <ele>368.00000</ele>
        <time>2010-01-01T01:02:57Z</time>
      </trkpt>
      <trkpt lat="31.62811670" lon="34.94329180">
        <ele>367.00000</ele>
        <time>2010-01-01T01:03:01Z</time>
      </trkpt>
      <trkpt lat="31.62804040" lon="34.94323130">
        <ele>366.00000</ele>
        <time>2010-01-01T01:03:04Z</time>
      </trkpt>
      <trkpt lat="31.62792450" lon="34.94313760">
        <ele>366.00000</ele>
        <time>2010-01-01T01:03:10Z</time>
      </trkpt>
      <trkpt lat="31.62783590" lon="34.94307020">
        <ele>365.00000</ele>
        <time>2010-01-01T01:03:14Z</time>
      </trkpt>
      <trkpt lat="31.62774970" lon="34.94299520">
        <ele>364.00000</ele>
        <time>2010-01-01T01:03:19Z</time>
      </trkpt>
      <trkpt lat="31.62765860" lon="34.94291380">
        <ele>363.00000</ele>
        <time>2010-01-01T01:03:23Z</time>
      </trkpt>
      <trkpt lat="31.62758510" lon="34.94284590">
        <ele>362.00000</ele>
        <time>2010-01-01T01:03:27Z</time>
      </trkpt>
      <trkpt lat="31.62749190" lon="34.94277930">
        <ele>360.00000</ele>
        <time>2010-01-01T01:03:31Z</time>
      </trkpt>
      <trkpt lat="31.62739200" lon="34.94270500">
        <ele>361.00000</ele>
        <time>2010-01-01T01:03:36Z</time>
      </trkpt>
      <trkpt lat="31.62728260" lon="34.94263060">
        <ele>361.00000</ele>
        <time>2010-01-01T01:03:41Z</time>
      </trkpt>
      <trkpt lat="31.62717430" lon="34.94255980">
        <ele>360.00000</ele>
        <time>2010-01-01T01:03:46Z</time>
      </trkpt>
      <trkpt lat="31.62707690" lon="34.94247650">
        <ele>360.00000</ele>
        <time>2010-01-01T01:03:51Z</time>
      </trkpt>
      <trkpt lat="31.62698150" lon="34.94239580">
        <ele>360.00000</ele>
        <time>2010-01-01T01:03:56Z</time>
      </trkpt>
      <trkpt lat="31.62688340" lon="34.94231040">
        <ele>359.00000</ele>
        <time>2010-01-01T01:04:01Z</time>
      </trkpt>
      <trkpt lat="31.62677960" lon="34.94221270">
        <ele>358.00000</ele>
        <time>2010-01-01T01:04:06Z</time>
      </trkpt>
      <trkpt lat="31.62668140" lon="34.94210670">
        <ele>355.00000</ele>
        <time>2010-01-01T01:04:11Z</time>
      </trkpt>
      <trkpt lat="31.62659640" lon="34.94200790">
        <ele>354.00000</ele>
        <time>2010-01-01T01:04:16Z</time>
      </trkpt>
      <trkpt lat="31.62651880" lon="34.94193340">
        <ele>352.00000</ele>
        <time>2010-01-01T01:04:20Z</time>
      </trkpt>
      <trkpt lat="31.62641960" lon="34.94186170">
        <ele>350.00000</ele>
        <time>2010-01-01T01:04:25Z</time>
      </trkpt>
      <trkpt lat="31.62633520" lon="34.94180760">
        <ele>349.00000</ele>
        <time>2010-01-01T01:04:28Z</time>
      </trkpt>
      <trkpt lat="31.62627500" lon="34.94170870">
        <ele>348.00000</ele>
        <time>2010-01-01T01:04:33Z</time>
      </trkpt>
      <trkpt lat="31.62620300" lon="34.94158420">
        <ele>347.00000</ele>
        <time>2010-01-01T01:04:38Z</time>
      </trkpt>
      <trkpt lat="31.62614840" lon="34.94148960">
        <ele>346.00000</ele>
        <time>2010-01-01T01:04:42Z</time>
      </trkpt>
      <trkpt lat="31.62607890" lon="34.94139300">
        <ele>345.00000</ele>
        <time>2010-01-01T01:04:46Z</time>
      </trkpt>
      <trkpt lat="31.62599570" lon="34.94129310">
        <ele>346.00000</ele>
        <time>2010-01-01T01:04:51Z</time>
      </trkpt>
      <trkpt lat="31.62590670" lon="34.94119430">
        <ele>346.00000</ele>
        <time>2010-01-01T01:04:56Z</time>
      </trkpt>
      <trkpt lat="31.62584110" lon="34.94110410">
        <ele>346.00000</ele>
        <time>2010-01-01T01:05:00Z</time>
      </trkpt>
      <trkpt lat="31.62577490" lon="34.94098370">
        <ele>346.00000</ele>
        <time>2010-01-01T01:05:05Z</time>
      </trkpt>
      <trkpt lat="31.62572840" lon="34.94089460">
        <ele>345.00000</ele>
        <time>2010-01-01T01:05:08Z</time>
      </trkpt>
      <trkpt lat="31.62568110" lon="34.94078740">
        <ele>345.00000</ele>
        <time>2010-01-01T01:05:12Z</time>
      </trkpt>
      <trkpt lat="31.62565290" lon="34.94069410">
        <ele>344.00000</ele>
        <time>2010-01-01T01:05:16Z</time>
      </trkpt>
      <trkpt lat="31.62562870" lon="34.94059550">
        <ele>344.00000</ele>
        <time>2010-01-01T01:05:19Z</time>
      </trkpt>
      <trkpt lat="31.62557680" lon="34.94048150">
        <ele>343.00000</ele>
        <time>2010-01-01T01:05:24Z</time>
      </trkpt>
      <trkpt lat="31.62554780" lon="34.94037800">
        <ele>342.00000</ele>
        <time>2010-01-01T01:05:27Z</time>
      </trkpt>
      <trkpt lat="31.62551360" lon="34.94028000">
        <ele>342.00000</ele>
        <time>2010-01-01T01:05:31Z</time>
      </trkpt>
      <trkpt lat="31.62547110" lon="34.94016160">
        <ele>341.00000</ele>
        <time>2010-01-01T01:05:35Z</time>
      </trkpt>
      <trkpt lat="31.62542010" lon="34.94002530">
        <ele>341.00000</ele>
        <time>2010-01-01T01:05:40Z</time>
      </trkpt>
      <trkpt lat="31.62540200" lon="34.93989220">
        <ele>340.00000</ele>
        <time>2010-01-01T01:05:45Z</time>
      </trkpt>
      <trkpt lat="31.62539140" lon="34.93976890">
        <ele>339.00000</ele>
        <time>2010-01-01T01:05:49Z</time>
      </trkpt>
      <trkpt lat="31.62536700" lon="34.93965780">
        <ele>339.00000</ele>
        <time>2010-01-01T01:05:53Z</time>
      </trkpt>
      <trkpt lat="31.62532290" lon="34.93954720">
        <ele>339.00000</ele>
        <time>2010-01-01T01:05:57Z</time>
      </trkpt>
      <trkpt lat="31.62524370" lon="34.93941680">
        <ele>338.00000</ele>
        <time>2010-01-01T01:06:03Z</time>
      </trkpt>
      <trkpt lat="31.62518550" lon="34.93931460">
        <ele>338.00000</ele>
        <time>2010-01-01T01:06:07Z</time>
      </trkpt>
      <trkpt lat="31.62514200" lon="34.93920320">
        <ele>338.00000</ele>
        <time>2010-01-01T01:06:11Z</time>
      </trkpt>
      <trkpt lat="31.62510810" lon="34.93909670">
        <ele>337.00000</ele>
        <time>2010-01-01T01:06:15Z</time>
      </trkpt>
      <trkpt lat="31.62507210" lon="34.93898790">
        <ele>337.00000</ele>
        <time>2010-01-01T01:06:19Z</time>
      </trkpt>
      <trkpt lat="31.62503320" lon="34.93887610">
        <ele>336.00000</ele>
        <time>2010-01-01T01:06:23Z</time>
      </trkpt>
      <trkpt lat="31.62499750" lon="34.93877080">
        <ele>336.00000</ele>
        <time>2010-01-01T01:06:27Z</time>
      </trkpt>
      <trkpt lat="31.62495260" lon="34.93866540">
        <ele>336.00000</ele>
        <time>2010-01-01T01:06:31Z</time>
      </trkpt>
      <trkpt lat="31.62491240" lon="34.93855630">
        <ele>336.00000</ele>
        <time>2010-01-01T01:06:35Z</time>
      </trkpt>
      <trkpt lat="31.62486550" lon="34.93845780">
        <ele>335.00000</ele>
        <time>2010-01-01T01:06:39Z</time>
      </trkpt>
      <trkpt lat="31.62482050" lon="34.93835940">
        <ele>335.00000</ele>
        <time>2010-01-01T01:06:43Z</time>
      </trkpt>
      <trkpt lat="31.62478270" lon="34.93825710">
        <ele>334.00000</ele>
        <time>2010-01-01T01:06:46Z</time>
      </trkpt>
      <trkpt lat="31.62474610" lon="34.93815540">
        <ele>333.00000</ele>
        <time>2010-01-01T01:06:50Z</time>
      </trkpt>
      <trkpt lat="31.62468940" lon="34.93801800">
        <ele>331.00000</ele>
        <time>2010-01-01T01:06:55Z</time>
      </trkpt>
      <trkpt lat="31.62464450" lon="34.93789140">
        <ele>331.00000</ele>
        <time>2010-01-01T01:07:00Z</time>
      </trkpt>
      <trkpt lat="31.62459510" lon="34.93779010">
        <ele>331.00000</ele>
        <time>2010-01-01T01:07:04Z</time>
      </trkpt>
      <trkpt lat="31.62453180" lon="34.93767630">
        <ele>331.00000</ele>
        <time>2010-01-01T01:07:09Z</time>
      </trkpt>
      <trkpt lat="31.62447870" lon="34.93757210">
        <ele>332.00000</ele>
        <time>2010-01-01T01:07:13Z</time>
      </trkpt>
      <trkpt lat="31.62443430" lon="34.93746900">
        <ele>332.00000</ele>
        <time>2010-01-01T01:07:17Z</time>
      </trkpt>
      <trkpt lat="31.62439860" lon="34.93735670">
        <ele>332.00000</ele>
        <time>2010-01-01T01:07:21Z</time>
      </trkpt>
      <trkpt lat="31.62436600" lon="34.93723280">
        <ele>332.00000</ele>
        <time>2010-01-01T01:07:25Z</time>
      </trkpt>
      <trkpt lat="31.62433240" lon="34.93709900">
        <ele>332.00000</ele>
        <time>2010-01-01T01:07:30Z</time>
      </trkpt>
      <trkpt lat="31.62429730" lon="34.93696190">
        <ele>331.00000</ele>
        <time>2010-01-01T01:07:35Z</time>
      </trkpt>
      <trkpt lat="31.62425850" lon="34.93680820">
        <ele>330.00000</ele>
        <time>2010-01-01T01:07:40Z</time>
      </trkpt>
      <trkpt lat="31.62423130" lon="34.93669430">
        <ele>329.00000</ele>
        <time>2010-01-01T01:07:44Z</time>
      </trkpt>
      <trkpt lat="31.62420670" lon="34.93658420">
        <ele>328.00000</ele>
        <time>2010-01-01T01:07:48Z</time>
      </trkpt>
      <trkpt lat="31.62416680" lon="34.93644610">
        <ele>327.00000</ele>
        <time>2010-01-01T01:07:53Z</time>
      </trkpt>
      <trkpt lat="31.62414350" lon="34.93632310">
        <ele>326.00000</ele>
        <time>2010-01-01T01:07:57Z</time>
      </trkpt>
      <trkpt lat="31.62412680" lon="34.93619680">
        <ele>326.00000</ele>
        <time>2010-01-01T01:08:02Z</time>
      </trkpt>
      <trkpt lat="31.62409320" lon="34.93604910">
        <ele>325.00000</ele>
        <time>2010-01-01T01:08:07Z</time>
      </trkpt>
      <trkpt lat="31.62406740" lon="34.93594430">
        <ele>325.00000</ele>
        <time>2010-01-01T01:08:11Z</time>
      </trkpt>
      <trkpt lat="31.62403690" lon="34.93583730">
        <ele>324.00000</ele>
        <time>2010-01-01T01:08:15Z</time>
      </trkpt>
      <trkpt lat="31.62400580" lon="34.93572680">
        <ele>323.00000</ele>
        <time>2010-01-01T01:08:19Z</time>
      </trkpt>
      <trkpt lat="31.62398230" lon="34.93561360">
        <ele>322.00000</ele>
        <time>2010-01-01T01:08:23Z</time>
      </trkpt>
      <trkpt lat="31.62396700" lon="34.93550160">
        <ele>322.00000</ele>
        <time>2010-01-01T01:08:26Z</time>
      </trkpt>
      <trkpt lat="31.62395040" lon="34.93538840">
        <ele>321.00000</ele>
        <time>2010-01-01T01:08:30Z</time>
      </trkpt>
      <trkpt lat="31.62393150" lon="34.93527180">
        <ele>321.00000</ele>
        <time>2010-01-01T01:08:34Z</time>
      </trkpt>
      <trkpt lat="31.62391590" lon="34.93515290">
        <ele>321.00000</ele>
        <time>2010-01-01T01:08:38Z</time>
      </trkpt>
      <trkpt lat="31.62391240" lon="34.93502930">
        <ele>321.00000</ele>
        <time>2010-01-01T01:08:43Z</time>
      </trkpt>
      <trkpt lat="31.62391310" lon="34.93490120">
        <ele>321.00000</ele>
        <time>2010-01-01T01:08:47Z</time>
      </trkpt>
      <trkpt lat="31.62391380" lon="34.93477580">
        <ele>320.00000</ele>
        <time>2010-01-01T01:08:51Z</time>
      </trkpt>
      <trkpt lat="31.62391070" lon="34.93466240">
        <ele>320.00000</ele>
        <time>2010-01-01T01:08:55Z</time>
      </trkpt>
      <trkpt lat="31.62389730" lon="34.93451590">
        <ele>319.00000</ele>
        <time>2010-01-01T01:09:00Z</time>
      </trkpt>
      <trkpt lat="31.62386750" lon="34.93440840">
        <ele>319.00000</ele>
        <time>2010-01-01T01:09:04Z</time>
      </trkpt>
      <trkpt lat="31.62382530" lon="34.93431640">
        <ele>319.00000</ele>
        <time>2010-01-01T01:09:08Z</time>
      </trkpt>
      <trkpt lat="31.62377930" lon="34.93421510">
        <ele>319.00000</ele>
        <time>2010-01-01T01:09:12Z</time>
      </trkpt>
      <trkpt lat="31.62372170" lon="34.93409750">
        <ele>318.00000</ele>
        <time>2010-01-01T01:09:16Z</time>
      </trkpt>
      <trkpt lat="31.62367260" lon="34.93397760">
        <ele>318.00000</ele>
        <time>2010-01-01T01:09:21Z</time>
      </trkpt>
      <trkpt lat="31.62363050" lon="34.93385050">
        <ele>317.00000</ele>
        <time>2010-01-01T01:09:25Z</time>
      </trkpt>
      <trkpt lat="31.62359700" lon="34.93371400">
        <ele>316.00000</ele>
        <time>2010-01-01T01:09:30Z</time>
      </trkpt>
      <trkpt lat="31.62356060" lon="34.93356940">
        <ele>316.00000</ele>
        <time>2010-01-01T01:09:35Z</time>
      </trkpt>
      <trkpt lat="31.62356170" lon="34.93341500">
        <ele>316.00000</ele>
        <time>2010-01-01T01:09:41Z</time>
      </trkpt>
      <trkpt lat="31.62356980" lon="34.93327100">
        <ele>316.00000</ele>
        <time>2010-01-01T01:09:46Z</time>
      </trkpt>
      <trkpt lat="31.62356240" lon="34.93312540">
        <ele>316.00000</ele>
        <time>2010-01-01T01:09:51Z</time>
      </trkpt>
      <trkpt lat="31.62353840" lon="34.93301830">
        <ele>316.00000</ele>
        <time>2010-01-01T01:09:54Z</time>
      </trkpt>
      <trkpt lat="31.62350460" lon="34.93291240">
        <ele>315.00000</ele>
        <time>2010-01-01T01:09:58Z</time>
      </trkpt>
      <trkpt lat="31.62347000" lon="34.93281200">
        <ele>314.00000</ele>
        <time>2010-01-01T01:10:02Z</time>
      </trkpt>
      <trkpt lat="31.62340890" lon="34.93267330">
        <ele>312.00000</ele>
        <time>2010-01-01T01:10:07Z</time>
      </trkpt>
      <trkpt lat="31.62338440" lon="34.93251560">
        <ele>311.00000</ele>
        <time>2010-01-01T01:10:13Z</time>
      </trkpt>
      <trkpt lat="31.62337570" lon="34.93239850">
        <ele>311.00000</ele>
        <time>2010-01-01T01:10:17Z</time>
      </trkpt>
      <trkpt lat="31.62335920" lon="34.93226090">
        <ele>311.00000</ele>
        <time>2010-01-01T01:10:21Z</time>
      </trkpt>
      <trkpt lat="31.62333150" lon="34.93214830">
        <ele>311.00000</ele>
        <time>2010-01-01T01:10:25Z</time>
      </trkpt>
      <trkpt lat="31.62326100" lon="34.93206610">
        <ele>311.00000</ele>
        <time>2010-01-01T01:10:29Z</time>
      </trkpt>
      <trkpt lat="31.62317550" lon="34.93202790">
        <ele>311.00000</ele>
        <time>2010-01-01T01:10:33Z</time>
      </trkpt>
      <trkpt lat="31.62310950" lon="34.93210500">
        <ele>311.00000</ele>
        <time>2010-01-01T01:10:37Z</time>
      </trkpt>
      <trkpt lat="31.62305430" lon="34.93219700">
        <ele>311.00000</ele>
        <time>2010-01-01T01:10:41Z</time>
      </trkpt>
      <trkpt lat="31.62301220" lon="34.93229460">
        <ele>310.00000</ele>
        <time>2010-01-01T01:10:44Z</time>
      </trkpt>
      <trkpt lat="31.62295670" lon="34.93238160">
        <ele>310.00000</ele>
        <time>2010-01-01T01:10:48Z</time>
      </trkpt>
      <trkpt lat="31.62289310" lon="34.93246000">
        <ele>311.00000</ele>
        <time>2010-01-01T01:10:52Z</time>
      </trkpt>
      <trkpt lat="31.62284520" lon="34.93253590">
        <ele>311.00000</ele>
        <time>2010-01-01T01:10:55Z</time>
      </trkpt>
      <trkpt lat="31.62280700" lon="34.93259690">
        <ele>312.00000</ele>
        <time>2010-01-01T01:10:57Z</time>
      </trkpt>
      <trkpt lat="31.62272310" lon="34.93265180">
        <ele>312.00000</ele>
        <time>2010-01-01T01:11:01Z</time>
      </trkpt>
      <trkpt lat="31.62265250" lon="34.93271720">
        <ele>313.00000</ele>
        <time>2010-01-01T01:11:05Z</time>
      </trkpt>
      <trkpt lat="31.62258400" lon="34.93280170">
        <ele>313.00000</ele>
        <time>2010-01-01T01:11:09Z</time>
      </trkpt>
      <trkpt lat="31.62251170" lon="34.93288990">
        <ele>314.00000</ele>
        <time>2010-01-01T01:11:13Z</time>
      </trkpt>
      <trkpt lat="31.62244580" lon="34.93297000">
        <ele>315.00000</ele>
        <time>2010-01-01T01:11:17Z</time>
      </trkpt>
      <trkpt lat="31.62238410" lon="34.93304590">
        <ele>315.00000</ele>
        <time>2010-01-01T01:11:20Z</time>
      </trkpt>
      <trkpt lat="31.62231950" lon="34.93312200">
        <ele>316.00000</ele>
        <time>2010-01-01T01:11:24Z</time>
      </trkpt>
      <trkpt lat="31.62225630" lon="34.93320260">
        <ele>316.00000</ele>
        <time>2010-01-01T01:11:28Z</time>
      </trkpt>
      <trkpt lat="31.62218690" lon="34.93329340">
        <ele>317.00000</ele>
        <time>2010-01-01T01:11:32Z</time>
      </trkpt>
      <trkpt lat="31.62211370" lon="34.93338640">
        <ele>317.00000</ele>
        <time>2010-01-01T01:11:36Z</time>
      </trkpt>
      <trkpt lat="31.62204190" lon="34.93347750">
        <ele>318.00000</ele>
        <time>2010-01-01T01:11:41Z</time>
      </trkpt>
      <trkpt lat="31.62197500" lon="34.93356890">
        <ele>319.00000</ele>
        <time>2010-01-01T01:11:45Z</time>
      </trkpt>
      <trkpt lat="31.62190880" lon="34.93365760">
        <ele>320.00000</ele>
        <time>2010-01-01T01:11:49Z</time>
      </trkpt>
      <trkpt lat="31.62184640" lon="34.93374560">
        <ele>321.00000</ele>
        <time>2010-01-01T01:11:53Z</time>
      </trkpt>
      <trkpt lat="31.62178420" lon="34.93383760">
        <ele>323.00000</ele>
        <time>2010-01-01T01:11:57Z</time>
      </trkpt>
      <trkpt lat="31.62172120" lon="34.93393240">
        <ele>324.00000</ele>
        <time>2010-01-01T01:12:01Z</time>
      </trkpt>
      <trkpt lat="31.62166220" lon="34.93402470">
        <ele>325.00000</ele>
        <time>2010-01-01T01:12:05Z</time>
      </trkpt>
      <trkpt lat="31.62161610" lon="34.93412950">
        <ele>325.00000</ele>
        <time>2010-01-01T01:12:09Z</time>
      </trkpt>
      <trkpt lat="31.62157910" lon="34.93424520">
        <ele>326.00000</ele>
        <time>2010-01-01T01:12:13Z</time>
      </trkpt>
      <trkpt lat="31.62154480" lon="34.93436000">
        <ele>327.00000</ele>
        <time>2010-01-01T01:12:17Z</time>
      </trkpt>
      <trkpt lat="31.62150770" lon="34.93447490">
        <ele>328.00000</ele>
        <time>2010-01-01T01:12:21Z</time>
      </trkpt>
      <trkpt lat="31.62148350" lon="34.93457700">
        <ele>329.00000</ele>
        <time>2010-01-01T01:12:25Z</time>
      </trkpt>
      <trkpt lat="31.62144960" lon="34.93469170">
        <ele>329.00000</ele>
        <time>2010-01-01T01:12:29Z</time>
      </trkpt>
      <trkpt lat="31.62141660" lon="34.93480850">
        <ele>330.00000</ele>
        <time>2010-01-01T01:12:33Z</time>
      </trkpt>
      <trkpt lat="31.62139490" lon="34.93493040">
        <ele>330.00000</ele>
        <time>2010-01-01T01:12:37Z</time>
      </trkpt>
      <trkpt lat="31.62136110" lon="34.93503090">
        <ele>331.00000</ele>
        <time>2010-01-01T01:12:41Z</time>
      </trkpt>
      <trkpt lat="31.62132090" lon="34.93513950">
        <ele>331.00000</ele>
        <time>2010-01-01T01:12:45Z</time>
      </trkpt>
      <trkpt lat="31.62129800" lon="34.93524230">
        <ele>332.00000</ele>
        <time>2010-01-01T01:12:49Z</time>
      </trkpt>
      <trkpt lat="31.62126540" lon="34.93536240">
        <ele>332.00000</ele>
        <time>2010-01-01T01:12:53Z</time>
      </trkpt>
      <trkpt lat="31.62124490" lon="34.93546990">
        <ele>332.00000</ele>
        <time>2010-01-01T01:12:57Z</time>
      </trkpt>
      <trkpt lat="31.62121700" lon="34.93559220">
        <ele>332.00000</ele>
        <time>2010-01-01T01:13:01Z</time>
      </trkpt>
      <trkpt lat="31.62120030" lon="34.93569940">
        <ele>333.00000</ele>
        <time>2010-01-01T01:13:05Z</time>
      </trkpt>
      <trkpt lat="31.62118170" lon="34.93582660">
        <ele>334.00000</ele>
        <time>2010-01-01T01:13:09Z</time>
      </trkpt>
      <trkpt lat="31.62117210" lon="34.93593630">
        <ele>335.00000</ele>
        <time>2010-01-01T01:13:13Z</time>
      </trkpt>
      <trkpt lat="31.62115950" lon="34.93604560">
        <ele>336.00000</ele>
        <time>2010-01-01T01:13:17Z</time>
      </trkpt>
      <trkpt lat="31.62115020" lon="34.93615280">
        <ele>337.00000</ele>
        <time>2010-01-01T01:13:20Z</time>
      </trkpt>
      <trkpt lat="31.62113820" lon="34.93626420">
        <ele>337.00000</ele>
        <time>2010-01-01T01:13:24Z</time>
      </trkpt>
      <trkpt lat="31.62112760" lon="34.93637750">
        <ele>338.00000</ele>
        <time>2010-01-01T01:13:28Z</time>
      </trkpt>
      <trkpt lat="31.62111780" lon="34.93649610">
        <ele>338.00000</ele>
        <time>2010-01-01T01:13:32Z</time>
      </trkpt>
      <trkpt lat="31.62110950" lon="34.93660760">
        <ele>338.00000</ele>
        <time>2010-01-01T01:13:36Z</time>
      </trkpt>
      <trkpt lat="31.62110330" lon="34.93671980">
        <ele>339.00000</ele>
        <time>2010-01-01T01:13:40Z</time>
      </trkpt>
      <trkpt lat="31.62109930" lon="34.93684310">
        <ele>340.00000</ele>
        <time>2010-01-01T01:13:44Z</time>
      </trkpt>
      <trkpt lat="31.62110070" lon="34.93695700">
        <ele>341.00000</ele>
        <time>2010-01-01T01:13:48Z</time>
      </trkpt>
      <trkpt lat="31.62109910" lon="34.93706960">
        <ele>342.00000</ele>
        <time>2010-01-01T01:13:52Z</time>
      </trkpt>
      <trkpt lat="31.62110570" lon="34.93717870">
        <ele>343.00000</ele>
        <time>2010-01-01T01:13:55Z</time>
      </trkpt>
      <trkpt lat="31.62111120" lon="34.93728870">
        <ele>344.00000</ele>
        <time>2010-01-01T01:13:59Z</time>
      </trkpt>
      <trkpt lat="31.62111690" lon="34.93740690">
        <ele>345.00000</ele>
        <time>2010-01-01T01:14:03Z</time>
      </trkpt>
      <trkpt lat="31.62111570" lon="34.93752830">
        <ele>346.00000</ele>
        <time>2010-01-01T01:14:07Z</time>
      </trkpt>
      <trkpt lat="31.62110870" lon="34.93764670">
        <ele>347.00000</ele>
        <time>2010-01-01T01:14:11Z</time>
      </trkpt>
      <trkpt lat="31.62109720" lon="34.93776540">
        <ele>347.00000</ele>
        <time>2010-01-01T01:14:16Z</time>
      </trkpt>
      <trkpt lat="31.62108970" lon="34.93788280">
        <ele>348.00000</ele>
        <time>2010-01-01T01:14:20Z</time>
      </trkpt>
      <trkpt lat="31.62109190" lon="34.93800500">
        <ele>348.00000</ele>
        <time>2010-01-01T01:14:24Z</time>
      </trkpt>
      <trkpt lat="31.62110330" lon="34.93811980">
        <ele>349.00000</ele>
        <time>2010-01-01T01:14:28Z</time>
      </trkpt>
      <trkpt lat="31.62112440" lon="34.93823450">
        <ele>349.00000</ele>
        <time>2010-01-01T01:14:32Z</time>
      </trkpt>
      <trkpt lat="31.62114030" lon="34.93834610">
        <ele>350.00000</ele>
        <time>2010-01-01T01:14:36Z</time>
      </trkpt>
      <trkpt lat="31.62116050" lon="34.93846410">
        <ele>351.00000</ele>
        <time>2010-01-01T01:14:40Z</time>
      </trkpt>
      <trkpt lat="31.62118000" lon="34.93857960">
        <ele>352.00000</ele>
        <time>2010-01-01T01:14:44Z</time>
      </trkpt>
      <trkpt lat="31.62120420" lon="34.93869630">
        <ele>353.00000</ele>
        <time>2010-01-01T01:14:48Z</time>
      </trkpt>
      <trkpt lat="31.62122980" lon="34.93881480">
        <ele>354.00000</ele>
        <time>2010-01-01T01:14:52Z</time>
      </trkpt>
      <trkpt lat="31.62124380" lon="34.93892660">
        <ele>354.00000</ele>
        <time>2010-01-01T01:14:56Z</time>
      </trkpt>
      <trkpt lat="31.62126690" lon="34.93903430">
        <ele>354.00000</ele>
        <time>2010-01-01T01:15:00Z</time>
      </trkpt>
      <trkpt lat="31.62128230" lon="34.93914730">
        <ele>354.00000</ele>
        <time>2010-01-01T01:15:03Z</time>
      </trkpt>
      <trkpt lat="31.62129760" lon="34.93925850">
        <ele>355.00000</ele>
        <time>2010-01-01T01:15:07Z</time>
      </trkpt>
      <trkpt lat="31.62130470" lon="34.93937110">
        <ele>355.00000</ele>
        <time>2010-01-01T01:15:11Z</time>
      </trkpt>
      <trkpt lat="31.62131070" lon="34.93948820">
        <ele>355.00000</ele>
        <time>2010-01-01T01:15:15Z</time>
      </trkpt>
      <trkpt lat="31.62131560" lon="34.93960460">
        <ele>356.00000</ele>
        <time>2010-01-01T01:15:19Z</time>
      </trkpt>
      <trkpt lat="31.62131980" lon="34.93972130">
        <ele>356.00000</ele>
        <time>2010-01-01T01:15:23Z</time>
      </trkpt>
      <trkpt lat="31.62132060" lon="34.93983210">
        <ele>357.00000</ele>
        <time>2010-01-01T01:15:27Z</time>
      </trkpt>
      <trkpt lat="31.62132330" lon="34.93994050">
        <ele>357.00000</ele>
        <time>2010-01-01T01:15:31Z</time>
      </trkpt>
      <trkpt lat="31.62131920" lon="34.94005110">
        <ele>358.00000</ele>
        <time>2010-01-01T01:15:34Z</time>
      </trkpt>
      <trkpt lat="31.62131050" lon="34.94016570">
        <ele>359.00000</ele>
        <time>2010-01-01T01:15:38Z</time>
      </trkpt>
      <trkpt lat="31.62129360" lon="34.94028060">
        <ele>360.00000</ele>
        <time>2010-01-01T01:15:42Z</time>
      </trkpt>
      <trkpt lat="31.62127770" lon="34.94039570">
        <ele>360.00000</ele>
        <time>2010-01-01T01:15:46Z</time>
      </trkpt>
      <trkpt lat="31.62125490" lon="34.94049720">
        <ele>361.00000</ele>
        <time>2010-01-01T01:15:50Z</time>
      </trkpt>
      <trkpt lat="31.62122550" lon="34.94061850">
        <ele>361.00000</ele>
        <time>2010-01-01T01:15:54Z</time>
      </trkpt>
      <trkpt lat="31.62120510" lon="34.94073470">
        <ele>362.00000</ele>
        <time>2010-01-01T01:15:58Z</time>
      </trkpt>
      <trkpt lat="31.62118780" lon="34.94085580">
        <ele>362.00000</ele>
        <time>2010-01-01T01:16:02Z</time>
      </trkpt>
      <trkpt lat="31.62115840" lon="34.94095870">
        <ele>362.00000</ele>
        <time>2010-01-01T01:16:06Z</time>
      </trkpt>
      <trkpt lat="31.62112710" lon="34.94105880">
        <ele>362.00000</ele>
        <time>2010-01-01T01:16:10Z</time>
      </trkpt>
      <trkpt lat="31.62109390" lon="34.94117860">
        <ele>362.00000</ele>
        <time>2010-01-01T01:16:14Z</time>
      </trkpt>
      <trkpt lat="31.62106510" lon="34.94129390">
        <ele>363.00000</ele>
        <time>2010-01-01T01:16:18Z</time>
      </trkpt>
      <trkpt lat="31.62104470" lon="34.94139800">
        <ele>364.00000</ele>
        <time>2010-01-01T01:16:22Z</time>
      </trkpt>
      <trkpt lat="31.62102350" lon="34.94150370">
        <ele>365.00000</ele>
        <time>2010-01-01T01:16:25Z</time>
      </trkpt>
      <trkpt lat="31.62100020" lon="34.94160890">
        <ele>366.00000</ele>
        <time>2010-01-01T01:16:29Z</time>
      </trkpt>
      <trkpt lat="31.62097610" lon="34.94172830">
        <ele>367.00000</ele>
        <time>2010-01-01T01:16:33Z</time>
      </trkpt>
      <trkpt lat="31.62094480" lon="34.94184050">
        <ele>368.00000</ele>
        <time>2010-01-01T01:16:37Z</time>
      </trkpt>
      <trkpt lat="31.62091670" lon="34.94194960">
        <ele>369.00000</ele>
        <time>2010-01-01T01:16:41Z</time>
      </trkpt>
      <trkpt lat="31.62088880" lon="34.94205530">
        <ele>369.00000</ele>
        <time>2010-01-01T01:16:45Z</time>
      </trkpt>
      <trkpt lat="31.62085980" lon="34.94216820">
        <ele>369.00000</ele>
        <time>2010-01-01T01:16:49Z</time>
      </trkpt>
      <trkpt lat="31.62083580" lon="34.94228530">
        <ele>369.00000</ele>
        <time>2010-01-01T01:16:53Z</time>
      </trkpt>
      <trkpt lat="31.62080690" lon="34.94240120">
        <ele>369.00000</ele>
        <time>2010-01-01T01:16:57Z</time>
      </trkpt>
      <trkpt lat="31.62079200" lon="34.94250710">
        <ele>370.00000</ele>
        <time>2010-01-01T01:17:01Z</time>
      </trkpt>
      <trkpt lat="31.62077780" lon="34.94262090">
        <ele>371.00000</ele>
        <time>2010-01-01T01:17:05Z</time>
      </trkpt>
      <trkpt lat="31.62076920" lon="34.94274490">
        <ele>373.00000</ele>
        <time>2010-01-01T01:17:09Z</time>
      </trkpt>
      <trkpt lat="31.62075800" lon="34.94286440">
        <ele>374.00000</ele>
        <time>2010-01-01T01:17:13Z</time>
      </trkpt>
      <trkpt lat="31.62074050" lon="34.94296780">
        <ele>375.00000</ele>
        <time>2010-01-01T01:17:17Z</time>
      </trkpt>
      <trkpt lat="31.62072290" lon="34.94306890">
        <ele>376.00000</ele>
        <time>2010-01-01T01:17:20Z</time>
      </trkpt>
      <trkpt lat="31.62069850" lon="34.94318820">
        <ele>376.00000</ele>
        <time>2010-01-01T01:17:24Z</time>
      </trkpt>
      <trkpt lat="31.62067350" lon="34.94330740">
        <ele>376.00000</ele>
        <time>2010-01-01T01:17:29Z</time>
      </trkpt>
      <trkpt lat="31.62065720" lon="34.94342810">
        <ele>377.00000</ele>
        <time>2010-01-01T01:17:33Z</time>
      </trkpt>
      <trkpt lat="31.62063820" lon="34.94355330">
        <ele>378.00000</ele>
        <time>2010-01-01T01:17:37Z</time>
      </trkpt>
      <trkpt lat="31.62061320" lon="34.94366800">
        <ele>378.00000</ele>
        <time>2010-01-01T01:17:41Z</time>
      </trkpt>
      <trkpt lat="31.62058990" lon="34.94378750">
        <ele>378.00000</ele>
        <time>2010-01-01T01:17:45Z</time>
      </trkpt>
      <trkpt lat="31.62057540" lon="34.94389460">
        <ele>379.00000</ele>
        <time>2010-01-01T01:17:49Z</time>
      </trkpt>
      <trkpt lat="31.62057020" lon="34.94401810">
        <ele>379.00000</ele>
        <time>2010-01-01T01:17:53Z</time>
      </trkpt>
      <trkpt lat="31.61982140" lon="34.94411940">
        <ele>386.00000</ele>
        <time>2010-01-01T01:18:23Z</time>
      </trkpt>
      <trkpt lat="31.61910880" lon="34.94424810">
        <ele>380.00000</ele>
        <time>2010-01-01T01:18:52Z</time>
      </trkpt>
      <trkpt lat="31.61888950" lon="34.94474170">
        <ele>374.00000</ele>
        <time>2010-01-01T01:19:11Z</time>
      </trkpt>
      <trkpt lat="31.61852410" lon="34.94480600">
        <ele>367.00000</ele>
        <time>2010-01-01T01:19:26Z</time>
      </trkpt>
      <trkpt lat="31.61815860" lon="34.94512790">
        <ele>368.00000</ele>
        <time>2010-01-01T01:19:44Z</time>
      </trkpt>
      <trkpt lat="31.61740940" lon="34.94527810">
        <ele>362.00000</ele>
        <time>2010-01-01T01:20:15Z</time>
      </trkpt>
      <trkpt lat="31.61766530" lon="34.94497770">
        <ele>360.00000</ele>
        <time>2010-01-01T01:20:29Z</time>
      </trkpt>
      <trkpt lat="31.61671510" lon="34.94499920">
        <ele>346.00000</ele>
        <time>2010-01-01T01:21:07Z</time>
      </trkpt>
      <trkpt lat="31.61638620" lon="34.94544980">
        <ele>343.00000</ele>
        <time>2010-01-01T01:21:27Z</time>
      </trkpt>
      <trkpt lat="31.61640440" lon="34.94643680">
        <ele>343.00000</ele>
        <time>2010-01-01T01:22:01Z</time>
      </trkpt>
      <trkpt lat="31.61648670" lon="34.94703760">
        <ele>342.00000</ele>
        <time>2010-01-01T01:22:22Z</time>
      </trkpt>
      <trkpt lat="31.61662370" lon="34.94737020">
        <ele>341.00000</ele>
        <time>2010-01-01T01:22:34Z</time>
      </trkpt>
      <trkpt lat="31.61655980" lon="34.94763850">
        <ele>338.00000</ele>
        <time>2010-01-01T01:22:44Z</time>
      </trkpt>
      <trkpt lat="31.61651410" lon="34.94740240">
        <ele>338.00000</ele>
        <time>2010-01-01T01:22:52Z</time>
      </trkpt>
      <trkpt lat="31.61636790" lon="34.94719860">
        <ele>337.00000</ele>
        <time>2010-01-01T01:23:01Z</time>
      </trkpt>
      <trkpt lat="31.61627650" lon="34.94740240">
        <ele>334.00000</ele>
        <time>2010-01-01T01:23:09Z</time>
      </trkpt>
      <trkpt lat="31.61644100" lon="34.94796030">
        <ele>334.00000</ele>
        <time>2010-01-01T01:23:29Z</time>
      </trkpt>
      <trkpt lat="31.61645010" lon="34.94819640">
        <ele>332.00000</ele>
        <time>2010-01-01T01:23:37Z</time>
      </trkpt>
      <trkpt lat="31.61626740" lon="34.94841090">
        <ele>331.00000</ele>
        <time>2010-01-01T01:23:48Z</time>
      </trkpt>
      <trkpt lat="31.61598420" lon="34.94837880">
        <ele>331.00000</ele>
        <time>2010-01-01T01:23:59Z</time>
      </trkpt>
      <trkpt lat="31.61572830" lon="34.94831440">
        <ele>330.00000</ele>
        <time>2010-01-01T01:24:10Z</time>
      </trkpt>
      <trkpt lat="31.61526240" lon="34.94836800">
        <ele>330.00000</ele>
        <time>2010-01-01T01:24:28Z</time>
      </trkpt>
      <trkpt lat="31.61486040" lon="34.94875430">
        <ele>334.00000</ele>
        <time>2010-01-01T01:24:49Z</time>
      </trkpt>
      <trkpt lat="31.61470500" lon="34.94908690">
        <ele>337.00000</ele>
        <time>2010-01-01T01:25:02Z</time>
      </trkpt>
      <trkpt lat="31.61436700" lon="34.94951600">
        <ele>340.00000</ele>
        <time>2010-01-01T01:25:22Z</time>
      </trkpt>
      <trkpt lat="31.61404720" lon="34.94989150">
        <ele>340.00000</ele>
        <time>2010-01-01T01:25:40Z</time>
      </trkpt>
      <trkpt lat="31.61376400" lon="34.95048160">
        <ele>342.00000</ele>
        <time>2010-01-01T01:26:03Z</time>
      </trkpt>
      <trkpt lat="31.61387360" lon="34.95135060">
        <ele>345.00000</ele>
        <time>2010-01-01T01:26:33Z</time>
      </trkpt>
      <trkpt lat="31.61412940" lon="34.95177980">
        <ele>346.00000</ele>
        <time>2010-01-01T01:26:51Z</time>
      </trkpt>
      <trkpt lat="31.61465020" lon="34.95211240">
        <ele>347.00000</ele>
        <time>2010-01-01T01:27:15Z</time>
      </trkpt>
      <trkpt lat="31.61481470" lon="34.95267030">
        <ele>351.00000</ele>
        <time>2010-01-01T01:27:35Z</time>
      </trkpt>
      <trkpt lat="31.61504310" lon="34.95321750">
        <ele>358.00000</ele>
        <time>2010-01-01T01:27:56Z</time>
      </trkpt>
      <trkpt lat="31.61507960" lon="34.95343200">
        <ele>361.00000</ele>
        <time>2010-01-01T01:28:03Z</time>
      </trkpt>
      <trkpt lat="31.61486950" lon="34.95352860">
        <ele>362.00000</ele>
        <time>2010-01-01T01:28:12Z</time>
      </trkpt>
      <trkpt lat="31.61462280" lon="34.95343200">
        <ele>360.00000</ele>
        <time>2010-01-01T01:28:22Z</time>
      </trkpt>
      <trkpt lat="31.61449490" lon="34.95333550">
        <ele>359.00000</ele>
        <time>2010-01-01T01:28:29Z</time>
      </trkpt>
      <trkpt lat="31.61429390" lon="34.95339980">
        <ele>360.00000</ele>
        <time>2010-01-01T01:28:37Z</time>
      </trkpt>
      <trkpt lat="31.61418430" lon="34.95375390">
        <ele>363.00000</ele>
        <time>2010-01-01T01:28:50Z</time>
      </trkpt>
      <trkpt lat="31.61400150" lon="34.95379680">
        <ele>363.00000</ele>
        <time>2010-01-01T01:28:57Z</time>
      </trkpt>
      <trkpt lat="31.61377310" lon="34.95402210">
        <ele>363.00000</ele>
        <time>2010-01-01T01:29:09Z</time>
      </trkpt>
      <trkpt lat="31.61382790" lon="34.95445130">
        <ele>363.00000</ele>
        <time>2010-01-01T01:29:24Z</time>
      </trkpt>
      <trkpt lat="31.61403810" lon="34.95491260">
        <ele>361.00000</ele>
        <time>2010-01-01T01:29:42Z</time>
      </trkpt>
      <trkpt lat="31.61433960" lon="34.95517010">
        <ele>364.00000</ele>
        <time>2010-01-01T01:29:57Z</time>
      </trkpt>
      <trkpt lat="31.61463200" lon="34.95528810">
        <ele>368.00000</ele>
        <time>2010-01-01T01:30:09Z</time>
      </trkpt>
      <trkpt lat="31.61491520" lon="34.95562070">
        <ele>372.00000</ele>
        <time>2010-01-01T01:30:25Z</time>
      </trkpt>
      <trkpt lat="31.61508880" lon="34.95585680">
        <ele>373.00000</ele>
        <time>2010-01-01T01:30:36Z</time>
      </trkpt>
      <trkpt lat="31.61550910" lon="34.95599620">
        <ele>377.00000</ele>
        <time>2010-01-01T01:30:53Z</time>
      </trkpt>
      <trkpt lat="31.61595680" lon="34.95632880">
        <ele>378.00000</ele>
        <time>2010-01-01T01:31:14Z</time>
      </trkpt>
      <trkpt lat="31.61673330" lon="34.95650050">
        <ele>384.00000</ele>
        <time>2010-01-01T01:31:46Z</time>
      </trkpt>
      <trkpt lat="31.61698920" lon="34.95667210">
        <ele>384.00000</ele>
        <time>2010-01-01T01:31:58Z</time>
      </trkpt>
      <trkpt lat="31.61733630" lon="34.95685450">
        <ele>384.00000</ele>
        <time>2010-01-01T01:32:13Z</time>
      </trkpt>
      <trkpt lat="31.61751910" lon="34.95744460">
        <ele>379.00000</ele>
        <time>2010-01-01T01:32:34Z</time>
      </trkpt>
      <trkpt lat="31.61772920" lon="34.95775580">
        <ele>380.00000</ele>
        <time>2010-01-01T01:32:48Z</time>
      </trkpt>
      <trkpt lat="31.61777490" lon="34.95810980">
        <ele>379.00000</ele>
        <time>2010-01-01T01:33:00Z</time>
      </trkpt>
      <trkpt lat="31.61771090" lon="34.95833510">
        <ele>377.00000</ele>
        <time>2010-01-01T01:33:08Z</time>
      </trkpt>
      <trkpt lat="31.61750080" lon="34.95841020">
        <ele>374.00000</ele>
        <time>2010-01-01T01:33:17Z</time>
      </trkpt>
      <trkpt lat="31.61728150" lon="34.95875350">
        <ele>371.00000</ele>
        <time>2010-01-01T01:33:32Z</time>
      </trkpt>
      <trkpt lat="31.61728150" lon="34.95900030">
        <ele>370.00000</ele>
        <time>2010-01-01T01:33:40Z</time>
      </trkpt>
      <trkpt lat="31.61757390" lon="34.95923630">
        <ele>374.00000</ele>
        <time>2010-01-01T01:33:54Z</time>
      </trkpt>
      <trkpt lat="31.61795760" lon="34.95976200">
        <ele>375.00000</ele>
        <time>2010-01-01T01:34:18Z</time>
      </trkpt>
      <trkpt lat="31.61892610" lon="34.96058820">
        <ele>378.00000</ele>
        <time>2010-01-01T01:35:06Z</time>
      </trkpt>
      <trkpt lat="31.61903570" lon="34.96079200">
        <ele>377.00000</ele>
        <time>2010-01-01T01:35:14Z</time>
      </trkpt>
      <trkpt lat="31.61925500" lon="34.96096370">
        <ele>376.00000</ele>
        <time>2010-01-01T01:35:25Z</time>
      </trkpt>
      <trkpt lat="31.61951990" lon="34.96111390">
        <ele>376.00000</ele>
        <time>2010-01-01T01:35:36Z</time>
      </trkpt>
      <trkpt lat="31.62036960" lon="34.96089930">
        <ele>381.00000</ele>
        <time>2010-01-01T01:36:11Z</time>
      </trkpt>
      <trkpt lat="31.62046090" lon="34.96099590">
        <ele>381.00000</ele>
        <time>2010-01-01T01:36:16Z</time>
      </trkpt>
      <trkpt lat="31.62027820" lon="34.96147870">
        <ele>380.00000</ele>
        <time>2010-01-01T01:36:34Z</time>
      </trkpt>
      <trkpt lat="31.62013200" lon="34.96244430">
        <ele>382.00000</ele>
        <time>2010-01-01T01:37:08Z</time>
      </trkpt>
      <trkpt lat="31.62049750" lon="34.96333470">
        <ele>386.00000</ele>
        <time>2010-01-01T01:37:41Z</time>
      </trkpt>
      <trkpt lat="31.62088120" lon="34.96375320">
        <ele>391.00000</ele>
        <time>2010-01-01T01:38:02Z</time>
      </trkpt>
      <trkpt lat="31.62144760" lon="34.96436470">
        <ele>395.00000</ele>
        <time>2010-01-01T01:38:33Z</time>
      </trkpt>
      <trkpt lat="31.62177650" lon="34.96463290">
        <ele>397.00000</ele>
        <time>2010-01-01T01:38:49Z</time>
      </trkpt>
      <trkpt lat="31.62240690" lon="34.96508350">
        <ele>401.00000</ele>
        <time>2010-01-01T01:39:19Z</time>
      </trkpt>
      <trkpt lat="31.62279060" lon="34.96526590">
        <ele>405.00000</ele>
        <time>2010-01-01T01:39:35Z</time>
      </trkpt>
      <trkpt lat="31.62290020" lon="34.96548050">
        <ele>406.00000</ele>
        <time>2010-01-01T01:39:44Z</time>
      </trkpt>
      <trkpt lat="31.62298240" lon="34.96566290">
        <ele>407.00000</ele>
        <time>2010-01-01T01:39:51Z</time>
      </trkpt>
      <trkpt lat="31.62295050" lon="34.96582920">
        <ele>407.00000</ele>
        <time>2010-01-01T01:39:57Z</time>
      </trkpt>
      <trkpt lat="31.62295100" lon="34.96592380">
        <ele>407.00000</ele>
        <time>2010-01-01T01:40:00Z</time>
      </trkpt>
      <trkpt lat="31.62288190" lon="34.96621540">
        <ele>406.00000</ele>
        <time>2010-01-01T01:40:10Z</time>
      </trkpt>
      <trkpt lat="31.62288650" lon="34.96644070">
        <ele>406.00000</ele>
        <time>2010-01-01T01:40:18Z</time>
      </trkpt>
      <trkpt lat="31.62299160" lon="34.96656950">
        <ele>406.00000</ele>
        <time>2010-01-01T01:40:24Z</time>
      </trkpt>
      <trkpt lat="31.62312400" lon="34.96668210">
        <ele>406.00000</ele>
        <time>2010-01-01T01:40:30Z</time>
      </trkpt>
      <trkpt lat="31.62369960" lon="34.96703620">
        <ele>406.00000</ele>
        <time>2010-01-01T01:40:56Z</time>
      </trkpt>
      <trkpt lat="31.62427510" lon="34.96699860">
        <ele>405.00000</ele>
        <time>2010-01-01T01:41:19Z</time>
      </trkpt>
      <trkpt lat="31.62474110" lon="34.96706840">
        <ele>400.00000</ele>
        <time>2010-01-01T01:41:38Z</time>
      </trkpt>
      <trkpt lat="31.62499230" lon="34.96709520">
        <ele>397.00000</ele>
        <time>2010-01-01T01:41:48Z</time>
      </trkpt>
      <trkpt lat="31.62535770" lon="34.96688600">
        <ele>397.00000</ele>
        <time>2010-01-01T01:42:05Z</time>
      </trkpt>
      <trkpt lat="31.62586020" lon="34.96636030">
        <ele>395.00000</ele>
        <time>2010-01-01T01:42:32Z</time>
      </trkpt>
      <trkpt lat="31.62627580" lon="34.96593110">
        <ele>389.00000</ele>
        <time>2010-01-01T01:42:54Z</time>
      </trkpt>
      <trkpt lat="31.62653620" lon="34.96546440">
        <ele>388.00000</ele>
        <time>2010-01-01T01:43:13Z</time>
      </trkpt>
      <trkpt lat="31.62669150" lon="34.96530890">
        <ele>386.00000</ele>
        <time>2010-01-01T01:43:21Z</time>
      </trkpt>
      <trkpt lat="31.62689250" lon="34.96463830">
        <ele>383.00000</ele>
        <time>2010-01-01T01:43:45Z</time>
      </trkpt>
      <trkpt lat="31.62708430" lon="34.96433790">
        <ele>380.00000</ele>
        <time>2010-01-01T01:43:58Z</time>
      </trkpt>
      <trkpt lat="31.62696550" lon="34.96403210">
        <ele>380.00000</ele>
        <time>2010-01-01T01:44:09Z</time>
      </trkpt>
      <trkpt lat="31.62683770" lon="34.96386050">
        <ele>380.00000</ele>
        <time>2010-01-01T01:44:17Z</time>
      </trkpt>
      <trkpt lat="31.62687880" lon="34.96374780">
        <ele>378.00000</ele>
        <time>2010-01-01T01:44:21Z</time>
      </trkpt>
      <trkpt lat="31.62722590" lon="34.96382290">
        <ele>376.00000</ele>
        <time>2010-01-01T01:44:35Z</time>
      </trkpt>
      <trkpt lat="31.62735840" lon="34.96404290">
        <ele>376.00000</ele>
        <time>2010-01-01T01:44:45Z</time>
      </trkpt>
      <trkpt lat="31.62744970" lon="34.96434860">
        <ele>376.00000</ele>
        <time>2010-01-01T01:44:56Z</time>
      </trkpt>
      <trkpt lat="31.62734470" lon="34.96491190">
        <ele>373.00000</ele>
        <time>2010-01-01T01:45:15Z</time>
      </trkpt>
      <trkpt lat="31.62714830" lon="34.96522840">
        <ele>376.00000</ele>
        <time>2010-01-01T01:45:29Z</time>
      </trkpt>
      <trkpt lat="31.62697470" lon="34.96580240">
        <ele>374.00000</ele>
        <time>2010-01-01T01:45:49Z</time>
      </trkpt>
      <trkpt lat="31.62679650" lon="34.96624230">
        <ele>375.00000</ele>
        <time>2010-01-01T01:46:06Z</time>
      </trkpt>
      <trkpt lat="31.62680110" lon="34.96646220">
        <ele>374.00000</ele>
        <time>2010-01-01T01:46:14Z</time>
      </trkpt>
      <trkpt lat="31.62689250" lon="34.96658560">
        <ele>373.00000</ele>
        <time>2010-01-01T01:46:19Z</time>
      </trkpt>
      <trkpt lat="31.62694720" lon="34.96676990">
        <ele>374.00000</ele>
        <time>2010-01-01T01:46:26Z</time>
      </trkpt>
      <trkpt lat="31.62695620" lon="34.96691050">
        <ele>375.00000</ele>
        <time>2010-01-01T01:46:31Z</time>
      </trkpt>
      <trkpt lat="31.62695180" lon="34.96704690">
        <ele>376.00000</ele>
        <time>2010-01-01T01:46:35Z</time>
      </trkpt>
      <trkpt lat="31.62689250" lon="34.96722930">
        <ele>375.00000</ele>
        <time>2010-01-01T01:46:42Z</time>
      </trkpt>
      <trkpt lat="31.62676000" lon="34.96747070">
        <ele>376.00000</ele>
        <time>2010-01-01T01:46:52Z</time>
      </trkpt>
      <trkpt lat="31.62664580" lon="34.96763160">
        <ele>377.00000</ele>
        <time>2010-01-01T01:46:59Z</time>
      </trkpt>
      <trkpt lat="31.62659560" lon="34.96772820">
        <ele>378.00000</ele>
        <time>2010-01-01T01:47:03Z</time>
      </trkpt>
      <trkpt lat="31.62654890" lon="34.96781550">
        <ele>379.00000</ele>
        <time>2010-01-01T01:47:06Z</time>
      </trkpt>
      <trkpt lat="31.62647610" lon="34.96792740">
        <ele>379.00000</ele>
        <time>2010-01-01T01:47:11Z</time>
      </trkpt>
      <trkpt lat="31.62640030" lon="34.96803600">
        <ele>379.00000</ele>
        <time>2010-01-01T01:47:16Z</time>
      </trkpt>
      <trkpt lat="31.62632990" lon="34.96814480">
        <ele>379.00000</ele>
        <time>2010-01-01T01:47:20Z</time>
      </trkpt>
      <trkpt lat="31.62625330" lon="34.96825130">
        <ele>379.00000</ele>
        <time>2010-01-01T01:47:25Z</time>
      </trkpt>
      <trkpt lat="31.62617580" lon="34.96835570">
        <ele>379.00000</ele>
        <time>2010-01-01T01:47:30Z</time>
      </trkpt>
      <trkpt lat="31.62610230" lon="34.96846100">
        <ele>380.00000</ele>
        <time>2010-01-01T01:47:35Z</time>
      </trkpt>
      <trkpt lat="31.62603200" lon="34.96856510">
        <ele>381.00000</ele>
        <time>2010-01-01T01:47:39Z</time>
      </trkpt>
      <trkpt lat="31.62596350" lon="34.96867080">
        <ele>381.00000</ele>
        <time>2010-01-01T01:47:44Z</time>
      </trkpt>
      <trkpt lat="31.62589390" lon="34.96877790">
        <ele>381.00000</ele>
        <time>2010-01-01T01:47:48Z</time>
      </trkpt>
      <trkpt lat="31.62582730" lon="34.96888260">
        <ele>381.00000</ele>
        <time>2010-01-01T01:47:53Z</time>
      </trkpt>
      <trkpt lat="31.62576530" lon="34.96898430">
        <ele>381.00000</ele>
        <time>2010-01-01T01:47:57Z</time>
      </trkpt>
      <trkpt lat="31.62570870" lon="34.96908900">
        <ele>381.00000</ele>
        <time>2010-01-01T01:48:01Z</time>
      </trkpt>
      <trkpt lat="31.62565450" lon="34.96919410">
        <ele>381.00000</ele>
        <time>2010-01-01T01:48:05Z</time>
      </trkpt>
      <trkpt lat="31.62559970" lon="34.96929650">
        <ele>381.00000</ele>
        <time>2010-01-01T01:48:09Z</time>
      </trkpt>
      <trkpt lat="31.62554810" lon="34.96941780">
        <ele>381.00000</ele>
        <time>2010-01-01T01:48:14Z</time>
      </trkpt>
      <trkpt lat="31.62551240" lon="34.96954190">
        <ele>381.00000</ele>
        <time>2010-01-01T01:48:19Z</time>
      </trkpt>
      <trkpt lat="31.62549070" lon="34.96967000">
        <ele>382.00000</ele>
        <time>2010-01-01T01:48:23Z</time>
      </trkpt>
      <trkpt lat="31.62547280" lon="34.96980000">
        <ele>382.00000</ele>
        <time>2010-01-01T01:48:28Z</time>
      </trkpt>
      <trkpt lat="31.62547030" lon="34.96993300">
        <ele>382.00000</ele>
        <time>2010-01-01T01:48:32Z</time>
      </trkpt>
      <trkpt lat="31.62548420" lon="34.97006070">
        <ele>382.00000</ele>
        <time>2010-01-01T01:48:36Z</time>
      </trkpt>
      <trkpt lat="31.62551060" lon="34.97018800">
        <ele>382.00000</ele>
        <time>2010-01-01T01:48:41Z</time>
      </trkpt>
      <trkpt lat="31.62555120" lon="34.97031090">
        <ele>381.00000</ele>
        <time>2010-01-01T01:48:45Z</time>
      </trkpt>
      <trkpt lat="31.62560100" lon="34.97042850">
        <ele>382.00000</ele>
        <time>2010-01-01T01:48:50Z</time>
      </trkpt>
      <trkpt lat="31.62565130" lon="34.97053910">
        <ele>383.00000</ele>
        <time>2010-01-01T01:48:54Z</time>
      </trkpt>
      <trkpt lat="31.62570610" lon="34.97064370">
        <ele>383.00000</ele>
        <time>2010-01-01T01:48:58Z</time>
      </trkpt>
      <trkpt lat="31.62576420" lon="34.97074460">
        <ele>384.00000</ele>
        <time>2010-01-01T01:49:02Z</time>
      </trkpt>
      <trkpt lat="31.62582220" lon="34.97084010">
        <ele>384.00000</ele>
        <time>2010-01-01T01:49:06Z</time>
      </trkpt>
      <trkpt lat="31.62588940" lon="34.97093070">
        <ele>384.00000</ele>
        <time>2010-01-01T01:49:11Z</time>
      </trkpt>
      <trkpt lat="31.62596680" lon="34.97102520">
        <ele>384.00000</ele>
        <time>2010-01-01T01:49:15Z</time>
      </trkpt>
      <trkpt lat="31.62603900" lon="34.97110790">
        <ele>385.00000</ele>
        <time>2010-01-01T01:49:19Z</time>
      </trkpt>
      <trkpt lat="31.62610840" lon="34.97119090">
        <ele>385.00000</ele>
        <time>2010-01-01T01:49:23Z</time>
      </trkpt>
      <trkpt lat="31.62618070" lon="34.97127310">
        <ele>385.00000</ele>
        <time>2010-01-01T01:49:27Z</time>
      </trkpt>
      <trkpt lat="31.62625160" lon="34.97136660">
        <ele>384.00000</ele>
        <time>2010-01-01T01:49:31Z</time>
      </trkpt>
      <trkpt lat="31.62631940" lon="34.97147010">
        <ele>385.00000</ele>
        <time>2010-01-01T01:49:36Z</time>
      </trkpt>
      <trkpt lat="31.62637700" lon="34.97157680">
        <ele>385.00000</ele>
        <time>2010-01-01T01:49:40Z</time>
      </trkpt>
      <trkpt lat="31.62643240" lon="34.97169360">
        <ele>386.00000</ele>
        <time>2010-01-01T01:49:45Z</time>
      </trkpt>
      <trkpt lat="31.62647940" lon="34.97181520">
        <ele>387.00000</ele>
        <time>2010-01-01T01:49:49Z</time>
      </trkpt>
      <trkpt lat="31.62652140" lon="34.97193730">
        <ele>387.00000</ele>
        <time>2010-01-01T01:49:54Z</time>
      </trkpt>
      <trkpt lat="31.62656400" lon="34.97205970">
        <ele>388.00000</ele>
        <time>2010-01-01T01:49:58Z</time>
      </trkpt>
      <trkpt lat="31.62659660" lon="34.97218560">
        <ele>389.00000</ele>
        <time>2010-01-01T01:50:03Z</time>
      </trkpt>
      <trkpt lat="31.62662830" lon="34.97231240">
        <ele>389.00000</ele>
        <time>2010-01-01T01:50:07Z</time>
      </trkpt>
      <trkpt lat="31.62666260" lon="34.97242630">
        <ele>389.00000</ele>
        <time>2010-01-01T01:50:11Z</time>
      </trkpt>
      <trkpt lat="31.62669890" lon="34.97254510">
        <ele>390.00000</ele>
        <time>2010-01-01T01:50:16Z</time>
      </trkpt>
      <trkpt lat="31.62673940" lon="34.97266930">
        <ele>390.00000</ele>
        <time>2010-01-01T01:50:20Z</time>
      </trkpt>
      <trkpt lat="31.62678120" lon="34.97279840">
        <ele>391.00000</ele>
        <time>2010-01-01T01:50:25Z</time>
      </trkpt>
      <trkpt lat="31.62681400" lon="34.97289700">
        <ele>391.00000</ele>
        <time>2010-01-01T01:50:28Z</time>
      </trkpt>
      <trkpt lat="31.62684920" lon="34.97299690">
        <ele>390.00000</ele>
        <time>2010-01-01T01:50:32Z</time>
      </trkpt>
      <trkpt lat="31.62688390" lon="34.97309820">
        <ele>390.00000</ele>
        <time>2010-01-01T01:50:36Z</time>
      </trkpt>
      <trkpt lat="31.62692490" lon="34.97319770">
        <ele>390.00000</ele>
        <time>2010-01-01T01:50:40Z</time>
      </trkpt>
      <trkpt lat="31.62696900" lon="34.97329960">
        <ele>390.00000</ele>
        <time>2010-01-01T01:50:44Z</time>
      </trkpt>
      <trkpt lat="31.62701890" lon="34.97340050">
        <ele>390.00000</ele>
        <time>2010-01-01T01:50:48Z</time>
      </trkpt>
      <trkpt lat="31.62707400" lon="34.97350690">
        <ele>389.00000</ele>
        <time>2010-01-01T01:50:52Z</time>
      </trkpt>
      <trkpt lat="31.62713320" lon="34.97361570">
        <ele>390.00000</ele>
        <time>2010-01-01T01:50:56Z</time>
      </trkpt>
      <trkpt lat="31.62719450" lon="34.97372190">
        <ele>390.00000</ele>
        <time>2010-01-01T01:51:01Z</time>
      </trkpt>
      <trkpt lat="31.62725610" lon="34.97382670">
        <ele>390.00000</ele>
        <time>2010-01-01T01:51:05Z</time>
      </trkpt>
      <trkpt lat="31.62731680" lon="34.97393020">
        <ele>391.00000</ele>
        <time>2010-01-01T01:51:09Z</time>
      </trkpt>
      <trkpt lat="31.62737820" lon="34.97402930">
        <ele>391.00000</ele>
        <time>2010-01-01T01:51:13Z</time>
      </trkpt>
      <trkpt lat="31.62744760" lon="34.97411820">
        <ele>391.00000</ele>
        <time>2010-01-01T01:51:17Z</time>
      </trkpt>
      <trkpt lat="31.62752550" lon="34.97419930">
        <ele>392.00000</ele>
        <time>2010-01-01T01:51:22Z</time>
      </trkpt>
      <trkpt lat="31.62759750" lon="34.97427020">
        <ele>392.00000</ele>
        <time>2010-01-01T01:51:25Z</time>
      </trkpt>
      <trkpt lat="31.62766520" lon="34.97434550">
        <ele>393.00000</ele>
        <time>2010-01-01T01:51:29Z</time>
      </trkpt>
      <trkpt lat="31.62773020" lon="34.97442170">
        <ele>393.00000</ele>
        <time>2010-01-01T01:51:33Z</time>
      </trkpt>
      <trkpt lat="31.62782030" lon="34.97451200">
        <ele>394.00000</ele>
        <time>2010-01-01T01:51:38Z</time>
      </trkpt>
      <trkpt lat="31.62791530" lon="34.97458470">
        <ele>394.00000</ele>
        <time>2010-01-01T01:51:42Z</time>
      </trkpt>
      <trkpt lat="31.62801500" lon="34.97465510">
        <ele>395.00000</ele>
        <time>2010-01-01T01:51:47Z</time>
      </trkpt>
      <trkpt lat="31.62811440" lon="34.97472430">
        <ele>396.00000</ele>
        <time>2010-01-01T01:51:51Z</time>
      </trkpt>
      <trkpt lat="31.62819290" lon="34.97478610">
        <ele>397.00000</ele>
        <time>2010-01-01T01:51:55Z</time>
      </trkpt>
      <trkpt lat="31.62827200" lon="34.97486080">
        <ele>397.00000</ele>
        <time>2010-01-01T01:51:59Z</time>
      </trkpt>
      <trkpt lat="31.62834930" lon="34.97494390">
        <ele>398.00000</ele>
        <time>2010-01-01T01:52:03Z</time>
      </trkpt>
      <trkpt lat="31.62842010" lon="34.97502950">
        <ele>398.00000</ele>
        <time>2010-01-01T01:52:07Z</time>
      </trkpt>
      <trkpt lat="31.62849020" lon="34.97510910">
        <ele>399.00000</ele>
        <time>2010-01-01T01:52:11Z</time>
      </trkpt>
      <trkpt lat="31.62856360" lon="34.97518680">
        <ele>399.00000</ele>
        <time>2010-01-01T01:52:15Z</time>
      </trkpt>
      <trkpt lat="31.62863980" lon="34.97526870">
        <ele>399.00000</ele>
        <time>2010-01-01T01:52:19Z</time>
      </trkpt>
      <trkpt lat="31.62871410" lon="34.97534540">
        <ele>399.00000</ele>
        <time>2010-01-01T01:52:23Z</time>
      </trkpt>
      <trkpt lat="31.62878390" lon="34.97542620">
        <ele>400.00000</ele>
        <time>2010-01-01T01:52:27Z</time>
      </trkpt>
      <trkpt lat="31.62884780" lon="34.97550740">
        <ele>400.00000</ele>
        <time>2010-01-01T01:52:31Z</time>
      </trkpt>
      <trkpt lat="31.62892090" lon="34.97561780">
        <ele>401.00000</ele>
        <time>2010-01-01T01:52:36Z</time>
      </trkpt>
      <trkpt lat="31.62897250" lon="34.97570730">
        <ele>401.00000</ele>
        <time>2010-01-01T01:52:40Z</time>
      </trkpt>
      <trkpt lat="31.62902040" lon="34.97579990">
        <ele>401.00000</ele>
        <time>2010-01-01T01:52:43Z</time>
      </trkpt>
      <trkpt lat="31.62906810" lon="34.97589760">
        <ele>401.00000</ele>
        <time>2010-01-01T01:52:47Z</time>
      </trkpt>
      <trkpt lat="31.62911270" lon="34.97599790">
        <ele>401.00000</ele>
        <time>2010-01-01T01:52:51Z</time>
      </trkpt>
      <trkpt lat="31.62916200" lon="34.97609790">
        <ele>401.00000</ele>
        <time>2010-01-01T01:52:55Z</time>
      </trkpt>
      <trkpt lat="31.62920840" lon="34.97619230">
        <ele>401.00000</ele>
        <time>2010-01-01T01:52:59Z</time>
      </trkpt>
      <trkpt lat="31.62926930" lon="34.97630710">
        <ele>402.00000</ele>
        <time>2010-01-01T01:53:03Z</time>
      </trkpt>
      <trkpt lat="31.62933770" lon="34.97641290">
        <ele>403.00000</ele>
        <time>2010-01-01T01:53:08Z</time>
      </trkpt>
      <trkpt lat="31.62941760" lon="34.97650040">
        <ele>404.00000</ele>
        <time>2010-01-01T01:53:12Z</time>
      </trkpt>
      <trkpt lat="31.62949030" lon="34.97655850">
        <ele>404.00000</ele>
        <time>2010-01-01T01:53:16Z</time>
      </trkpt>
      <trkpt lat="31.62958480" lon="34.97661860">
        <ele>405.00000</ele>
        <time>2010-01-01T01:53:20Z</time>
      </trkpt>
      <trkpt lat="31.62967650" lon="34.97666860">
        <ele>405.00000</ele>
        <time>2010-01-01T01:53:24Z</time>
      </trkpt>
      <trkpt lat="31.62976910" lon="34.97671670">
        <ele>406.00000</ele>
        <time>2010-01-01T01:53:28Z</time>
      </trkpt>
      <trkpt lat="31.62986050" lon="34.97676310">
        <ele>407.00000</ele>
        <time>2010-01-01T01:53:32Z</time>
      </trkpt>
      <trkpt lat="31.62994430" lon="34.97681220">
        <ele>408.00000</ele>
        <time>2010-01-01T01:53:36Z</time>
      </trkpt>
      <trkpt lat="31.63003200" lon="34.97686160">
        <ele>408.00000</ele>
        <time>2010-01-01T01:53:40Z</time>
      </trkpt>
      <trkpt lat="31.63012900" lon="34.97692010">
        <ele>409.00000</ele>
        <time>2010-01-01T01:53:44Z</time>
      </trkpt>
      <trkpt lat="31.63021880" lon="34.97696520">
        <ele>410.00000</ele>
        <time>2010-01-01T01:53:48Z</time>
      </trkpt>
      <trkpt lat="31.63031520" lon="34.97699820">
        <ele>411.00000</ele>
        <time>2010-01-01T01:53:52Z</time>
      </trkpt>
      <trkpt lat="31.63041660" lon="34.97698410">
        <ele>413.00000</ele>
        <time>2010-01-01T01:53:56Z</time>
      </trkpt>
      <trkpt lat="31.63052100" lon="34.97696780">
        <ele>414.00000</ele>
        <time>2010-01-01T01:54:00Z</time>
      </trkpt>
      <trkpt lat="31.63061900" lon="34.97697390">
        <ele>416.00000</ele>
        <time>2010-01-01T01:54:04Z</time>
      </trkpt>
      <trkpt lat="31.63072350" lon="34.97697910">
        <ele>417.00000</ele>
        <time>2010-01-01T01:54:08Z</time>
      </trkpt>
      <trkpt lat="31.63082470" lon="34.97697540">
        <ele>419.00000</ele>
        <time>2010-01-01T01:54:12Z</time>
      </trkpt>
      <trkpt lat="31.63091780" lon="34.97696900">
        <ele>420.00000</ele>
        <time>2010-01-01T01:54:16Z</time>
      </trkpt>
      <trkpt lat="31.63101700" lon="34.97695680">
        <ele>421.00000</ele>
        <time>2010-01-01T01:54:20Z</time>
      </trkpt>
      <trkpt lat="31.63111770" lon="34.97693960">
        <ele>423.00000</ele>
        <time>2010-01-01T01:54:24Z</time>
      </trkpt>
      <trkpt lat="31.63121080" lon="34.97693170">
        <ele>424.00000</ele>
        <time>2010-01-01T01:54:28Z</time>
      </trkpt>
      <trkpt lat="31.63130600" lon="34.97692770">
        <ele>425.00000</ele>
        <time>2010-01-01T01:54:32Z</time>
      </trkpt>
      <trkpt lat="31.63139720" lon="34.97693530">
        <ele>426.00000</ele>
        <time>2010-01-01T01:54:35Z</time>
      </trkpt>
      <trkpt lat="31.63149190" lon="34.97694930">
        <ele>426.00000</ele>
        <time>2010-01-01T01:54:39Z</time>
      </trkpt>
      <trkpt lat="31.63158620" lon="34.97697570">
        <ele>426.00000</ele>
        <time>2010-01-01T01:54:43Z</time>
      </trkpt>
      <trkpt lat="31.63169190" lon="34.97700610">
        <ele>426.00000</ele>
        <time>2010-01-01T01:54:47Z</time>
      </trkpt>
      <trkpt lat="31.63178310" lon="34.97702630">
        <ele>425.00000</ele>
        <time>2010-01-01T01:54:51Z</time>
      </trkpt>
      <trkpt lat="31.63188750" lon="34.97704750">
        <ele>425.00000</ele>
        <time>2010-01-01T01:54:55Z</time>
      </trkpt>
      <trkpt lat="31.63198750" lon="34.97709840">
        <ele>424.00000</ele>
        <time>2010-01-01T01:55:00Z</time>
      </trkpt>
      <trkpt lat="31.63210990" lon="34.97715980">
        <ele>423.00000</ele>
        <time>2010-01-01T01:55:05Z</time>
      </trkpt>
      <trkpt lat="31.63221920" lon="34.97717650">
        <ele>423.00000</ele>
        <time>2010-01-01T01:55:10Z</time>
      </trkpt>
      <trkpt lat="31.63232700" lon="34.97716200">
        <ele>423.00000</ele>
        <time>2010-01-01T01:55:14Z</time>
      </trkpt>
      <trkpt lat="31.63244250" lon="34.97714230">
        <ele>422.00000</ele>
        <time>2010-01-01T01:55:19Z</time>
      </trkpt>
      <trkpt lat="31.63257050" lon="34.97713120">
        <ele>421.00000</ele>
        <time>2010-01-01T01:55:24Z</time>
      </trkpt>
      <trkpt lat="31.63270490" lon="34.97711700">
        <ele>420.00000</ele>
        <time>2010-01-01T01:55:29Z</time>
      </trkpt>
      <trkpt lat="31.63284670" lon="34.97709720">
        <ele>419.00000</ele>
        <time>2010-01-01T01:55:35Z</time>
      </trkpt>
      <trkpt lat="31.63299570" lon="34.97706460">
        <ele>417.00000</ele>
        <time>2010-01-01T01:55:41Z</time>
      </trkpt>
      <trkpt lat="31.63315310" lon="34.97702560">
        <ele>416.00000</ele>
        <time>2010-01-01T01:55:47Z</time>
      </trkpt>
      <trkpt lat="31.63331630" lon="34.97699460">
        <ele>414.00000</ele>
        <time>2010-01-01T01:55:54Z</time>
      </trkpt>
      <trkpt lat="31.63348160" lon="34.97696650">
        <ele>414.00000</ele>
        <time>2010-01-01T01:56:01Z</time>
      </trkpt>
      <trkpt lat="31.63364430" lon="34.97694100">
        <ele>413.00000</ele>
        <time>2010-01-01T01:56:07Z</time>
      </trkpt>
      <trkpt lat="31.63378080" lon="34.97690130">
        <ele>412.00000</ele>
        <time>2010-01-01T01:56:13Z</time>
      </trkpt>
      <trkpt lat="31.63391470" lon="34.97686570">
        <ele>411.00000</ele>
        <time>2010-01-01T01:56:18Z</time>
      </trkpt>
      <trkpt lat="31.63404460" lon="34.97683790">
        <ele>410.00000</ele>
        <time>2010-01-01T01:56:24Z</time>
      </trkpt>
      <trkpt lat="31.63416970" lon="34.97680630">
        <ele>409.00000</ele>
        <time>2010-01-01T01:56:29Z</time>
      </trkpt>
      <trkpt lat="31.63429070" lon="34.97676570">
        <ele>408.00000</ele>
        <time>2010-01-01T01:56:34Z</time>
      </trkpt>
      <trkpt lat="31.63440840" lon="34.97670740">
        <ele>408.00000</ele>
        <time>2010-01-01T01:56:39Z</time>
      </trkpt>
      <trkpt lat="31.63452680" lon="34.97663930">
        <ele>407.00000</ele>
        <time>2010-01-01T01:56:44Z</time>
      </trkpt>
      <trkpt lat="31.63464760" lon="34.97656390">
        <ele>406.00000</ele>
        <time>2010-01-01T01:56:50Z</time>
      </trkpt>
      <trkpt lat="31.63477300" lon="34.97648540">
        <ele>405.00000</ele>
        <time>2010-01-01T01:56:55Z</time>
      </trkpt>
      <trkpt lat="31.63490710" lon="34.97640580">
        <ele>404.00000</ele>
        <time>2010-01-01T01:57:01Z</time>
      </trkpt>
      <trkpt lat="31.63504520" lon="34.97633980">
        <ele>403.00000</ele>
        <time>2010-01-01T01:57:07Z</time>
      </trkpt>
      <trkpt lat="31.63518960" lon="34.97627450">
        <ele>403.00000</ele>
        <time>2010-01-01T01:57:13Z</time>
      </trkpt>
      <trkpt lat="31.63534000" lon="34.97620270">
        <ele>402.00000</ele>
        <time>2010-01-01T01:57:20Z</time>
      </trkpt>
      <trkpt lat="31.63549810" lon="34.97612320">
        <ele>402.00000</ele>
        <time>2010-01-01T01:57:27Z</time>
      </trkpt>
      <trkpt lat="31.63565780" lon="34.97604990">
        <ele>402.00000</ele>
        <time>2010-01-01T01:57:34Z</time>
      </trkpt>
      <trkpt lat="31.63581780" lon="34.97599180">
        <ele>401.00000</ele>
        <time>2010-01-01T01:57:40Z</time>
      </trkpt>
      <trkpt lat="31.63596180" lon="34.97596620">
        <ele>400.00000</ele>
        <time>2010-01-01T01:57:46Z</time>
      </trkpt>
      <trkpt lat="31.63609110" lon="34.97597340">
        <ele>399.00000</ele>
        <time>2010-01-01T01:57:51Z</time>
      </trkpt>
      <trkpt lat="31.63618270" lon="34.97579090">
        <ele>400.00000</ele>
        <time>2010-01-01T01:57:59Z</time>
      </trkpt>
      <trkpt lat="31.63668510" lon="34.97541540">
        <ele>399.00000</ele>
        <time>2010-01-01T01:58:23Z</time>
      </trkpt>
      <trkpt lat="31.63689520" lon="34.97522230">
        <ele>400.00000</ele>
        <time>2010-01-01T01:58:33Z</time>
      </trkpt>
      <trkpt lat="31.63702310" lon="34.97512570">
        <ele>401.00000</ele>
        <time>2010-01-01T01:58:39Z</time>
      </trkpt>
      <trkpt lat="31.63716920" lon="34.97511500">
        <ele>400.00000</ele>
        <time>2010-01-01T01:58:45Z</time>
      </trkpt>
      <trkpt lat="31.63736100" lon="34.97482530">
        <ele>400.00000</ele>
        <time>2010-01-01T01:58:58Z</time>
      </trkpt>
      <trkpt lat="31.63776300" lon="34.97458930">
        <ele>400.00000</ele>
        <time>2010-01-01T01:59:16Z</time>
      </trkpt>
      <trkpt lat="31.63827450" lon="34.97427820">
        <ele>402.00000</ele>
        <time>2010-01-01T01:59:39Z</time>
      </trkpt>
      <trkpt lat="31.63854850" lon="34.97413870">
        <ele>402.00000</ele>
        <time>2010-01-01T01:59:51Z</time>
      </trkpt>
      <trkpt lat="31.63877690" lon="34.97391340">
        <ele>404.00000</ele>
        <time>2010-01-01T02:00:03Z</time>
      </trkpt>
      <trkpt lat="31.63876770" lon="34.97321600">
        <ele>411.00000</ele>
        <time>2010-01-01T02:00:26Z</time>
      </trkpt>
      <trkpt lat="31.63884990" lon="34.97265810">
        <ele>413.00000</ele>
        <time>2010-01-01T02:00:46Z</time>
      </trkpt>
      <trkpt lat="31.63882250" lon="34.97221820">
        <ele>413.00000</ele>
        <time>2010-01-01T02:01:01Z</time>
      </trkpt>
      <trkpt lat="31.63910570" lon="34.97203580">
        <ele>412.00000</ele>
        <time>2010-01-01T02:01:14Z</time>
      </trkpt>
      <trkpt lat="31.63944370" lon="34.97196070">
        <ele>411.00000</ele>
        <time>2010-01-01T02:01:27Z</time>
      </trkpt>
      <trkpt lat="31.63963550" lon="34.97197150">
        <ele>411.00000</ele>
        <time>2010-01-01T02:01:35Z</time>
      </trkpt>
      <trkpt lat="31.63996430" lon="34.97214310">
        <ele>414.00000</ele>
        <time>2010-01-01T02:01:49Z</time>
      </trkpt>
      <trkpt lat="31.64012870" lon="34.97274390">
        <ele>414.00000</ele>
        <time>2010-01-01T02:02:11Z</time>
      </trkpt>
      <trkpt lat="31.64031140" lon="34.97298000">
        <ele>413.00000</ele>
        <time>2010-01-01T02:02:22Z</time>
      </trkpt>
      <trkpt lat="31.64051230" lon="34.97330180">
        <ele>411.00000</ele>
        <time>2010-01-01T02:02:35Z</time>
      </trkpt>
      <trkpt lat="31.64089600" lon="34.97366660">
        <ele>408.00000</ele>
        <time>2010-01-01T02:02:55Z</time>
      </trkpt>
      <trkpt lat="31.64173630" lon="34.97363440">
        <ele>409.00000</ele>
        <time>2010-01-01T02:03:29Z</time>
      </trkpt>
      <trkpt lat="31.64220210" lon="34.97369880">
        <ele>403.00000</ele>
        <time>2010-01-01T02:03:48Z</time>
      </trkpt>
      <trkpt lat="31.64248530" lon="34.97331260">
        <ele>405.00000</ele>
        <time>2010-01-01T02:04:05Z</time>
      </trkpt>
      <trkpt lat="31.64278670" lon="34.97325890">
        <ele>401.00000</ele>
        <time>2010-01-01T02:04:17Z</time>
      </trkpt>
      <trkpt lat="31.64309730" lon="34.97288340">
        <ele>395.00000</ele>
        <time>2010-01-01T02:04:35Z</time>
      </trkpt>
      <trkpt lat="31.64309730" lon="34.97214310">
        <ele>393.00000</ele>
        <time>2010-01-01T02:05:00Z</time>
      </trkpt>
      <trkpt lat="31.64299680" lon="34.97162810">
        <ele>393.00000</ele>
        <time>2010-01-01T02:05:18Z</time>
      </trkpt>
      <trkpt lat="31.64315210" lon="34.97146720">
        <ele>390.00000</ele>
        <time>2010-01-01T02:05:27Z</time>
      </trkpt>
      <trkpt lat="31.64359050" lon="34.97174620">
        <ele>383.00000</ele>
        <time>2010-01-01T02:05:47Z</time>
      </trkpt>
      <trkpt lat="31.64376400" lon="34.97187490">
        <ele>381.00000</ele>
        <time>2010-01-01T02:05:55Z</time>
      </trkpt>
      <trkpt lat="31.64412020" lon="34.97191780">
        <ele>377.00000</ele>
        <time>2010-01-01T02:06:09Z</time>
      </trkpt>
      <trkpt lat="31.64455860" lon="34.97176760">
        <ele>376.00000</ele>
        <time>2010-01-01T02:06:27Z</time>
      </trkpt>
      <trkpt lat="31.64538980" lon="34.97123120">
        <ele>374.00000</ele>
        <time>2010-01-01T02:07:05Z</time>
      </trkpt>
      <trkpt lat="31.64615700" lon="34.97060890">
        <ele>369.00000</ele>
        <time>2010-01-01T02:07:43Z</time>
      </trkpt>
      <trkpt lat="31.64660460" lon="34.96993300">
        <ele>370.00000</ele>
        <time>2010-01-01T02:08:12Z</time>
      </trkpt>
      <trkpt lat="31.64686030" lon="34.96978280">
        <ele>365.00000</ele>
        <time>2010-01-01T02:08:23Z</time>
      </trkpt>
      <trkpt lat="31.64693340" lon="34.96942870">
        <ele>364.00000</ele>
        <time>2010-01-01T02:08:36Z</time>
      </trkpt>
      <trkpt lat="31.64712520" lon="34.96921420">
        <ele>363.00000</ele>
        <time>2010-01-01T02:08:46Z</time>
      </trkpt>
      <trkpt lat="31.64703380" lon="34.96884940">
        <ele>364.00000</ele>
        <time>2010-01-01T02:08:59Z</time>
      </trkpt>
      <trkpt lat="31.64728040" lon="34.96785160">
        <ele>362.00000</ele>
        <time>2010-01-01T02:09:35Z</time>
      </trkpt>
      <trkpt lat="31.64744480" lon="34.96732590">
        <ele>361.00000</ele>
        <time>2010-01-01T02:09:54Z</time>
      </trkpt>
      <trkpt lat="31.64756360" lon="34.96705770">
        <ele>360.00000</ele>
        <time>2010-01-01T02:10:04Z</time>
      </trkpt>
      <trkpt lat="31.64762750" lon="34.96668210">
        <ele>360.00000</ele>
        <time>2010-01-01T02:10:17Z</time>
      </trkpt>
      <trkpt lat="31.64760920" lon="34.96602770">
        <ele>360.00000</ele>
        <time>2010-01-01T02:10:39Z</time>
      </trkpt>
      <trkpt lat="31.64746310" lon="34.96571660">
        <ele>363.00000</ele>
        <time>2010-01-01T02:10:52Z</time>
      </trkpt>
      <trkpt lat="31.64740830" lon="34.96513720">
        <ele>360.00000</ele>
        <time>2010-01-01T02:11:11Z</time>
      </trkpt>
      <trkpt lat="31.64756360" lon="34.96448270">
        <ele>357.00000</ele>
        <time>2010-01-01T02:11:35Z</time>
      </trkpt>
      <trkpt lat="31.64745400" lon="34.96432180">
        <ele>358.00000</ele>
        <time>2010-01-01T02:11:42Z</time>
      </trkpt>
      <trkpt lat="31.64718000" lon="34.96401070">
        <ele>359.00000</ele>
        <time>2010-01-01T02:11:57Z</time>
      </trkpt>
      <trkpt lat="31.64712520" lon="34.96353860">
        <ele>355.00000</ele>
        <time>2010-01-01T02:12:13Z</time>
      </trkpt>
      <trkpt lat="31.64710690" lon="34.96328110">
        <ele>354.00000</ele>
        <time>2010-01-01T02:12:22Z</time>
      </trkpt>
      <trkpt lat="31.64788320" lon="34.96302360">
        <ele>352.00000</ele>
        <time>2010-01-01T02:12:54Z</time>
      </trkpt>
      <trkpt lat="31.64845860" lon="34.96537320">
        <ele>358.00000</ele>
        <time>2010-01-01T02:14:17Z</time>
      </trkpt>
      <trkpt lat="31.64876920" lon="34.96617790">
        <ele>363.00000</ele>
        <time>2010-01-01T02:14:48Z</time>
      </trkpt>
      <trkpt lat="31.64928060" lon="34.96649980">
        <ele>368.00000</ele>
        <time>2010-01-01T02:15:11Z</time>
      </trkpt>
      <trkpt lat="31.64949980" lon="34.96652120">
        <ele>369.00000</ele>
        <time>2010-01-01T02:15:20Z</time>
      </trkpt>
      <trkpt lat="31.64977380" lon="34.96618860">
        <ele>371.00000</ele>
        <time>2010-01-01T02:15:35Z</time>
      </trkpt>
      <trkpt lat="31.65028530" lon="34.96584530">
        <ele>372.00000</ele>
        <time>2010-01-01T02:15:59Z</time>
      </trkpt>
      <trkpt lat="31.65092460" lon="34.96541610">
        <ele>373.00000</ele>
        <time>2010-01-01T02:16:28Z</time>
      </trkpt>
      <trkpt lat="31.65103420" lon="34.96511570">
        <ele>379.00000</ele>
        <time>2010-01-01T02:16:40Z</time>
      </trkpt>
      <trkpt lat="31.65088810" lon="34.96504060">
        <ele>380.00000</ele>
        <time>2010-01-01T02:16:46Z</time>
      </trkpt>
      <trkpt lat="31.65062320" lon="34.96523380">
        <ele>377.00000</ele>
        <time>2010-01-01T02:16:58Z</time>
      </trkpt>
      <trkpt lat="31.65037660" lon="34.96531960">
        <ele>377.00000</ele>
        <time>2010-01-01T02:17:09Z</time>
      </trkpt>
      <trkpt lat="31.65017570" lon="34.96537320">
        <ele>378.00000</ele>
        <time>2010-01-01T02:17:17Z</time>
      </trkpt>
      <trkpt lat="31.64983780" lon="34.96520160">
        <ele>380.00000</ele>
        <time>2010-01-01T02:17:32Z</time>
      </trkpt>
      <trkpt lat="31.64979210" lon="34.96513720">
        <ele>380.00000</ele>
        <time>2010-01-01T02:17:35Z</time>
      </trkpt>
      <trkpt lat="31.64994740" lon="34.96512650">
        <ele>381.00000</ele>
        <time>2010-01-01T02:17:41Z</time>
      </trkpt>
      <trkpt lat="31.65030350" lon="34.96522300">
        <ele>379.00000</ele>
        <time>2010-01-01T02:17:55Z</time>
      </trkpt>
      <trkpt lat="31.65057750" lon="34.96505140">
        <ele>379.00000</ele>
        <time>2010-01-01T02:18:08Z</time>
      </trkpt>
      <trkpt lat="31.65078760" lon="34.96479390">
        <ele>381.00000</ele>
        <time>2010-01-01T02:18:20Z</time>
      </trkpt>
      <trkpt lat="31.65105250" lon="34.96439690">
        <ele>384.00000</ele>
        <time>2010-01-01T02:18:37Z</time>
      </trkpt>
      <trkpt lat="31.65146340" lon="34.96424670">
        <ele>383.00000</ele>
        <time>2010-01-01T02:18:54Z</time>
      </trkpt>
      <trkpt lat="31.65200230" lon="34.96280900">
        <ele>389.00000</ele>
        <time>2010-01-01T02:19:48Z</time>
      </trkpt>
      <trkpt lat="31.65236760" lon="34.96219750">
        <ele>384.00000</ele>
        <time>2010-01-01T02:20:13Z</time>
      </trkpt>
      <trkpt lat="31.65250460" lon="34.96181130">
        <ele>381.00000</ele>
        <time>2010-01-01T02:20:28Z</time>
      </trkpt>
      <trkpt lat="31.65284250" lon="34.96145720">
        <ele>380.00000</ele>
        <time>2010-01-01T02:20:46Z</time>
      </trkpt>
      <trkpt lat="31.65268730" lon="34.96044870">
        <ele>374.00000</ele>
        <time>2010-01-01T02:21:21Z</time>
      </trkpt>
      <trkpt lat="31.65274210" lon="34.96009460">
        <ele>374.00000</ele>
        <time>2010-01-01T02:21:33Z</time>
      </trkpt>
      <trkpt lat="31.65268730" lon="34.95940800">
        <ele>375.00000</ele>
        <time>2010-01-01T02:21:56Z</time>
      </trkpt>
      <trkpt lat="31.65288820" lon="34.95850680">
        <ele>372.00000</ele>
        <time>2010-01-01T02:22:28Z</time>
      </trkpt>
      <trkpt lat="31.65298860" lon="34.95753040">
        <ele>370.00000</ele>
        <time>2010-01-01T02:23:02Z</time>
      </trkpt>
      <trkpt lat="31.65318040" lon="34.95718710">
        <ele>370.00000</ele>
        <time>2010-01-01T02:23:16Z</time>
      </trkpt>
      <trkpt lat="31.65343610" lon="34.95717640">
        <ele>370.00000</ele>
        <time>2010-01-01T02:23:26Z</time>
      </trkpt>
      <trkpt lat="31.65379230" lon="34.95721930">
        <ele>371.00000</ele>
        <time>2010-01-01T02:23:40Z</time>
      </trkpt>
      <trkpt lat="31.65363710" lon="34.95756260">
        <ele>367.00000</ele>
        <time>2010-01-01T02:23:54Z</time>
      </trkpt>
      <trkpt lat="31.65393840" lon="34.95815270">
        <ele>363.00000</ele>
        <time>2010-01-01T02:24:17Z</time>
      </trkpt>
      <trkpt lat="31.65427640" lon="34.95856040">
        <ele>359.00000</ele>
        <time>2010-01-01T02:24:36Z</time>
      </trkpt>
      <trkpt lat="31.65445900" lon="34.95931140">
        <ele>351.00000</ele>
        <time>2010-01-01T02:25:03Z</time>
      </trkpt>
      <trkpt lat="31.65468730" lon="34.95980500">
        <ele>345.00000</ele>
        <time>2010-01-01T02:25:22Z</time>
      </trkpt>
      <trkpt lat="31.65523530" lon="34.96012680">
        <ele>340.00000</ele>
        <time>2010-01-01T02:25:47Z</time>
      </trkpt>
      <trkpt lat="31.65602070" lon="34.96039500">
        <ele>331.00000</ele>
        <time>2010-01-01T02:26:19Z</time>
      </trkpt>
      <trkpt lat="31.65678780" lon="34.96094220">
        <ele>322.00000</ele>
        <time>2010-01-01T02:26:55Z</time>
      </trkpt>
      <trkpt lat="31.65724860" lon="34.96123960">
        <ele>325.00000</ele>
        <time>2010-01-01T02:27:16Z</time>
      </trkpt>
      <trkpt lat="31.65730130" lon="34.96105810">
        <ele>324.00000</ele>
        <time>2010-01-01T02:27:23Z</time>
      </trkpt>
      <trkpt lat="31.65735330" lon="34.96087150">
        <ele>323.00000</ele>
        <time>2010-01-01T02:27:30Z</time>
      </trkpt>
      <trkpt lat="31.65740840" lon="34.96067860">
        <ele>323.00000</ele>
        <time>2010-01-01T02:27:37Z</time>
      </trkpt>
      <trkpt lat="31.65747450" lon="34.96048480">
        <ele>323.00000</ele>
        <time>2010-01-01T02:27:44Z</time>
      </trkpt>
      <trkpt lat="31.65751260" lon="34.96038830">
        <ele>322.00000</ele>
        <time>2010-01-01T02:27:47Z</time>
      </trkpt>
      <trkpt lat="31.65755710" lon="34.96029450">
        <ele>322.00000</ele>
        <time>2010-01-01T02:27:51Z</time>
      </trkpt>
      <trkpt lat="31.65765670" lon="34.96011560">
        <ele>322.00000</ele>
        <time>2010-01-01T02:27:58Z</time>
      </trkpt>
      <trkpt lat="31.65776410" lon="34.95995140">
        <ele>322.00000</ele>
        <time>2010-01-01T02:28:05Z</time>
      </trkpt>
      <trkpt lat="31.65788360" lon="34.95981180">
        <ele>321.00000</ele>
        <time>2010-01-01T02:28:12Z</time>
      </trkpt>
      <trkpt lat="31.65800910" lon="34.95969110">
        <ele>320.00000</ele>
        <time>2010-01-01T02:28:19Z</time>
      </trkpt>
      <trkpt lat="31.65814460" lon="34.95960870">
        <ele>320.00000</ele>
        <time>2010-01-01T02:28:25Z</time>
      </trkpt>
      <trkpt lat="31.65828130" lon="34.95954960">
        <ele>321.00000</ele>
        <time>2010-01-01T02:28:30Z</time>
      </trkpt>
      <trkpt lat="31.65841240" lon="34.95949410">
        <ele>322.00000</ele>
        <time>2010-01-01T02:28:36Z</time>
      </trkpt>
      <trkpt lat="31.65853980" lon="34.95944440">
        <ele>323.00000</ele>
        <time>2010-01-01T02:28:41Z</time>
      </trkpt>
      <trkpt lat="31.65866260" lon="34.95940320">
        <ele>324.00000</ele>
        <time>2010-01-01T02:28:47Z</time>
      </trkpt>
      <trkpt lat="31.65878290" lon="34.95936750">
        <ele>324.00000</ele>
        <time>2010-01-01T02:28:52Z</time>
      </trkpt>
      <trkpt lat="31.65890120" lon="34.95933210">
        <ele>325.00000</ele>
        <time>2010-01-01T02:28:56Z</time>
      </trkpt>
      <trkpt lat="31.65902080" lon="34.95929600">
        <ele>324.00000</ele>
        <time>2010-01-01T02:29:01Z</time>
      </trkpt>
      <trkpt lat="31.65914000" lon="34.95925330">
        <ele>324.00000</ele>
        <time>2010-01-01T02:29:06Z</time>
      </trkpt>
      <trkpt lat="31.65925860" lon="34.95920800">
        <ele>323.00000</ele>
        <time>2010-01-01T02:29:11Z</time>
      </trkpt>
      <trkpt lat="31.65937650" lon="34.95915920">
        <ele>323.00000</ele>
        <time>2010-01-01T02:29:16Z</time>
      </trkpt>
      <trkpt lat="31.65948720" lon="34.95908070">
        <ele>322.00000</ele>
        <time>2010-01-01T02:29:21Z</time>
      </trkpt>
      <trkpt lat="31.65957390" lon="34.95894720">
        <ele>322.00000</ele>
        <time>2010-01-01T02:29:27Z</time>
      </trkpt>
      <trkpt lat="31.65962190" lon="34.95877690">
        <ele>322.00000</ele>
        <time>2010-01-01T02:29:33Z</time>
      </trkpt>
      <trkpt lat="31.65959160" lon="34.95862440">
        <ele>323.00000</ele>
        <time>2010-01-01T02:29:39Z</time>
      </trkpt>
      <trkpt lat="31.65950200" lon="34.95851290">
        <ele>322.00000</ele>
        <time>2010-01-01T02:29:44Z</time>
      </trkpt>
      <trkpt lat="31.65940180" lon="34.95840340">
        <ele>321.00000</ele>
        <time>2010-01-01T02:29:49Z</time>
      </trkpt>
      <trkpt lat="31.65929200" lon="34.95828990">
        <ele>320.00000</ele>
        <time>2010-01-01T02:29:55Z</time>
      </trkpt>
      <trkpt lat="31.65916970" lon="34.95817250">
        <ele>319.00000</ele>
        <time>2010-01-01T02:30:02Z</time>
      </trkpt>
      <trkpt lat="31.65904050" lon="34.95804600">
        <ele>318.00000</ele>
        <time>2010-01-01T02:30:08Z</time>
      </trkpt>
      <trkpt lat="31.65890370" lon="34.95791640">
        <ele>318.00000</ele>
        <time>2010-01-01T02:30:15Z</time>
      </trkpt>
      <trkpt lat="31.65876210" lon="34.95778010">
        <ele>318.00000</ele>
        <time>2010-01-01T02:30:23Z</time>
      </trkpt>
      <trkpt lat="31.65869400" lon="34.95770110">
        <ele>317.00000</ele>
        <time>2010-01-01T02:30:26Z</time>
      </trkpt>
      <trkpt lat="31.65863280" lon="34.95761050">
        <ele>317.00000</ele>
        <time>2010-01-01T02:30:30Z</time>
      </trkpt>
      <trkpt lat="31.65858330" lon="34.95750870">
        <ele>316.00000</ele>
        <time>2010-01-01T02:30:34Z</time>
      </trkpt>
      <trkpt lat="31.65854430" lon="34.95739830">
        <ele>317.00000</ele>
        <time>2010-01-01T02:30:38Z</time>
      </trkpt>
      <trkpt lat="31.65851210" lon="34.95728520">
        <ele>317.00000</ele>
        <time>2010-01-01T02:30:43Z</time>
      </trkpt>
      <trkpt lat="31.65848440" lon="34.95717200">
        <ele>317.00000</ele>
        <time>2010-01-01T02:30:47Z</time>
      </trkpt>
      <trkpt lat="31.65846110" lon="34.95705900">
        <ele>316.00000</ele>
        <time>2010-01-01T02:30:51Z</time>
      </trkpt>
      <trkpt lat="31.65844240" lon="34.95694520">
        <ele>316.00000</ele>
        <time>2010-01-01T02:30:54Z</time>
      </trkpt>
      <trkpt lat="31.65842900" lon="34.95683000">
        <ele>316.00000</ele>
        <time>2010-01-01T02:30:58Z</time>
      </trkpt>
      <trkpt lat="31.65842100" lon="34.95671400">
        <ele>315.00000</ele>
        <time>2010-01-01T02:31:02Z</time>
      </trkpt>
      <trkpt lat="31.65841840" lon="34.95659850">
        <ele>315.00000</ele>
        <time>2010-01-01T02:31:06Z</time>
      </trkpt>
      <trkpt lat="31.65842400" lon="34.95648470">
        <ele>315.00000</ele>
        <time>2010-01-01T02:31:10Z</time>
      </trkpt>
      <trkpt lat="31.65844090" lon="34.95637350">
        <ele>315.00000</ele>
        <time>2010-01-01T02:31:14Z</time>
      </trkpt>
      <trkpt lat="31.65846920" lon="34.95626610">
        <ele>314.00000</ele>
        <time>2010-01-01T02:31:18Z</time>
      </trkpt>
      <trkpt lat="31.65850580" lon="34.95616300">
        <ele>314.00000</ele>
        <time>2010-01-01T02:31:22Z</time>
      </trkpt>
      <trkpt lat="31.65854640" lon="34.95606320">
        <ele>314.00000</ele>
        <time>2010-01-01T02:31:25Z</time>
      </trkpt>
      <trkpt lat="31.65859190" lon="34.95596860">
        <ele>314.00000</ele>
        <time>2010-01-01T02:31:29Z</time>
      </trkpt>
      <trkpt lat="31.65863930" lon="34.95587670">
        <ele>314.00000</ele>
        <time>2010-01-01T02:31:33Z</time>
      </trkpt>
      <trkpt lat="31.65872830" lon="34.95569410">
        <ele>314.00000</ele>
        <time>2010-01-01T02:31:40Z</time>
      </trkpt>
      <trkpt lat="31.65881950" lon="34.95551850">
        <ele>315.00000</ele>
        <time>2010-01-01T02:31:47Z</time>
      </trkpt>
      <trkpt lat="31.65890700" lon="34.95534750">
        <ele>314.00000</ele>
        <time>2010-01-01T02:31:54Z</time>
      </trkpt>
      <trkpt lat="31.65899130" lon="34.95517960">
        <ele>314.00000</ele>
        <time>2010-01-01T02:32:00Z</time>
      </trkpt>
      <trkpt lat="31.65906640" lon="34.95500870">
        <ele>312.00000</ele>
        <time>2010-01-01T02:32:07Z</time>
      </trkpt>
      <trkpt lat="31.65911230" lon="34.95482690">
        <ele>311.00000</ele>
        <time>2010-01-01T02:32:13Z</time>
      </trkpt>
      <trkpt lat="31.65912540" lon="34.95463430">
        <ele>311.00000</ele>
        <time>2010-01-01T02:32:20Z</time>
      </trkpt>
      <trkpt lat="31.65913010" lon="34.95444120">
        <ele>311.00000</ele>
        <time>2010-01-01T02:32:27Z</time>
      </trkpt>
      <trkpt lat="31.65913300" lon="34.95424910">
        <ele>310.00000</ele>
        <time>2010-01-01T02:32:33Z</time>
      </trkpt>
      <trkpt lat="31.65913740" lon="34.95405510">
        <ele>310.00000</ele>
        <time>2010-01-01T02:32:40Z</time>
      </trkpt>
      <trkpt lat="31.65914110" lon="34.95386110">
        <ele>310.00000</ele>
        <time>2010-01-01T02:32:46Z</time>
      </trkpt>
      <trkpt lat="31.65914360" lon="34.95366870">
        <ele>310.00000</ele>
        <time>2010-01-01T02:32:53Z</time>
      </trkpt>
      <trkpt lat="31.65915470" lon="34.95348030">
        <ele>309.00000</ele>
        <time>2010-01-01T02:32:59Z</time>
      </trkpt>
      <trkpt lat="31.65918540" lon="34.95329540">
        <ele>309.00000</ele>
        <time>2010-01-01T02:33:06Z</time>
      </trkpt>
      <trkpt lat="31.65921500" lon="34.95311030">
        <ele>308.00000</ele>
        <time>2010-01-01T02:33:12Z</time>
      </trkpt>
      <trkpt lat="31.65924590" lon="34.95292790">
        <ele>307.00000</ele>
        <time>2010-01-01T02:33:19Z</time>
      </trkpt>
      <trkpt lat="31.65928450" lon="34.95275190">
        <ele>307.00000</ele>
        <time>2010-01-01T02:33:25Z</time>
      </trkpt>
      <trkpt lat="31.65932720" lon="34.95258230">
        <ele>307.00000</ele>
        <time>2010-01-01T02:33:31Z</time>
      </trkpt>
      <trkpt lat="31.65937230" lon="34.95242020">
        <ele>308.00000</ele>
        <time>2010-01-01T02:33:37Z</time>
      </trkpt>
      <trkpt lat="31.65942320" lon="34.95226460">
        <ele>308.00000</ele>
        <time>2010-01-01T02:33:42Z</time>
      </trkpt>
      <trkpt lat="31.65947040" lon="34.95210530">
        <ele>308.00000</ele>
        <time>2010-01-01T02:33:48Z</time>
      </trkpt>
      <trkpt lat="31.65951270" lon="34.95194010">
        <ele>308.00000</ele>
        <time>2010-01-01T02:33:54Z</time>
      </trkpt>
      <trkpt lat="31.65954570" lon="34.95176340">
        <ele>306.00000</ele>
        <time>2010-01-01T02:34:00Z</time>
      </trkpt>
      <trkpt lat="31.65959000" lon="34.95158210">
        <ele>304.00000</ele>
        <time>2010-01-01T02:34:06Z</time>
      </trkpt>
      <trkpt lat="31.65966500" lon="34.95140990">
        <ele>303.00000</ele>
        <time>2010-01-01T02:34:13Z</time>
      </trkpt>
      <trkpt lat="31.65976870" lon="34.95125650">
        <ele>303.00000</ele>
        <time>2010-01-01T02:34:20Z</time>
      </trkpt>
      <trkpt lat="31.65987870" lon="34.95110640">
        <ele>303.00000</ele>
        <time>2010-01-01T02:34:27Z</time>
      </trkpt>
      <trkpt lat="31.65998870" lon="34.95095230">
        <ele>303.00000</ele>
        <time>2010-01-01T02:34:33Z</time>
      </trkpt>
      <trkpt lat="31.66010630" lon="34.95079870">
        <ele>302.00000</ele>
        <time>2010-01-01T02:34:40Z</time>
      </trkpt>
      <trkpt lat="31.66025700" lon="34.95069200">
        <ele>302.00000</ele>
        <time>2010-01-01T02:34:47Z</time>
      </trkpt>
      <trkpt lat="31.66042620" lon="34.95065110">
        <ele>302.00000</ele>
        <time>2010-01-01T02:34:54Z</time>
      </trkpt>
      <trkpt lat="31.66059940" lon="34.95065750">
        <ele>303.00000</ele>
        <time>2010-01-01T02:35:01Z</time>
      </trkpt>
      <trkpt lat="31.66076490" lon="34.95070880">
        <ele>302.00000</ele>
        <time>2010-01-01T02:35:08Z</time>
      </trkpt>
      <trkpt lat="31.66092210" lon="34.95077580">
        <ele>301.00000</ele>
        <time>2010-01-01T02:35:15Z</time>
      </trkpt>
      <trkpt lat="31.66107300" lon="34.95084360">
        <ele>301.00000</ele>
        <time>2010-01-01T02:35:21Z</time>
      </trkpt>
      <trkpt lat="31.66122150" lon="34.95089240">
        <ele>301.00000</ele>
        <time>2010-01-01T02:35:27Z</time>
      </trkpt>
      <trkpt lat="31.66136850" lon="34.95087670">
        <ele>301.00000</ele>
        <time>2010-01-01T02:35:33Z</time>
      </trkpt>
      <trkpt lat="31.66150180" lon="34.95081720">
        <ele>302.00000</ele>
        <time>2010-01-01T02:35:39Z</time>
      </trkpt>
      <trkpt lat="31.66162310" lon="34.95075330">
        <ele>303.00000</ele>
        <time>2010-01-01T02:35:44Z</time>
      </trkpt>
      <trkpt lat="31.66173120" lon="34.95068800">
        <ele>304.00000</ele>
        <time>2010-01-01T02:35:49Z</time>
      </trkpt>
      <trkpt lat="31.66182670" lon="34.95061810">
        <ele>305.00000</ele>
        <time>2010-01-01T02:35:54Z</time>
      </trkpt>
      <trkpt lat="31.66191720" lon="34.95054660">
        <ele>306.00000</ele>
        <time>2010-01-01T02:35:58Z</time>
      </trkpt>
      <trkpt lat="31.66200110" lon="34.95046270">
        <ele>307.00000</ele>
        <time>2010-01-01T02:36:03Z</time>
      </trkpt>
      <trkpt lat="31.66207750" lon="34.95035750">
        <ele>307.00000</ele>
        <time>2010-01-01T02:36:07Z</time>
      </trkpt>
      <trkpt lat="31.66214310" lon="34.95023250">
        <ele>306.00000</ele>
        <time>2010-01-01T02:36:12Z</time>
      </trkpt>
      <trkpt lat="31.66220360" lon="34.95008670">
        <ele>304.00000</ele>
        <time>2010-01-01T02:36:18Z</time>
      </trkpt>
      <trkpt lat="31.66224810" lon="34.94990740">
        <ele>303.00000</ele>
        <time>2010-01-01T02:36:24Z</time>
      </trkpt>
      <trkpt lat="31.66227630" lon="34.94969450">
        <ele>300.00000</ele>
        <time>2010-01-01T02:36:32Z</time>
      </trkpt>
      <trkpt lat="31.66229030" lon="34.94958050">
        <ele>299.00000</ele>
        <time>2010-01-01T02:36:35Z</time>
      </trkpt>
      <trkpt lat="31.66230490" lon="34.94946320">
        <ele>298.00000</ele>
        <time>2010-01-01T02:36:39Z</time>
      </trkpt>
      <trkpt lat="31.66231890" lon="34.94934380">
        <ele>297.00000</ele>
        <time>2010-01-01T02:36:44Z</time>
      </trkpt>
      <trkpt lat="31.66232820" lon="34.94922290">
        <ele>297.00000</ele>
        <time>2010-01-01T02:36:48Z</time>
      </trkpt>
      <trkpt lat="31.66233340" lon="34.94910120">
        <ele>297.00000</ele>
        <time>2010-01-01T02:36:52Z</time>
      </trkpt>
      <trkpt lat="31.66234060" lon="34.94897790">
        <ele>297.00000</ele>
        <time>2010-01-01T02:36:56Z</time>
      </trkpt>
      <trkpt lat="31.66235080" lon="34.94885400">
        <ele>297.00000</ele>
        <time>2010-01-01T02:37:00Z</time>
      </trkpt>
      <trkpt lat="31.66236390" lon="34.94873000">
        <ele>296.00000</ele>
        <time>2010-01-01T02:37:05Z</time>
      </trkpt>
      <trkpt lat="31.66238730" lon="34.94860940">
        <ele>295.00000</ele>
        <time>2010-01-01T02:37:09Z</time>
      </trkpt>
      <trkpt lat="31.66242740" lon="34.94849430">
        <ele>295.00000</ele>
        <time>2010-01-01T02:37:13Z</time>
      </trkpt>
      <trkpt lat="31.66247720" lon="34.94838470">
        <ele>295.00000</ele>
        <time>2010-01-01T02:37:17Z</time>
      </trkpt>
      <trkpt lat="31.66253210" lon="34.94827750">
        <ele>294.00000</ele>
        <time>2010-01-01T02:37:22Z</time>
      </trkpt>
      <trkpt lat="31.66258860" lon="34.94817230">
        <ele>294.00000</ele>
        <time>2010-01-01T02:37:26Z</time>
      </trkpt>
      <trkpt lat="31.66264950" lon="34.94807240">
        <ele>293.00000</ele>
        <time>2010-01-01T02:37:30Z</time>
      </trkpt>
      <trkpt lat="31.66271720" lon="34.94797830">
        <ele>293.00000</ele>
        <time>2010-01-01T02:37:34Z</time>
      </trkpt>
      <trkpt lat="31.66279080" lon="34.94788930">
        <ele>293.00000</ele>
        <time>2010-01-01T02:37:38Z</time>
      </trkpt>
      <trkpt lat="31.66286900" lon="34.94780550">
        <ele>292.00000</ele>
        <time>2010-01-01T02:37:43Z</time>
      </trkpt>
      <trkpt lat="31.66295070" lon="34.94772710">
        <ele>292.00000</ele>
        <time>2010-01-01T02:37:47Z</time>
      </trkpt>
      <trkpt lat="31.66303460" lon="34.94765390">
        <ele>291.00000</ele>
        <time>2010-01-01T02:37:51Z</time>
      </trkpt>
      <trkpt lat="31.66311930" lon="34.94758260">
        <ele>290.00000</ele>
        <time>2010-01-01T02:37:55Z</time>
      </trkpt>
      <trkpt lat="31.66320120" lon="34.94751080">
        <ele>290.00000</ele>
        <time>2010-01-01T02:37:59Z</time>
      </trkpt>
      <trkpt lat="31.66328450" lon="34.94744600">
        <ele>289.00000</ele>
        <time>2010-01-01T02:38:03Z</time>
      </trkpt>
      <trkpt lat="31.66337160" lon="34.94739820">
        <ele>289.00000</ele>
        <time>2010-01-01T02:38:07Z</time>
      </trkpt>
      <trkpt lat="31.66346160" lon="34.94737040">
        <ele>289.00000</ele>
        <time>2010-01-01T02:38:11Z</time>
      </trkpt>
      <trkpt lat="31.66363640" lon="34.94735220">
        <ele>289.00000</ele>
        <time>2010-01-01T02:38:18Z</time>
      </trkpt>
      <trkpt lat="31.66380060" lon="34.94734650">
        <ele>290.00000</ele>
        <time>2010-01-01T02:38:24Z</time>
      </trkpt>
      <trkpt lat="31.66394680" lon="34.94729950">
        <ele>290.00000</ele>
        <time>2010-01-01T02:38:31Z</time>
      </trkpt>
      <trkpt lat="31.66404280" lon="34.94717000">
        <ele>290.00000</ele>
        <time>2010-01-01T02:38:36Z</time>
      </trkpt>
      <trkpt lat="31.66409600" lon="34.94699480">
        <ele>290.00000</ele>
        <time>2010-01-01T02:38:43Z</time>
      </trkpt>
      <trkpt lat="31.66414450" lon="34.94680610">
        <ele>289.00000</ele>
        <time>2010-01-01T02:38:49Z</time>
      </trkpt>
      <trkpt lat="31.66419550" lon="34.94661130">
        <ele>289.00000</ele>
        <time>2010-01-01T02:38:56Z</time>
      </trkpt>
      <trkpt lat="31.66425680" lon="34.94641370">
        <ele>288.00000</ele>
        <time>2010-01-01T02:39:04Z</time>
      </trkpt>
      <trkpt lat="31.66430580" lon="34.94632490">
        <ele>288.00000</ele>
        <time>2010-01-01T02:39:07Z</time>
      </trkpt>
      <trkpt lat="31.66437090" lon="34.94625300">
        <ele>288.00000</ele>
        <time>2010-01-01T02:39:11Z</time>
      </trkpt>
      <trkpt lat="31.66452380" lon="34.94614000">
        <ele>288.00000</ele>
        <time>2010-01-01T02:39:18Z</time>
      </trkpt>
      <trkpt lat="31.66468620" lon="34.94604870">
        <ele>287.00000</ele>
        <time>2010-01-01T02:39:25Z</time>
      </trkpt>
      <trkpt lat="31.66485750" lon="34.94598380">
        <ele>286.00000</ele>
        <time>2010-01-01T02:39:32Z</time>
      </trkpt>
      <trkpt lat="31.66503150" lon="34.94594750">
        <ele>286.00000</ele>
        <time>2010-01-01T02:39:39Z</time>
      </trkpt>
      <trkpt lat="31.66520190" lon="34.94593260">
        <ele>285.00000</ele>
        <time>2010-01-01T02:39:46Z</time>
      </trkpt>
      <trkpt lat="31.66536490" lon="34.94592230">
        <ele>285.00000</ele>
        <time>2010-01-01T02:39:53Z</time>
      </trkpt>
      <trkpt lat="31.66552330" lon="34.94590810">
        <ele>285.00000</ele>
        <time>2010-01-01T02:39:59Z</time>
      </trkpt>
      <trkpt lat="31.66568110" lon="34.94589060">
        <ele>285.00000</ele>
        <time>2010-01-01T02:40:06Z</time>
      </trkpt>
      <trkpt lat="31.66583920" lon="34.94585980">
        <ele>284.00000</ele>
        <time>2010-01-01T02:40:12Z</time>
      </trkpt>
      <trkpt lat="31.66599710" lon="34.94581870">
        <ele>283.00000</ele>
        <time>2010-01-01T02:40:18Z</time>
      </trkpt>
      <trkpt lat="31.66615720" lon="34.94577270">
        <ele>282.00000</ele>
        <time>2010-01-01T02:40:25Z</time>
      </trkpt>
      <trkpt lat="31.66632320" lon="34.94572880">
        <ele>281.00000</ele>
        <time>2010-01-01T02:40:32Z</time>
      </trkpt>
      <trkpt lat="31.66649640" lon="34.94568960">
        <ele>281.00000</ele>
        <time>2010-01-01T02:40:39Z</time>
      </trkpt>
      <trkpt lat="31.66667290" lon="34.94563910">
        <ele>281.00000</ele>
        <time>2010-01-01T02:40:46Z</time>
      </trkpt>
      <trkpt lat="31.66676170" lon="34.94561710">
        <ele>282.00000</ele>
        <time>2010-01-01T02:40:50Z</time>
      </trkpt>
      <trkpt lat="31.66693730" lon="34.94558480">
        <ele>282.00000</ele>
        <time>2010-01-01T02:40:57Z</time>
      </trkpt>
      <trkpt lat="31.66710460" lon="34.94555410">
        <ele>283.00000</ele>
        <time>2010-01-01T02:41:04Z</time>
      </trkpt>
      <trkpt lat="31.66726320" lon="34.94552730">
        <ele>284.00000</ele>
        <time>2010-01-01T02:41:10Z</time>
      </trkpt>
      <trkpt lat="31.66741330" lon="34.94551450">
        <ele>285.00000</ele>
        <time>2010-01-01T02:41:16Z</time>
      </trkpt>
      <trkpt lat="31.66754850" lon="34.94552650">
        <ele>285.00000</ele>
        <time>2010-01-01T02:41:22Z</time>
      </trkpt>
      <trkpt lat="31.66766510" lon="34.94556030">
        <ele>285.00000</ele>
        <time>2010-01-01T02:41:26Z</time>
      </trkpt>
      <trkpt lat="31.66777440" lon="34.94559240">
        <ele>285.00000</ele>
        <time>2010-01-01T02:41:31Z</time>
      </trkpt>
      <trkpt lat="31.66788240" lon="34.94562550">
        <ele>284.00000</ele>
        <time>2010-01-01T02:41:35Z</time>
      </trkpt>
      <trkpt lat="31.66798730" lon="34.94564290">
        <ele>284.00000</ele>
        <time>2010-01-01T02:41:40Z</time>
      </trkpt>
      <trkpt lat="31.66810810" lon="34.94565450">
        <ele>283.00000</ele>
        <time>2010-01-01T02:41:44Z</time>
      </trkpt>
      <trkpt lat="31.66818800" lon="34.94567530">
        <ele>283.00000</ele>
        <time>2010-01-01T02:41:48Z</time>
      </trkpt>
      <trkpt lat="31.66826160" lon="34.94575270">
        <ele>283.00000</ele>
        <time>2010-01-01T02:41:52Z</time>
      </trkpt>
      <trkpt lat="31.66833990" lon="34.94580910">
        <ele>283.00000</ele>
        <time>2010-01-01T02:41:55Z</time>
      </trkpt>
      <trkpt lat="31.66842850" lon="34.94577160">
        <ele>284.00000</ele>
        <time>2010-01-01T02:41:59Z</time>
      </trkpt>
      <trkpt lat="31.66848810" lon="34.94566980">
        <ele>284.00000</ele>
        <time>2010-01-01T02:42:03Z</time>
      </trkpt>
      <trkpt lat="31.66855840" lon="34.94558680">
        <ele>285.00000</ele>
        <time>2010-01-01T02:42:07Z</time>
      </trkpt>
      <trkpt lat="31.66862230" lon="34.94549640">
        <ele>286.00000</ele>
        <time>2010-01-01T02:42:11Z</time>
      </trkpt>
      <trkpt lat="31.66867630" lon="34.94539790">
        <ele>286.00000</ele>
        <time>2010-01-01T02:42:15Z</time>
      </trkpt>
      <trkpt lat="31.66873420" lon="34.94529730">
        <ele>286.00000</ele>
        <time>2010-01-01T02:42:19Z</time>
      </trkpt>
      <trkpt lat="31.66880400" lon="34.94518770">
        <ele>286.00000</ele>
        <time>2010-01-01T02:42:24Z</time>
      </trkpt>
      <trkpt lat="31.66887460" lon="34.94507020">
        <ele>286.00000</ele>
        <time>2010-01-01T02:42:29Z</time>
      </trkpt>
      <trkpt lat="31.66894630" lon="34.94494820">
        <ele>286.00000</ele>
        <time>2010-01-01T02:42:34Z</time>
      </trkpt>
      <trkpt lat="31.66900760" lon="34.94485030">
        <ele>285.00000</ele>
        <time>2010-01-01T02:42:38Z</time>
      </trkpt>
      <trkpt lat="31.66907020" lon="34.94474980">
        <ele>284.00000</ele>
        <time>2010-01-01T02:42:42Z</time>
      </trkpt>
      <trkpt lat="31.66913930" lon="34.94464910">
        <ele>284.00000</ele>
        <time>2010-01-01T02:42:47Z</time>
      </trkpt>
      <trkpt lat="31.66920950" lon="34.94453190">
        <ele>283.00000</ele>
        <time>2010-01-01T02:42:52Z</time>
      </trkpt>
      <trkpt lat="31.66926220" lon="34.94444640">
        <ele>283.00000</ele>
        <time>2010-01-01T02:42:55Z</time>
      </trkpt>
      <trkpt lat="31.66934290" lon="34.94432060">
        <ele>283.00000</ele>
        <time>2010-01-01T02:43:01Z</time>
      </trkpt>
      <trkpt lat="31.66939070" lon="34.94422620">
        <ele>283.00000</ele>
        <time>2010-01-01T02:43:04Z</time>
      </trkpt>
      <trkpt lat="31.66944940" lon="34.94413110">
        <ele>282.00000</ele>
        <time>2010-01-01T02:43:08Z</time>
      </trkpt>
      <trkpt lat="31.66951130" lon="34.94404470">
        <ele>283.00000</ele>
        <time>2010-01-01T02:43:12Z</time>
      </trkpt>
      <trkpt lat="31.66957440" lon="34.94395810">
        <ele>283.00000</ele>
        <time>2010-01-01T02:43:16Z</time>
      </trkpt>
      <trkpt lat="31.66964440" lon="34.94386740">
        <ele>283.00000</ele>
        <time>2010-01-01T02:43:20Z</time>
      </trkpt>
      <trkpt lat="31.66972060" lon="34.94377610">
        <ele>282.00000</ele>
        <time>2010-01-01T02:43:25Z</time>
      </trkpt>
      <trkpt lat="31.66980050" lon="34.94368490">
        <ele>282.00000</ele>
        <time>2010-01-01T02:43:29Z</time>
      </trkpt>
      <trkpt lat="31.66987570" lon="34.94359130">
        <ele>281.00000</ele>
        <time>2010-01-01T02:43:34Z</time>
      </trkpt>
      <trkpt lat="31.66994220" lon="34.94350480">
        <ele>280.00000</ele>
        <time>2010-01-01T02:43:37Z</time>
      </trkpt>
      <trkpt lat="31.67000730" lon="34.94342070">
        <ele>279.00000</ele>
        <time>2010-01-01T02:43:41Z</time>
      </trkpt>
      <trkpt lat="31.67005410" lon="34.94328150">
        <ele>278.00000</ele>
        <time>2010-01-01T02:43:46Z</time>
      </trkpt>
      <trkpt lat="31.67001320" lon="34.94318430">
        <ele>277.00000</ele>
        <time>2010-01-01T02:43:50Z</time>
      </trkpt>
      <trkpt lat="31.66992890" lon="34.94312480">
        <ele>276.00000</ele>
        <time>2010-01-01T02:43:54Z</time>
      </trkpt>
      <trkpt lat="31.66982520" lon="34.94308200">
        <ele>275.00000</ele>
        <time>2010-01-01T02:43:58Z</time>
      </trkpt>
      <trkpt lat="31.66971980" lon="34.94302650">
        <ele>274.00000</ele>
        <time>2010-01-01T02:44:03Z</time>
      </trkpt>
      <trkpt lat="31.66961180" lon="34.94296800">
        <ele>274.00000</ele>
        <time>2010-01-01T02:44:08Z</time>
      </trkpt>
      <trkpt lat="31.66950090" lon="34.94290750">
        <ele>273.00000</ele>
        <time>2010-01-01T02:44:13Z</time>
      </trkpt>
      <trkpt lat="31.66939390" lon="34.94283890">
        <ele>274.00000</ele>
        <time>2010-01-01T02:44:18Z</time>
      </trkpt>
      <trkpt lat="31.66930520" lon="34.94275950">
        <ele>274.00000</ele>
        <time>2010-01-01T02:44:22Z</time>
      </trkpt>
      <trkpt lat="31.66923930" lon="34.94267810">
        <ele>275.00000</ele>
        <time>2010-01-01T02:44:26Z</time>
      </trkpt>
      <trkpt lat="31.66918780" lon="34.94257950">
        <ele>275.00000</ele>
        <time>2010-01-01T02:44:30Z</time>
      </trkpt>
      <trkpt lat="31.66917880" lon="34.94245840">
        <ele>275.00000</ele>
        <time>2010-01-01T02:44:34Z</time>
      </trkpt>
      <trkpt lat="31.66917940" lon="34.94232630">
        <ele>275.00000</ele>
        <time>2010-01-01T02:44:39Z</time>
      </trkpt>
      <trkpt lat="31.66915330" lon="34.94222320">
        <ele>276.00000</ele>
        <time>2010-01-01T02:44:42Z</time>
      </trkpt>
      <trkpt lat="31.66909530" lon="34.94211810">
        <ele>276.00000</ele>
        <time>2010-01-01T02:44:46Z</time>
      </trkpt>
      <trkpt lat="31.66902960" lon="34.94202330">
        <ele>276.00000</ele>
        <time>2010-01-01T02:44:51Z</time>
      </trkpt>
      <trkpt lat="31.66896580" lon="34.94194230">
        <ele>276.00000</ele>
        <time>2010-01-01T02:44:54Z</time>
      </trkpt>
      <trkpt lat="31.66889310" lon="34.94186960">
        <ele>277.00000</ele>
        <time>2010-01-01T02:44:58Z</time>
      </trkpt>
      <trkpt lat="31.66882350" lon="34.94179280">
        <ele>278.00000</ele>
        <time>2010-01-01T02:45:02Z</time>
      </trkpt>
      <trkpt lat="31.66875260" lon="34.94171770">
        <ele>279.00000</ele>
        <time>2010-01-01T02:45:06Z</time>
      </trkpt>
      <trkpt lat="31.66868260" lon="34.94164460">
        <ele>280.00000</ele>
        <time>2010-01-01T02:45:10Z</time>
      </trkpt>
      <trkpt lat="31.66860950" lon="34.94157370">
        <ele>281.00000</ele>
        <time>2010-01-01T02:45:13Z</time>
      </trkpt>
      <trkpt lat="31.66853950" lon="34.94150230">
        <ele>282.00000</ele>
        <time>2010-01-01T02:45:17Z</time>
      </trkpt>
      <trkpt lat="31.66847000" lon="34.94142970">
        <ele>283.00000</ele>
        <time>2010-01-01T02:45:21Z</time>
      </trkpt>
      <trkpt lat="31.66839850" lon="34.94136220">
        <ele>283.00000</ele>
        <time>2010-01-01T02:45:25Z</time>
      </trkpt>
      <trkpt lat="31.66833020" lon="34.94129170">
        <ele>284.00000</ele>
        <time>2010-01-01T02:45:28Z</time>
      </trkpt>
      <trkpt lat="31.66826380" lon="34.94121680">
        <ele>285.00000</ele>
        <time>2010-01-01T02:45:32Z</time>
      </trkpt>
      <trkpt lat="31.66818520" lon="34.94113200">
        <ele>286.00000</ele>
        <time>2010-01-01T02:45:36Z</time>
      </trkpt>
      <trkpt lat="31.66810290" lon="34.94104720">
        <ele>287.00000</ele>
        <time>2010-01-01T02:45:40Z</time>
      </trkpt>
      <trkpt lat="31.66803230" lon="34.94097820">
        <ele>288.00000</ele>
        <time>2010-01-01T02:45:44Z</time>
      </trkpt>
      <trkpt lat="31.66795940" lon="34.94091210">
        <ele>289.00000</ele>
        <time>2010-01-01T02:45:48Z</time>
      </trkpt>
      <trkpt lat="31.66788630" lon="34.94084220">
        <ele>290.00000</ele>
        <time>2010-01-01T02:45:52Z</time>
      </trkpt>
      <trkpt lat="31.66781010" lon="34.94075620">
        <ele>290.00000</ele>
        <time>2010-01-01T02:45:56Z</time>
      </trkpt>
      <trkpt lat="31.66773920" lon="34.94066980">
        <ele>291.00000</ele>
        <time>2010-01-01T02:46:00Z</time>
      </trkpt>
      <trkpt lat="31.66767400" lon="34.94059530">
        <ele>291.00000</ele>
        <time>2010-01-01T02:46:04Z</time>
      </trkpt>
      <trkpt lat="31.66760440" lon="34.94052450">
        <ele>292.00000</ele>
        <time>2010-01-01T02:46:07Z</time>
      </trkpt>
      <trkpt lat="31.66750520" lon="34.94049020">
        <ele>293.00000</ele>
        <time>2010-01-01T02:46:11Z</time>
      </trkpt>
      <trkpt lat="31.66740500" lon="34.94048590">
        <ele>294.00000</ele>
        <time>2010-01-01T02:46:15Z</time>
      </trkpt>
      <trkpt lat="31.66730760" lon="34.94047740">
        <ele>296.00000</ele>
        <time>2010-01-01T02:46:19Z</time>
      </trkpt>
      <trkpt lat="31.66721000" lon="34.94047640">
        <ele>297.00000</ele>
        <time>2010-01-01T02:46:23Z</time>
      </trkpt>
      <trkpt lat="31.66710550" lon="34.94047200">
        <ele>298.00000</ele>
        <time>2010-01-01T02:46:27Z</time>
      </trkpt>
      <trkpt lat="31.66701060" lon="34.94047260">
        <ele>299.00000</ele>
        <time>2010-01-01T02:46:31Z</time>
      </trkpt>
      <trkpt lat="31.66690290" lon="34.94046940">
        <ele>300.00000</ele>
        <time>2010-01-01T02:46:36Z</time>
      </trkpt>
      <trkpt lat="31.66680240" lon="34.94046560">
        <ele>301.00000</ele>
        <time>2010-01-01T02:46:40Z</time>
      </trkpt>
      <trkpt lat="31.66670790" lon="34.94046230">
        <ele>302.00000</ele>
        <time>2010-01-01T02:46:43Z</time>
      </trkpt>
      <trkpt lat="31.66660520" lon="34.94045470">
        <ele>303.00000</ele>
        <time>2010-01-01T02:46:47Z</time>
      </trkpt>
      <trkpt lat="31.66650310" lon="34.94044960">
        <ele>303.00000</ele>
        <time>2010-01-01T02:46:52Z</time>
      </trkpt>
      <trkpt lat="31.66640870" lon="34.94045220">
        <ele>304.00000</ele>
        <time>2010-01-01T02:46:55Z</time>
      </trkpt>
      <trkpt lat="31.66630660" lon="34.94044850">
        <ele>305.00000</ele>
        <time>2010-01-01T02:46:59Z</time>
      </trkpt>
      <trkpt lat="31.66621060" lon="34.94043960">
        <ele>305.00000</ele>
        <time>2010-01-01T02:47:03Z</time>
      </trkpt>
      <trkpt lat="31.66611730" lon="34.94044350">
        <ele>306.00000</ele>
        <time>2010-01-01T02:47:07Z</time>
      </trkpt>
      <trkpt lat="31.66602020" lon="34.94041930">
        <ele>307.00000</ele>
        <time>2010-01-01T02:47:11Z</time>
      </trkpt>
      <trkpt lat="31.66592200" lon="34.94039510">
        <ele>308.00000</ele>
        <time>2010-01-01T02:47:15Z</time>
      </trkpt>
      <trkpt lat="31.66583000" lon="34.94038320">
        <ele>309.00000</ele>
        <time>2010-01-01T02:47:19Z</time>
      </trkpt>
      <trkpt lat="31.66573620" lon="34.94035940">
        <ele>310.00000</ele>
        <time>2010-01-01T02:47:23Z</time>
      </trkpt>
      <trkpt lat="31.66565170" lon="34.94031090">
        <ele>311.00000</ele>
        <time>2010-01-01T02:47:26Z</time>
      </trkpt>
      <trkpt lat="31.66563710" lon="34.94021460">
        <ele>313.00000</ele>
        <time>2010-01-01T02:47:30Z</time>
      </trkpt>
      <trkpt lat="31.66572770" lon="34.94016620">
        <ele>312.00000</ele>
        <time>2010-01-01T02:47:34Z</time>
      </trkpt>
      <trkpt lat="31.66582920" lon="34.94013980">
        <ele>312.00000</ele>
        <time>2010-01-01T02:47:38Z</time>
      </trkpt>
      <trkpt lat="31.66592880" lon="34.94011340">
        <ele>312.00000</ele>
        <time>2010-01-01T02:47:42Z</time>
      </trkpt>
      <trkpt lat="31.66601770" lon="34.94009250">
        <ele>311.00000</ele>
        <time>2010-01-01T02:47:46Z</time>
      </trkpt>
      <trkpt lat="31.66612110" lon="34.94006660">
        <ele>311.00000</ele>
        <time>2010-01-01T02:47:50Z</time>
      </trkpt>
      <trkpt lat="31.66623530" lon="34.94004010">
        <ele>311.00000</ele>
        <time>2010-01-01T02:47:54Z</time>
      </trkpt>
      <trkpt lat="31.66635840" lon="34.94001030">
        <ele>311.00000</ele>
        <time>2010-01-01T02:47:59Z</time>
      </trkpt>
      <trkpt lat="31.66648360" lon="34.93997810">
        <ele>311.00000</ele>
        <time>2010-01-01T02:48:05Z</time>
      </trkpt>
      <trkpt lat="31.66660280" lon="34.93994630">
        <ele>311.00000</ele>
        <time>2010-01-01T02:48:09Z</time>
      </trkpt>
      <trkpt lat="31.66671850" lon="34.93991020">
        <ele>310.00000</ele>
        <time>2010-01-01T02:48:14Z</time>
      </trkpt>
      <trkpt lat="31.66683250" lon="34.93985910">
        <ele>310.00000</ele>
        <time>2010-01-01T02:48:19Z</time>
      </trkpt>
      <trkpt lat="31.66693500" lon="34.93979080">
        <ele>310.00000</ele>
        <time>2010-01-01T02:48:24Z</time>
      </trkpt>
      <trkpt lat="31.66703620" lon="34.93969530">
        <ele>309.00000</ele>
        <time>2010-01-01T02:48:29Z</time>
      </trkpt>
      <trkpt lat="31.66710270" lon="34.93961130">
        <ele>309.00000</ele>
        <time>2010-01-01T02:48:33Z</time>
      </trkpt>
      <trkpt lat="31.66717710" lon="34.93951770">
        <ele>310.00000</ele>
        <time>2010-01-01T02:48:37Z</time>
      </trkpt>
      <trkpt lat="31.66725960" lon="34.93942560">
        <ele>310.00000</ele>
        <time>2010-01-01T02:48:42Z</time>
      </trkpt>
      <trkpt lat="31.66734290" lon="34.93932880">
        <ele>310.00000</ele>
        <time>2010-01-01T02:48:47Z</time>
      </trkpt>
      <trkpt lat="31.66742170" lon="34.93922960">
        <ele>310.00000</ele>
        <time>2010-01-01T02:48:51Z</time>
      </trkpt>
      <trkpt lat="31.66748990" lon="34.93912930">
        <ele>310.00000</ele>
        <time>2010-01-01T02:48:56Z</time>
      </trkpt>
      <trkpt lat="31.66754210" lon="34.93902390">
        <ele>310.00000</ele>
        <time>2010-01-01T02:49:00Z</time>
      </trkpt>
      <trkpt lat="31.66758390" lon="34.93891740">
        <ele>310.00000</ele>
        <time>2010-01-01T02:49:04Z</time>
      </trkpt>
      <trkpt lat="31.66761940" lon="34.93881090">
        <ele>311.00000</ele>
        <time>2010-01-01T02:49:08Z</time>
      </trkpt>
      <trkpt lat="31.66766990" lon="34.93871520">
        <ele>312.00000</ele>
        <time>2010-01-01T02:49:11Z</time>
      </trkpt>
      <trkpt lat="31.66774930" lon="34.93865600">
        <ele>311.00000</ele>
        <time>2010-01-01T02:49:15Z</time>
      </trkpt>
      <trkpt lat="31.66783810" lon="34.93865260">
        <ele>311.00000</ele>
        <time>2010-01-01T02:49:19Z</time>
      </trkpt>
      <trkpt lat="31.66791190" lon="34.93871740">
        <ele>311.00000</ele>
        <time>2010-01-01T02:49:22Z</time>
      </trkpt>
      <trkpt lat="31.66796080" lon="34.93882070">
        <ele>310.00000</ele>
        <time>2010-01-01T02:49:26Z</time>
      </trkpt>
      <trkpt lat="31.66800820" lon="34.93892590">
        <ele>309.00000</ele>
        <time>2010-01-01T02:49:31Z</time>
      </trkpt>
      <trkpt lat="31.66806510" lon="34.93903200">
        <ele>309.00000</ele>
        <time>2010-01-01T02:49:35Z</time>
      </trkpt>
      <trkpt lat="31.66812240" lon="34.93914240">
        <ele>309.00000</ele>
        <time>2010-01-01T02:49:39Z</time>
      </trkpt>
      <trkpt lat="31.66818920" lon="34.93924920">
        <ele>308.00000</ele>
        <time>2010-01-01T02:49:44Z</time>
      </trkpt>
      <trkpt lat="31.66826550" lon="34.93934930">
        <ele>308.00000</ele>
        <time>2010-01-01T02:49:48Z</time>
      </trkpt>
      <trkpt lat="31.66834830" lon="34.93944990">
        <ele>309.00000</ele>
        <time>2010-01-01T02:49:53Z</time>
      </trkpt>
      <trkpt lat="31.66843820" lon="34.93954470">
        <ele>307.00000</ele>
        <time>2010-01-01T02:49:58Z</time>
      </trkpt>
      <trkpt lat="31.66853990" lon="34.93962320">
        <ele>306.00000</ele>
        <time>2010-01-01T02:50:03Z</time>
      </trkpt>
      <trkpt lat="31.66864860" lon="34.93968600">
        <ele>305.00000</ele>
        <time>2010-01-01T02:50:08Z</time>
      </trkpt>
      <trkpt lat="31.66876360" lon="34.93971940">
        <ele>304.00000</ele>
        <time>2010-01-01T02:50:12Z</time>
      </trkpt>
      <trkpt lat="31.66887600" lon="34.93972810">
        <ele>303.00000</ele>
        <time>2010-01-01T02:50:17Z</time>
      </trkpt>
      <trkpt lat="31.66898790" lon="34.93972050">
        <ele>304.00000</ele>
        <time>2010-01-01T02:50:21Z</time>
      </trkpt>
      <trkpt lat="31.66909960" lon="34.93968550">
        <ele>304.00000</ele>
        <time>2010-01-01T02:50:26Z</time>
      </trkpt>
      <trkpt lat="31.66920050" lon="34.93962600">
        <ele>304.00000</ele>
        <time>2010-01-01T02:50:31Z</time>
      </trkpt>
      <trkpt lat="31.66928720" lon="34.93955460">
        <ele>305.00000</ele>
        <time>2010-01-01T02:50:35Z</time>
      </trkpt>
      <trkpt lat="31.66935740" lon="34.93947410">
        <ele>305.00000</ele>
        <time>2010-01-01T02:50:39Z</time>
      </trkpt>
      <trkpt lat="31.66942110" lon="34.93938710">
        <ele>305.00000</ele>
        <time>2010-01-01T02:50:43Z</time>
      </trkpt>
      <trkpt lat="31.66948470" lon="34.93929630">
        <ele>306.00000</ele>
        <time>2010-01-01T02:50:47Z</time>
      </trkpt>
      <trkpt lat="31.66953490" lon="34.93919540">
        <ele>306.00000</ele>
        <time>2010-01-01T02:50:51Z</time>
      </trkpt>
      <trkpt lat="31.66956840" lon="34.93908770">
        <ele>306.00000</ele>
        <time>2010-01-01T02:50:54Z</time>
      </trkpt>
      <trkpt lat="31.66959440" lon="34.93898030">
        <ele>306.00000</ele>
        <time>2010-01-01T02:50:58Z</time>
      </trkpt>
      <trkpt lat="31.66961730" lon="34.93887270">
        <ele>306.00000</ele>
        <time>2010-01-01T02:51:02Z</time>
      </trkpt>
      <trkpt lat="31.66964850" lon="34.93872000">
        <ele>305.00000</ele>
        <time>2010-01-01T02:51:07Z</time>
      </trkpt>
      <trkpt lat="31.66967600" lon="34.93857200">
        <ele>305.00000</ele>
        <time>2010-01-01T02:51:13Z</time>
      </trkpt>
      <trkpt lat="31.66969040" lon="34.93843130">
        <ele>305.00000</ele>
        <time>2010-01-01T02:51:17Z</time>
      </trkpt>
      <trkpt lat="31.66970580" lon="34.93829370">
        <ele>306.00000</ele>
        <time>2010-01-01T02:51:22Z</time>
      </trkpt>
      <trkpt lat="31.66971410" lon="34.93815780">
        <ele>308.00000</ele>
        <time>2010-01-01T02:51:27Z</time>
      </trkpt>
      <trkpt lat="31.66971530" lon="34.93801800">
        <ele>309.00000</ele>
        <time>2010-01-01T02:51:32Z</time>
      </trkpt>
      <trkpt lat="31.66971220" lon="34.93787750">
        <ele>309.00000</ele>
        <time>2010-01-01T02:51:36Z</time>
      </trkpt>
      <trkpt lat="31.66970040" lon="34.93773500">
        <ele>310.00000</ele>
        <time>2010-01-01T02:51:41Z</time>
      </trkpt>
      <trkpt lat="31.66968210" lon="34.93759240">
        <ele>309.00000</ele>
        <time>2010-01-01T02:51:46Z</time>
      </trkpt>
      <trkpt lat="31.66965010" lon="34.93746180">
        <ele>309.00000</ele>
        <time>2010-01-01T02:51:51Z</time>
      </trkpt>
      <trkpt lat="31.66961350" lon="34.93735390">
        <ele>309.00000</ele>
        <time>2010-01-01T02:51:55Z</time>
      </trkpt>
      <trkpt lat="31.66956770" lon="34.93724570">
        <ele>309.00000</ele>
        <time>2010-01-01T02:51:59Z</time>
      </trkpt>
      <trkpt lat="31.66952300" lon="34.93713990">
        <ele>310.00000</ele>
        <time>2010-01-01T02:52:03Z</time>
      </trkpt>
      <trkpt lat="31.66948340" lon="34.93702920">
        <ele>310.00000</ele>
        <time>2010-01-01T02:52:07Z</time>
      </trkpt>
      <trkpt lat="31.66944280" lon="34.93692910">
        <ele>309.00000</ele>
        <time>2010-01-01T02:52:11Z</time>
      </trkpt>
      <trkpt lat="31.66940150" lon="34.93683230">
        <ele>310.00000</ele>
        <time>2010-01-01T02:52:14Z</time>
      </trkpt>
      <trkpt lat="31.66936040" lon="34.93672870">
        <ele>311.00000</ele>
        <time>2010-01-01T02:52:18Z</time>
      </trkpt>
      <trkpt lat="31.66932170" lon="34.93661940">
        <ele>312.00000</ele>
        <time>2010-01-01T02:52:22Z</time>
      </trkpt>
      <trkpt lat="31.66927950" lon="34.93651220">
        <ele>312.00000</ele>
        <time>2010-01-01T02:52:26Z</time>
      </trkpt>
      <trkpt lat="31.66923590" lon="34.93640030">
        <ele>312.00000</ele>
        <time>2010-01-01T02:52:31Z</time>
      </trkpt>
      <trkpt lat="31.66918510" lon="34.93629150">
        <ele>312.00000</ele>
        <time>2010-01-01T02:52:35Z</time>
      </trkpt>
      <trkpt lat="31.66913860" lon="34.93618590">
        <ele>313.00000</ele>
        <time>2010-01-01T02:52:39Z</time>
      </trkpt>
      <trkpt lat="31.66908880" lon="34.93608640">
        <ele>313.00000</ele>
        <time>2010-01-01T02:52:43Z</time>
      </trkpt>
      <trkpt lat="31.66903930" lon="34.93599790">
        <ele>313.00000</ele>
        <time>2010-01-01T02:52:46Z</time>
      </trkpt>
      <trkpt lat="31.66898620" lon="34.93591280">
        <ele>313.00000</ele>
        <time>2010-01-01T02:52:50Z</time>
      </trkpt>
      <trkpt lat="31.66892750" lon="34.93581180">
        <ele>313.00000</ele>
        <time>2010-01-01T02:52:54Z</time>
      </trkpt>
      <trkpt lat="31.66887200" lon="34.93572530">
        <ele>313.00000</ele>
        <time>2010-01-01T02:52:58Z</time>
      </trkpt>
      <trkpt lat="31.66881490" lon="34.93563890">
        <ele>312.00000</ele>
        <time>2010-01-01T02:53:02Z</time>
      </trkpt>
      <trkpt lat="31.66875160" lon="34.93555870">
        <ele>313.00000</ele>
        <time>2010-01-01T02:53:05Z</time>
      </trkpt>
      <trkpt lat="31.66867470" lon="34.93547560">
        <ele>313.00000</ele>
        <time>2010-01-01T02:53:09Z</time>
      </trkpt>
      <trkpt lat="31.66857900" lon="34.93539900">
        <ele>313.00000</ele>
        <time>2010-01-01T02:53:14Z</time>
      </trkpt>
      <trkpt lat="31.66847530" lon="34.93532640">
        <ele>314.00000</ele>
        <time>2010-01-01T02:53:19Z</time>
      </trkpt>
      <trkpt lat="31.66836590" lon="34.93523740">
        <ele>315.00000</ele>
        <time>2010-01-01T02:53:24Z</time>
      </trkpt>
      <trkpt lat="31.66824780" lon="34.93514520">
        <ele>314.00000</ele>
        <time>2010-01-01T02:53:30Z</time>
      </trkpt>
      <trkpt lat="31.66816450" lon="34.93508200">
        <ele>314.00000</ele>
        <time>2010-01-01T02:53:34Z</time>
      </trkpt>
      <trkpt lat="31.66807720" lon="34.93502190">
        <ele>314.00000</ele>
        <time>2010-01-01T02:53:38Z</time>
      </trkpt>
      <trkpt lat="31.66798990" lon="34.93496250">
        <ele>313.00000</ele>
        <time>2010-01-01T02:53:42Z</time>
      </trkpt>
      <trkpt lat="31.66789990" lon="34.93490740">
        <ele>313.00000</ele>
        <time>2010-01-01T02:53:46Z</time>
      </trkpt>
      <trkpt lat="31.66780620" lon="34.93485320">
        <ele>313.00000</ele>
        <time>2010-01-01T02:53:50Z</time>
      </trkpt>
      <trkpt lat="31.66770920" lon="34.93480060">
        <ele>313.00000</ele>
        <time>2010-01-01T02:53:54Z</time>
      </trkpt>
      <trkpt lat="31.66760530" lon="34.93476640">
        <ele>313.00000</ele>
        <time>2010-01-01T02:53:59Z</time>
      </trkpt>
      <trkpt lat="31.66749670" lon="34.93474940">
        <ele>314.00000</ele>
        <time>2010-01-01T02:54:03Z</time>
      </trkpt>
      <trkpt lat="31.66738640" lon="34.93475550">
        <ele>314.00000</ele>
        <time>2010-01-01T02:54:08Z</time>
      </trkpt>
      <trkpt lat="31.66727840" lon="34.93479130">
        <ele>315.00000</ele>
        <time>2010-01-01T02:54:12Z</time>
      </trkpt>
      <trkpt lat="31.66717190" lon="34.93484570">
        <ele>315.00000</ele>
        <time>2010-01-01T02:54:17Z</time>
      </trkpt>
      <trkpt lat="31.66706260" lon="34.93490120">
        <ele>315.00000</ele>
        <time>2010-01-01T02:54:22Z</time>
      </trkpt>
      <trkpt lat="31.66695180" lon="34.93495860">
        <ele>315.00000</ele>
        <time>2010-01-01T02:54:26Z</time>
      </trkpt>
      <trkpt lat="31.66683780" lon="34.93501640">
        <ele>314.00000</ele>
        <time>2010-01-01T02:54:31Z</time>
      </trkpt>
      <trkpt lat="31.66671850" lon="34.93506750">
        <ele>313.00000</ele>
        <time>2010-01-01T02:54:36Z</time>
      </trkpt>
      <trkpt lat="31.66660350" lon="34.93512800">
        <ele>313.00000</ele>
        <time>2010-01-01T02:54:41Z</time>
      </trkpt>
      <trkpt lat="31.66649440" lon="34.93519540">
        <ele>313.00000</ele>
        <time>2010-01-01T02:54:46Z</time>
      </trkpt>
      <trkpt lat="31.66638730" lon="34.93525230">
        <ele>312.00000</ele>
        <time>2010-01-01T02:54:51Z</time>
      </trkpt>
      <trkpt lat="31.66629150" lon="34.93530600">
        <ele>313.00000</ele>
        <time>2010-01-01T02:54:55Z</time>
      </trkpt>
      <trkpt lat="31.66620710" lon="34.93535310">
        <ele>313.00000</ele>
        <time>2010-01-01T02:54:59Z</time>
      </trkpt>
      <trkpt lat="31.66610840" lon="34.93539440">
        <ele>313.00000</ele>
        <time>2010-01-01T02:55:03Z</time>
      </trkpt>
      <trkpt lat="31.66600870" lon="34.93539190">
        <ele>313.00000</ele>
        <time>2010-01-01T02:55:07Z</time>
      </trkpt>
      <trkpt lat="31.66591240" lon="34.93545460">
        <ele>313.00000</ele>
        <time>2010-01-01T02:55:12Z</time>
      </trkpt>
      <trkpt lat="31.66588590" lon="34.93559020">
        <ele>313.00000</ele>
        <time>2010-01-01T02:55:16Z</time>
      </trkpt>
      <trkpt lat="31.66591300" lon="34.93574160">
        <ele>311.00000</ele>
        <time>2010-01-01T02:55:22Z</time>
      </trkpt>
      <trkpt lat="31.66590230" lon="34.93585590">
        <ele>310.00000</ele>
        <time>2010-01-01T02:55:26Z</time>
      </trkpt>
      <trkpt lat="31.66581370" lon="34.93597290">
        <ele>308.00000</ele>
        <time>2010-01-01T02:55:31Z</time>
      </trkpt>
      <trkpt lat="31.66574340" lon="34.93605160">
        <ele>307.00000</ele>
        <time>2010-01-01T02:55:35Z</time>
      </trkpt>
      <trkpt lat="31.66565610" lon="34.93613930">
        <ele>306.00000</ele>
        <time>2010-01-01T02:55:39Z</time>
      </trkpt>
      <trkpt lat="31.66556800" lon="34.93622360">
        <ele>305.00000</ele>
        <time>2010-01-01T02:55:44Z</time>
      </trkpt>
      <trkpt lat="31.66546510" lon="34.93623710">
        <ele>304.00000</ele>
        <time>2010-01-01T02:55:48Z</time>
      </trkpt>
      <trkpt lat="31.66535490" lon="34.93615900">
        <ele>303.00000</ele>
        <time>2010-01-01T02:55:53Z</time>
      </trkpt>
      <trkpt lat="31.66526530" lon="34.93608510">
        <ele>302.00000</ele>
        <time>2010-01-01T02:55:58Z</time>
      </trkpt>
      <trkpt lat="31.66516540" lon="34.93600410">
        <ele>301.00000</ele>
        <time>2010-01-01T02:56:03Z</time>
      </trkpt>
      <trkpt lat="31.66505430" lon="34.93591810">
        <ele>300.00000</ele>
        <time>2010-01-01T02:56:08Z</time>
      </trkpt>
      <trkpt lat="31.66493320" lon="34.93582230">
        <ele>299.00000</ele>
        <time>2010-01-01T02:56:14Z</time>
      </trkpt>
      <trkpt lat="31.66480350" lon="34.93571740">
        <ele>298.00000</ele>
        <time>2010-01-01T02:56:20Z</time>
      </trkpt>
      <trkpt lat="31.66467980" lon="34.93560370">
        <ele>297.00000</ele>
        <time>2010-01-01T02:56:26Z</time>
      </trkpt>
      <trkpt lat="31.66456830" lon="34.93549020">
        <ele>295.00000</ele>
        <time>2010-01-01T02:56:32Z</time>
      </trkpt>
      <trkpt lat="31.66447910" lon="34.93537920">
        <ele>293.00000</ele>
        <time>2010-01-01T02:56:37Z</time>
      </trkpt>
      <trkpt lat="31.66440670" lon="34.93528270">
        <ele>291.00000</ele>
        <time>2010-01-01T02:56:42Z</time>
      </trkpt>
      <trkpt lat="31.66436280" lon="34.93514520">
        <ele>289.00000</ele>
        <time>2010-01-01T02:56:47Z</time>
      </trkpt>
      <trkpt lat="31.66437880" lon="34.93503830">
        <ele>289.00000</ele>
        <time>2010-01-01T02:56:50Z</time>
      </trkpt>
      <trkpt lat="31.66439740" lon="34.93491590">
        <ele>288.00000</ele>
        <time>2010-01-01T02:56:55Z</time>
      </trkpt>
      <trkpt lat="31.66442060" lon="34.93478200">
        <ele>288.00000</ele>
        <time>2010-01-01T02:56:59Z</time>
      </trkpt>
      <trkpt lat="31.66445210" lon="34.93464020">
        <ele>288.00000</ele>
        <time>2010-01-01T02:57:04Z</time>
      </trkpt>
      <trkpt lat="31.66448970" lon="34.93449090">
        <ele>288.00000</ele>
        <time>2010-01-01T02:57:10Z</time>
      </trkpt>
      <trkpt lat="31.66453660" lon="34.93433950">
        <ele>289.00000</ele>
        <time>2010-01-01T02:57:15Z</time>
      </trkpt>
      <trkpt lat="31.66459870" lon="34.93419480">
        <ele>289.00000</ele>
        <time>2010-01-01T02:57:21Z</time>
      </trkpt>
      <trkpt lat="31.66466940" lon="34.93405640">
        <ele>290.00000</ele>
        <time>2010-01-01T02:57:26Z</time>
      </trkpt>
      <trkpt lat="31.66473150" lon="34.93393930">
        <ele>290.00000</ele>
        <time>2010-01-01T02:57:31Z</time>
      </trkpt>
      <trkpt lat="31.66479540" lon="34.93383310">
        <ele>291.00000</ele>
        <time>2010-01-01T02:57:35Z</time>
      </trkpt>
      <trkpt lat="31.66485990" lon="34.93373250">
        <ele>291.00000</ele>
        <time>2010-01-01T02:57:40Z</time>
      </trkpt>
      <trkpt lat="31.66491930" lon="34.93363210">
        <ele>291.00000</ele>
        <time>2010-01-01T02:57:44Z</time>
      </trkpt>
      <trkpt lat="31.66497820" lon="34.93353230">
        <ele>291.00000</ele>
        <time>2010-01-01T02:57:48Z</time>
      </trkpt>
      <trkpt lat="31.66503110" lon="34.93342980">
        <ele>290.00000</ele>
        <time>2010-01-01T02:57:52Z</time>
      </trkpt>
      <trkpt lat="31.66507610" lon="34.93332470">
        <ele>290.00000</ele>
        <time>2010-01-01T02:57:56Z</time>
      </trkpt>
      <trkpt lat="31.66512370" lon="34.93322250">
        <ele>289.00000</ele>
        <time>2010-01-01T02:58:00Z</time>
      </trkpt>
      <trkpt lat="31.66517510" lon="34.93312610">
        <ele>289.00000</ele>
        <time>2010-01-01T02:58:04Z</time>
      </trkpt>
      <trkpt lat="31.66522620" lon="34.93302910">
        <ele>288.00000</ele>
        <time>2010-01-01T02:58:08Z</time>
      </trkpt>
      <trkpt lat="31.66526940" lon="34.93293430">
        <ele>288.00000</ele>
        <time>2010-01-01T02:58:11Z</time>
      </trkpt>
      <trkpt lat="31.66530660" lon="34.93283270">
        <ele>287.00000</ele>
        <time>2010-01-01T02:58:15Z</time>
      </trkpt>
      <trkpt lat="31.66534850" lon="34.93273350">
        <ele>286.00000</ele>
        <time>2010-01-01T02:58:19Z</time>
      </trkpt>
      <trkpt lat="31.66539270" lon="34.93263310">
        <ele>286.00000</ele>
        <time>2010-01-01T02:58:23Z</time>
      </trkpt>
      <trkpt lat="31.66543370" lon="34.93252480">
        <ele>285.00000</ele>
        <time>2010-01-01T02:58:27Z</time>
      </trkpt>
      <trkpt lat="31.66547420" lon="34.93241350">
        <ele>285.00000</ele>
        <time>2010-01-01T02:58:31Z</time>
      </trkpt>
      <trkpt lat="31.66551780" lon="34.93230780">
        <ele>284.00000</ele>
        <time>2010-01-01T02:58:35Z</time>
      </trkpt>
      <trkpt lat="31.66557900" lon="34.93221500">
        <ele>284.00000</ele>
        <time>2010-01-01T02:58:39Z</time>
      </trkpt>
      <trkpt lat="31.66566080" lon="34.93214290">
        <ele>283.00000</ele>
        <time>2010-01-01T02:58:43Z</time>
      </trkpt>
      <trkpt lat="31.66574720" lon="34.93208430">
        <ele>283.00000</ele>
        <time>2010-01-01T02:58:47Z</time>
      </trkpt>
      <trkpt lat="31.66583750" lon="34.93203890">
        <ele>283.00000</ele>
        <time>2010-01-01T02:58:51Z</time>
      </trkpt>
      <trkpt lat="31.66592730" lon="34.93200650">
        <ele>282.00000</ele>
        <time>2010-01-01T02:58:55Z</time>
      </trkpt>
      <trkpt lat="31.66602080" lon="34.93198530">
        <ele>282.00000</ele>
        <time>2010-01-01T02:58:59Z</time>
      </trkpt>
      <trkpt lat="31.66612070" lon="34.93197730">
        <ele>281.00000</ele>
        <time>2010-01-01T02:59:03Z</time>
      </trkpt>
      <trkpt lat="31.66622730" lon="34.93197690">
        <ele>280.00000</ele>
        <time>2010-01-01T02:59:07Z</time>
      </trkpt>
      <trkpt lat="31.66633740" lon="34.93198750">
        <ele>279.00000</ele>
        <time>2010-01-01T02:59:11Z</time>
      </trkpt>
      <trkpt lat="31.66644980" lon="34.93201350">
        <ele>279.00000</ele>
        <time>2010-01-01T02:59:16Z</time>
      </trkpt>
      <trkpt lat="31.66656020" lon="34.93205050">
        <ele>278.00000</ele>
        <time>2010-01-01T02:59:20Z</time>
      </trkpt>
      <trkpt lat="31.66666320" lon="34.93211040">
        <ele>278.00000</ele>
        <time>2010-01-01T02:59:25Z</time>
      </trkpt>
      <trkpt lat="31.66675620" lon="34.93219680">
        <ele>278.00000</ele>
        <time>2010-01-01T02:59:30Z</time>
      </trkpt>
      <trkpt lat="31.66683810" lon="34.93230020">
        <ele>279.00000</ele>
        <time>2010-01-01T02:59:35Z</time>
      </trkpt>
      <trkpt lat="31.66691030" lon="34.93241210">
        <ele>281.00000</ele>
        <time>2010-01-01T02:59:39Z</time>
      </trkpt>
      <trkpt lat="31.66697380" lon="34.93252300">
        <ele>281.00000</ele>
        <time>2010-01-01T02:59:44Z</time>
      </trkpt>
      <trkpt lat="31.66703250" lon="34.93262870">
        <ele>281.00000</ele>
        <time>2010-01-01T02:59:48Z</time>
      </trkpt>
      <trkpt lat="31.66708880" lon="34.93273090">
        <ele>282.00000</ele>
        <time>2010-01-01T02:59:52Z</time>
      </trkpt>
      <trkpt lat="31.66714240" lon="34.93282860">
        <ele>282.00000</ele>
        <time>2010-01-01T02:59:56Z</time>
      </trkpt>
      <trkpt lat="31.66719880" lon="34.93292240">
        <ele>282.00000</ele>
        <time>2010-01-01T03:00:00Z</time>
      </trkpt>
      <trkpt lat="31.66725520" lon="34.93300780">
        <ele>282.00000</ele>
        <time>2010-01-01T03:00:04Z</time>
      </trkpt>
      <trkpt lat="31.66731800" lon="34.93308550">
        <ele>282.00000</ele>
        <time>2010-01-01T03:00:08Z</time>
      </trkpt>
      <trkpt lat="31.66741290" lon="34.93318930">
        <ele>282.00000</ele>
        <time>2010-01-01T03:00:13Z</time>
      </trkpt>
      <trkpt lat="31.66750400" lon="34.93328730">
        <ele>281.00000</ele>
        <time>2010-01-01T03:00:18Z</time>
      </trkpt>
      <trkpt lat="31.66757840" lon="34.93338260">
        <ele>281.00000</ele>
        <time>2010-01-01T03:00:22Z</time>
      </trkpt>
      <trkpt lat="31.66767990" lon="34.93341660">
        <ele>280.00000</ele>
        <time>2010-01-01T03:00:26Z</time>
      </trkpt>
      <trkpt lat="31.66778150" lon="34.93335190">
        <ele>277.00000</ele>
        <time>2010-01-01T03:00:31Z</time>
      </trkpt>
      <trkpt lat="31.66784080" lon="34.93325390">
        <ele>276.00000</ele>
        <time>2010-01-01T03:00:35Z</time>
      </trkpt>
      <trkpt lat="31.66790890" lon="34.93313370">
        <ele>274.00000</ele>
        <time>2010-01-01T03:00:40Z</time>
      </trkpt>
      <trkpt lat="31.66798940" lon="34.93299700">
        <ele>274.00000</ele>
        <time>2010-01-01T03:00:46Z</time>
      </trkpt>
      <trkpt lat="31.66805980" lon="34.93285380">
        <ele>274.00000</ele>
        <time>2010-01-01T03:00:51Z</time>
      </trkpt>
      <trkpt lat="31.66810650" lon="34.93274220">
        <ele>275.00000</ele>
        <time>2010-01-01T03:00:56Z</time>
      </trkpt>
      <trkpt lat="31.66812770" lon="34.93262530">
        <ele>275.00000</ele>
        <time>2010-01-01T03:01:00Z</time>
      </trkpt>
      <trkpt lat="31.66816950" lon="34.93249140">
        <ele>276.00000</ele>
        <time>2010-01-01T03:01:04Z</time>
      </trkpt>
      <trkpt lat="31.66817730" lon="34.93237300">
        <ele>277.00000</ele>
        <time>2010-01-01T03:01:08Z</time>
      </trkpt>
      <trkpt lat="31.66823260" lon="34.93228590">
        <ele>278.00000</ele>
        <time>2010-01-01T03:01:12Z</time>
      </trkpt>
      <trkpt lat="31.66827900" lon="34.93237460">
        <ele>278.00000</ele>
        <time>2010-01-01T03:01:16Z</time>
      </trkpt>
      <trkpt lat="31.66831620" lon="34.93248310">
        <ele>277.00000</ele>
        <time>2010-01-01T03:01:20Z</time>
      </trkpt>
      <trkpt lat="31.66837460" lon="34.93259710">
        <ele>277.00000</ele>
        <time>2010-01-01T03:01:24Z</time>
      </trkpt>
      <trkpt lat="31.66845530" lon="34.93270490">
        <ele>276.00000</ele>
        <time>2010-01-01T03:01:29Z</time>
      </trkpt>
      <trkpt lat="31.66854620" lon="34.93281160">
        <ele>274.00000</ele>
        <time>2010-01-01T03:01:34Z</time>
      </trkpt>
      <trkpt lat="31.66864990" lon="34.93290680">
        <ele>274.00000</ele>
        <time>2010-01-01T03:01:40Z</time>
      </trkpt>
      <trkpt lat="31.66875670" lon="34.93299130">
        <ele>273.00000</ele>
        <time>2010-01-01T03:01:45Z</time>
      </trkpt>
      <trkpt lat="31.66887410" lon="34.93304810">
        <ele>273.00000</ele>
        <time>2010-01-01T03:01:50Z</time>
      </trkpt>
      <trkpt lat="31.66898790" lon="34.93307310">
        <ele>273.00000</ele>
        <time>2010-01-01T03:01:54Z</time>
      </trkpt>
      <trkpt lat="31.66908430" lon="34.93307570">
        <ele>273.00000</ele>
        <time>2010-01-01T03:01:58Z</time>
      </trkpt>
      <trkpt lat="31.66919210" lon="34.93304590">
        <ele>274.00000</ele>
        <time>2010-01-01T03:02:03Z</time>
      </trkpt>
      <trkpt lat="31.66928110" lon="34.93298430">
        <ele>275.00000</ele>
        <time>2010-01-01T03:02:07Z</time>
      </trkpt>
      <trkpt lat="31.66936140" lon="34.93291640">
        <ele>277.00000</ele>
        <time>2010-01-01T03:02:11Z</time>
      </trkpt>
      <trkpt lat="31.66944640" lon="34.93285040">
        <ele>279.00000</ele>
        <time>2010-01-01T03:02:15Z</time>
      </trkpt>
      <trkpt lat="31.66953730" lon="34.93280050">
        <ele>281.00000</ele>
        <time>2010-01-01T03:02:19Z</time>
      </trkpt>
      <trkpt lat="31.66963520" lon="34.93276520">
        <ele>282.00000</ele>
        <time>2010-01-01T03:02:23Z</time>
      </trkpt>
      <trkpt lat="31.66973250" lon="34.93273230">
        <ele>284.00000</ele>
        <time>2010-01-01T03:02:27Z</time>
      </trkpt>
      <trkpt lat="31.66983080" lon="34.93272520">
        <ele>284.00000</ele>
        <time>2010-01-01T03:02:31Z</time>
      </trkpt>
      <trkpt lat="31.66994070" lon="34.93274260">
        <ele>284.00000</ele>
        <time>2010-01-01T03:02:35Z</time>
      </trkpt>
      <trkpt lat="31.67003760" lon="34.93276160">
        <ele>284.00000</ele>
        <time>2010-01-01T03:02:39Z</time>
      </trkpt>
      <trkpt lat="31.67015360" lon="34.93279260">
        <ele>284.00000</ele>
        <time>2010-01-01T03:02:44Z</time>
      </trkpt>
      <trkpt lat="31.67027290" lon="34.93284480">
        <ele>283.00000</ele>
        <time>2010-01-01T03:02:49Z</time>
      </trkpt>
      <trkpt lat="31.67036230" lon="34.93290400">
        <ele>282.00000</ele>
        <time>2010-01-01T03:02:53Z</time>
      </trkpt>
      <trkpt lat="31.67045210" lon="34.93297570">
        <ele>281.00000</ele>
        <time>2010-01-01T03:02:58Z</time>
      </trkpt>
      <trkpt lat="31.67053720" lon="34.93305390">
        <ele>280.00000</ele>
        <time>2010-01-01T03:03:02Z</time>
      </trkpt>
      <trkpt lat="31.67060830" lon="34.93314170">
        <ele>280.00000</ele>
        <time>2010-01-01T03:03:06Z</time>
      </trkpt>
      <trkpt lat="31.67067710" lon="34.93322470">
        <ele>280.00000</ele>
        <time>2010-01-01T03:03:10Z</time>
      </trkpt>
      <trkpt lat="31.67074200" lon="34.93330820">
        <ele>279.00000</ele>
        <time>2010-01-01T03:03:14Z</time>
      </trkpt>
      <trkpt lat="31.67080620" lon="34.93339020">
        <ele>279.00000</ele>
        <time>2010-01-01T03:03:18Z</time>
      </trkpt>
      <trkpt lat="31.67087490" lon="34.93347430">
        <ele>278.00000</ele>
        <time>2010-01-01T03:03:22Z</time>
      </trkpt>
      <trkpt lat="31.67094750" lon="34.93355930">
        <ele>278.00000</ele>
        <time>2010-01-01T03:03:26Z</time>
      </trkpt>
      <trkpt lat="31.67102800" lon="34.93364150">
        <ele>278.00000</ele>
        <time>2010-01-01T03:03:30Z</time>
      </trkpt>
      <trkpt lat="31.67111350" lon="34.93372120">
        <ele>278.00000</ele>
        <time>2010-01-01T03:03:34Z</time>
      </trkpt>
      <trkpt lat="31.67120520" lon="34.93379190">
        <ele>279.00000</ele>
        <time>2010-01-01T03:03:39Z</time>
      </trkpt>
      <trkpt lat="31.67130130" lon="34.93386440">
        <ele>279.00000</ele>
        <time>2010-01-01T03:03:43Z</time>
      </trkpt>
      <trkpt lat="31.67139960" lon="34.93394070">
        <ele>279.00000</ele>
        <time>2010-01-01T03:03:48Z</time>
      </trkpt>
      <trkpt lat="31.67149330" lon="34.93402070">
        <ele>279.00000</ele>
        <time>2010-01-01T03:03:53Z</time>
      </trkpt>
      <trkpt lat="31.67159110" lon="34.93410240">
        <ele>278.00000</ele>
        <time>2010-01-01T03:03:58Z</time>
      </trkpt>
      <trkpt lat="31.67169450" lon="34.93418350">
        <ele>277.00000</ele>
        <time>2010-01-01T03:04:03Z</time>
      </trkpt>
      <trkpt lat="31.67180000" lon="34.93426060">
        <ele>276.00000</ele>
        <time>2010-01-01T03:04:08Z</time>
      </trkpt>
      <trkpt lat="31.67191140" lon="34.93431950">
        <ele>276.00000</ele>
        <time>2010-01-01T03:04:12Z</time>
      </trkpt>
      <trkpt lat="31.67202620" lon="34.93436160">
        <ele>276.00000</ele>
        <time>2010-01-01T03:04:17Z</time>
      </trkpt>
      <trkpt lat="31.67213960" lon="34.93437720">
        <ele>277.00000</ele>
        <time>2010-01-01T03:04:22Z</time>
      </trkpt>
      <trkpt lat="31.67225210" lon="34.93437620">
        <ele>277.00000</ele>
        <time>2010-01-01T03:04:26Z</time>
      </trkpt>
      <trkpt lat="31.67236370" lon="34.93435430">
        <ele>278.00000</ele>
        <time>2010-01-01T03:04:31Z</time>
      </trkpt>
      <trkpt lat="31.67246860" lon="34.93432390">
        <ele>279.00000</ele>
        <time>2010-01-01T03:04:35Z</time>
      </trkpt>
      <trkpt lat="31.67255880" lon="34.93429870">
        <ele>279.00000</ele>
        <time>2010-01-01T03:04:39Z</time>
      </trkpt>
      <trkpt lat="31.67265610" lon="34.93423930">
        <ele>281.00000</ele>
        <time>2010-01-01T03:04:43Z</time>
      </trkpt>
      <trkpt lat="31.67274540" lon="34.93415390">
        <ele>282.00000</ele>
        <time>2010-01-01T03:04:48Z</time>
      </trkpt>
      <trkpt lat="31.67283890" lon="34.93407760">
        <ele>283.00000</ele>
        <time>2010-01-01T03:04:52Z</time>
      </trkpt>
      <trkpt lat="31.67292200" lon="34.93399140">
        <ele>285.00000</ele>
        <time>2010-01-01T03:04:57Z</time>
      </trkpt>
      <trkpt lat="31.67300740" lon="34.93391700">
        <ele>285.00000</ele>
        <time>2010-01-01T03:05:01Z</time>
      </trkpt>
      <trkpt lat="31.67310160" lon="34.93384770">
        <ele>285.00000</ele>
        <time>2010-01-01T03:05:06Z</time>
      </trkpt>
      <trkpt lat="31.67319190" lon="34.93377290">
        <ele>287.00000</ele>
        <time>2010-01-01T03:05:10Z</time>
      </trkpt>
      <trkpt lat="31.67328240" lon="34.93369440">
        <ele>289.00000</ele>
        <time>2010-01-01T03:05:14Z</time>
      </trkpt>
      <trkpt lat="31.67337170" lon="34.93361000">
        <ele>290.00000</ele>
        <time>2010-01-01T03:05:19Z</time>
      </trkpt>
      <trkpt lat="31.67344390" lon="34.93352800">
        <ele>291.00000</ele>
        <time>2010-01-01T03:05:23Z</time>
      </trkpt>
      <trkpt lat="31.67351440" lon="34.93344670">
        <ele>292.00000</ele>
        <time>2010-01-01T03:05:27Z</time>
      </trkpt>
      <trkpt lat="31.67358780" lon="34.93336310">
        <ele>293.00000</ele>
        <time>2010-01-01T03:05:31Z</time>
      </trkpt>
      <trkpt lat="31.67366620" lon="34.93327520">
        <ele>294.00000</ele>
        <time>2010-01-01T03:05:35Z</time>
      </trkpt>
      <trkpt lat="31.67374600" lon="34.93318220">
        <ele>294.00000</ele>
        <time>2010-01-01T03:05:40Z</time>
      </trkpt>
      <trkpt lat="31.67382300" lon="34.93309200">
        <ele>294.00000</ele>
        <time>2010-01-01T03:05:44Z</time>
      </trkpt>
      <trkpt lat="31.67390020" lon="34.93299390">
        <ele>294.00000</ele>
        <time>2010-01-01T03:05:49Z</time>
      </trkpt>
      <trkpt lat="31.67397590" lon="34.93290770">
        <ele>294.00000</ele>
        <time>2010-01-01T03:05:53Z</time>
      </trkpt>
      <trkpt lat="31.67404510" lon="34.93283060">
        <ele>294.00000</ele>
        <time>2010-01-01T03:05:57Z</time>
      </trkpt>
      <trkpt lat="31.67411720" lon="34.93274730">
        <ele>294.00000</ele>
        <time>2010-01-01T03:06:01Z</time>
      </trkpt>
      <trkpt lat="31.67419700" lon="34.93266430">
        <ele>294.00000</ele>
        <time>2010-01-01T03:06:05Z</time>
      </trkpt>
      <trkpt lat="31.67427330" lon="34.93258560">
        <ele>295.00000</ele>
        <time>2010-01-01T03:06:09Z</time>
      </trkpt>
      <trkpt lat="31.67435420" lon="34.93251310">
        <ele>295.00000</ele>
        <time>2010-01-01T03:06:13Z</time>
      </trkpt>
      <trkpt lat="31.67441590" lon="34.93242830">
        <ele>295.00000</ele>
        <time>2010-01-01T03:06:17Z</time>
      </trkpt>
      <trkpt lat="31.67449300" lon="34.93234690">
        <ele>296.00000</ele>
        <time>2010-01-01T03:06:21Z</time>
      </trkpt>
      <trkpt lat="31.67456780" lon="34.93225980">
        <ele>296.00000</ele>
        <time>2010-01-01T03:06:26Z</time>
      </trkpt>
      <trkpt lat="31.67465740" lon="34.93219020">
        <ele>296.00000</ele>
        <time>2010-01-01T03:06:30Z</time>
      </trkpt>
      <trkpt lat="31.67473490" lon="34.93213160">
        <ele>297.00000</ele>
        <time>2010-01-01T03:06:34Z</time>
      </trkpt>
      <trkpt lat="31.67481620" lon="34.93203990">
        <ele>298.00000</ele>
        <time>2010-01-01T03:06:38Z</time>
      </trkpt>
      <trkpt lat="31.67487320" lon="34.93195320">
        <ele>299.00000</ele>
        <time>2010-01-01T03:06:42Z</time>
      </trkpt>
      <trkpt lat="31.67492860" lon="34.93185880">
        <ele>300.00000</ele>
        <time>2010-01-01T03:06:46Z</time>
      </trkpt>
      <trkpt lat="31.67496430" lon="34.93175660">
        <ele>301.00000</ele>
        <time>2010-01-01T03:06:49Z</time>
      </trkpt>
      <trkpt lat="31.67499740" lon="34.93163170">
        <ele>302.00000</ele>
        <time>2010-01-01T03:06:54Z</time>
      </trkpt>
      <trkpt lat="31.67503150" lon="34.93152230">
        <ele>302.00000</ele>
        <time>2010-01-01T03:06:58Z</time>
      </trkpt>
      <trkpt lat="31.67504140" lon="34.93141400">
        <ele>302.00000</ele>
        <time>2010-01-01T03:07:02Z</time>
      </trkpt>
      <trkpt lat="31.67503220" lon="34.93130000">
        <ele>303.00000</ele>
        <time>2010-01-01T03:07:05Z</time>
      </trkpt>
      <trkpt lat="31.67502730" lon="34.93118340">
        <ele>305.00000</ele>
        <time>2010-01-01T03:07:09Z</time>
      </trkpt>
      <trkpt lat="31.67507660" lon="34.93107830">
        <ele>305.00000</ele>
        <time>2010-01-01T03:07:14Z</time>
      </trkpt>
      <trkpt lat="31.67514880" lon="34.93099880">
        <ele>305.00000</ele>
        <time>2010-01-01T03:07:17Z</time>
      </trkpt>
      <trkpt lat="31.67523680" lon="34.93092260">
        <ele>304.00000</ele>
        <time>2010-01-01T03:07:22Z</time>
      </trkpt>
      <trkpt lat="31.67533540" lon="34.93086390">
        <ele>304.00000</ele>
        <time>2010-01-01T03:07:26Z</time>
      </trkpt>
      <trkpt lat="31.67541750" lon="34.93081240">
        <ele>304.00000</ele>
        <time>2010-01-01T03:07:30Z</time>
      </trkpt>
      <trkpt lat="31.67548530" lon="34.93073990">
        <ele>304.00000</ele>
        <time>2010-01-01T03:07:34Z</time>
      </trkpt>
      <trkpt lat="31.67558290" lon="34.93067860">
        <ele>304.00000</ele>
        <time>2010-01-01T03:07:38Z</time>
      </trkpt>
      <trkpt lat="31.67567610" lon="34.93060900">
        <ele>305.00000</ele>
        <time>2010-01-01T03:07:43Z</time>
      </trkpt>
      <trkpt lat="31.67576880" lon="34.93054770">
        <ele>305.00000</ele>
        <time>2010-01-01T03:07:47Z</time>
      </trkpt>
      <trkpt lat="31.67585430" lon="34.93050530">
        <ele>305.00000</ele>
        <time>2010-01-01T03:07:51Z</time>
      </trkpt>
      <trkpt lat="31.67595080" lon="34.93048750">
        <ele>306.00000</ele>
        <time>2010-01-01T03:07:54Z</time>
      </trkpt>
      <trkpt lat="31.67606490" lon="34.93050860">
        <ele>305.00000</ele>
        <time>2010-01-01T03:07:59Z</time>
      </trkpt>
      <trkpt lat="31.67616870" lon="34.93054210">
        <ele>305.00000</ele>
        <time>2010-01-01T03:08:03Z</time>
      </trkpt>
      <trkpt lat="31.67626300" lon="34.93055800">
        <ele>306.00000</ele>
        <time>2010-01-01T03:08:07Z</time>
      </trkpt>
      <trkpt lat="31.67637370" lon="34.93055090">
        <ele>307.00000</ele>
        <time>2010-01-01T03:08:12Z</time>
      </trkpt>
      <trkpt lat="31.67647100" lon="34.93054950">
        <ele>307.00000</ele>
        <time>2010-01-01T03:08:16Z</time>
      </trkpt>
      <trkpt lat="31.67656910" lon="34.93055450">
        <ele>308.00000</ele>
        <time>2010-01-01T03:08:19Z</time>
      </trkpt>
      <trkpt lat="31.67666000" lon="34.93053940">
        <ele>309.00000</ele>
        <time>2010-01-01T03:08:23Z</time>
      </trkpt>
      <trkpt lat="31.67675850" lon="34.93051100">
        <ele>310.00000</ele>
        <time>2010-01-01T03:08:27Z</time>
      </trkpt>
      <trkpt lat="31.67685190" lon="34.93048790">
        <ele>311.00000</ele>
        <time>2010-01-01T03:08:31Z</time>
      </trkpt>
      <trkpt lat="31.67694000" lon="34.93048220">
        <ele>312.00000</ele>
        <time>2010-01-01T03:08:35Z</time>
      </trkpt>
      <trkpt lat="31.67703160" lon="34.93048820">
        <ele>312.00000</ele>
        <time>2010-01-01T03:08:38Z</time>
      </trkpt>
      <trkpt lat="31.67712480" lon="34.93045910">
        <ele>313.00000</ele>
        <time>2010-01-01T03:08:42Z</time>
      </trkpt>
      <trkpt lat="31.67721910" lon="34.93044550">
        <ele>314.00000</ele>
        <time>2010-01-01T03:08:46Z</time>
      </trkpt>
      <trkpt lat="31.67730910" lon="34.93049240">
        <ele>314.00000</ele>
        <time>2010-01-01T03:08:50Z</time>
      </trkpt>
      <trkpt lat="31.67739010" lon="34.93058860">
        <ele>314.00000</ele>
        <time>2010-01-01T03:08:54Z</time>
      </trkpt>
      <trkpt lat="31.67746110" lon="34.93066540">
        <ele>315.00000</ele>
        <time>2010-01-01T03:08:58Z</time>
      </trkpt>
      <trkpt lat="31.67755250" lon="34.93070420">
        <ele>316.00000</ele>
        <time>2010-01-01T03:09:02Z</time>
      </trkpt>
      <trkpt lat="31.67762080" lon="34.93063050">
        <ele>316.00000</ele>
        <time>2010-01-01T03:09:06Z</time>
      </trkpt>
      <trkpt lat="31.67762310" lon="34.93050550">
        <ele>316.00000</ele>
        <time>2010-01-01T03:09:10Z</time>
      </trkpt>
      <trkpt lat="31.67763530" lon="34.93039030">
        <ele>317.00000</ele>
        <time>2010-01-01T03:09:14Z</time>
      </trkpt>
      <trkpt lat="31.67763050" lon="34.93027720">
        <ele>317.00000</ele>
        <time>2010-01-01T03:09:18Z</time>
      </trkpt>
      <trkpt lat="31.67761190" lon="34.93015970">
        <ele>319.00000</ele>
        <time>2010-01-01T03:09:22Z</time>
      </trkpt>
      <trkpt lat="31.67754790" lon="34.93006810">
        <ele>320.00000</ele>
        <time>2010-01-01T03:09:26Z</time>
      </trkpt>
      <trkpt lat="31.67750320" lon="34.93005010">
        <ele>320.00000</ele>
        <time>2010-01-01T03:09:28Z</time>
      </trkpt>
    </trkseg>
  </trk>
</gpx>

